<?xml version="1.0" encoding="UTF-8" standalone="no" ?>
<gpx xmlns="http://www.topografix.com/GPX/1/1" xmlns:xsi="http://www.w3.org/2001/XMLSchema-instance" xsi:schemaLocation="http://www.topografix.com/GPX/1/1 http://www.topografix.com/GPX/1/1/gpx.xsd" version="1.1" creator="VisuGPX - https://www.visugpx.com">
  <metadata>
    <name>VTT-2022-08-03-01</name>
  </metadata>
  <trk>
    <name><![CDATA[VTT-2022-08-03-01]]></name>
    <extensions>
      <line xmlns="http://www.topografix.com/GPX/gpx_style/0/2">
        <width>4</width>
      </line>
    </extensions>
    <trkseg>
      <trkpt lat="42.91865" lon="1.83653">
        <ele>567.2</ele>
        <time>2022-08-03T16:27:33.000Z</time>
      </trkpt>
      <trkpt lat="42.91865" lon="1.83653">
        <ele>567.2</ele>
        <time>2022-08-03T16:27:34.000Z</time>
      </trkpt>
      <trkpt lat="42.9186" lon="1.83656">
        <ele>568.5</ele>
        <time>2022-08-03T16:27:53.000Z</time>
      </trkpt>
      <trkpt lat="42.91855" lon="1.83657">
        <ele>568.5</ele>
        <time>2022-08-03T16:27:59.000Z</time>
      </trkpt>
      <trkpt lat="42.91853" lon="1.83649">
        <ele>568.3</ele>
        <time>2022-08-03T16:29:55.000Z</time>
      </trkpt>
      <trkpt lat="42.91858" lon="1.83647">
        <ele>568.3</ele>
        <time>2022-08-03T16:29:58.000Z</time>
      </trkpt>
      <trkpt lat="42.91864" lon="1.83645">
        <ele>568.3</ele>
        <time>2022-08-03T16:30:00.000Z</time>
      </trkpt>
      <trkpt lat="42.9187" lon="1.83641">
        <ele>568.3</ele>
        <time>2022-08-03T16:30:02.000Z</time>
      </trkpt>
      <trkpt lat="42.91877" lon="1.83636">
        <ele>568.2</ele>
        <time>2022-08-03T16:30:04.000Z</time>
      </trkpt>
      <trkpt lat="42.91882" lon="1.83628">
        <ele>568.1</ele>
        <time>2022-08-03T16:30:06.000Z</time>
      </trkpt>
      <trkpt lat="42.91887" lon="1.8362">
        <ele>568.1</ele>
        <time>2022-08-03T16:30:08.000Z</time>
      </trkpt>
      <trkpt lat="42.91892" lon="1.83612">
        <ele>568</ele>
        <time>2022-08-03T16:30:10.000Z</time>
      </trkpt>
      <trkpt lat="42.91899" lon="1.83609">
        <ele>568</ele>
        <time>2022-08-03T16:30:12.000Z</time>
      </trkpt>
      <trkpt lat="42.91905" lon="1.83606">
        <ele>568</ele>
        <time>2022-08-03T16:30:14.000Z</time>
      </trkpt>
      <trkpt lat="42.91912" lon="1.83603">
        <ele>568</ele>
        <time>2022-08-03T16:30:16.000Z</time>
      </trkpt>
      <trkpt lat="42.91917" lon="1.83597">
        <ele>567.9</ele>
        <time>2022-08-03T16:30:18.000Z</time>
      </trkpt>
      <trkpt lat="42.91921" lon="1.83591">
        <ele>567.9</ele>
        <time>2022-08-03T16:30:20.000Z</time>
      </trkpt>
      <trkpt lat="42.91924" lon="1.83587">
        <ele>567.8</ele>
        <time>2022-08-03T16:30:40.000Z</time>
      </trkpt>
      <trkpt lat="42.91929" lon="1.83583">
        <ele>567.8</ele>
        <time>2022-08-03T16:30:42.000Z</time>
      </trkpt>
      <trkpt lat="42.91932" lon="1.8358">
        <ele>567.8</ele>
        <time>2022-08-03T16:30:44.000Z</time>
      </trkpt>
      <trkpt lat="42.91937" lon="1.83581">
        <ele>567.8</ele>
        <time>2022-08-03T16:30:47.000Z</time>
      </trkpt>
      <trkpt lat="42.91941" lon="1.83587">
        <ele>567.8</ele>
        <time>2022-08-03T16:30:49.000Z</time>
      </trkpt>
      <trkpt lat="42.91947" lon="1.83593">
        <ele>567.8</ele>
        <time>2022-08-03T16:30:51.000Z</time>
      </trkpt>
      <trkpt lat="42.91953" lon="1.836">
        <ele>567.8</ele>
        <time>2022-08-03T16:30:53.000Z</time>
      </trkpt>
      <trkpt lat="42.91959" lon="1.83607">
        <ele>567.8</ele>
        <time>2022-08-03T16:30:55.000Z</time>
      </trkpt>
      <trkpt lat="42.91967" lon="1.83615">
        <ele>567.8</ele>
        <time>2022-08-03T16:30:57.000Z</time>
      </trkpt>
      <trkpt lat="42.91971" lon="1.83619">
        <ele>567.8</ele>
        <time>2022-08-03T16:30:58.000Z</time>
      </trkpt>
      <trkpt lat="42.91975" lon="1.83622">
        <ele>567.8</ele>
        <time>2022-08-03T16:30:59.000Z</time>
      </trkpt>
      <trkpt lat="42.91979" lon="1.83626">
        <ele>567.8</ele>
        <time>2022-08-03T16:31:00.000Z</time>
      </trkpt>
      <trkpt lat="42.91984" lon="1.8363">
        <ele>567.8</ele>
        <time>2022-08-03T16:31:01.000Z</time>
      </trkpt>
      <trkpt lat="42.91989" lon="1.83633">
        <ele>567.8</ele>
        <time>2022-08-03T16:31:02.000Z</time>
      </trkpt>
      <trkpt lat="42.91993" lon="1.83637">
        <ele>567.8</ele>
        <time>2022-08-03T16:31:03.000Z</time>
      </trkpt>
      <trkpt lat="42.91998" lon="1.83641">
        <ele>567.8</ele>
        <time>2022-08-03T16:31:04.000Z</time>
      </trkpt>
      <trkpt lat="42.92002" lon="1.83645">
        <ele>567.7</ele>
        <time>2022-08-03T16:31:05.000Z</time>
      </trkpt>
      <trkpt lat="42.92007" lon="1.8365">
        <ele>567.7</ele>
        <time>2022-08-03T16:31:06.000Z</time>
      </trkpt>
      <trkpt lat="42.92012" lon="1.83654">
        <ele>567.6</ele>
        <time>2022-08-03T16:31:07.000Z</time>
      </trkpt>
      <trkpt lat="42.92016" lon="1.83658">
        <ele>567.6</ele>
        <time>2022-08-03T16:31:08.000Z</time>
      </trkpt>
      <trkpt lat="42.92021" lon="1.83663">
        <ele>567.6</ele>
        <time>2022-08-03T16:31:09.000Z</time>
      </trkpt>
      <trkpt lat="42.92025" lon="1.83667">
        <ele>567.5</ele>
        <time>2022-08-03T16:31:10.000Z</time>
      </trkpt>
      <trkpt lat="42.9203" lon="1.83672">
        <ele>567.5</ele>
        <time>2022-08-03T16:31:11.000Z</time>
      </trkpt>
      <trkpt lat="42.92035" lon="1.83677">
        <ele>567.4</ele>
        <time>2022-08-03T16:31:12.000Z</time>
      </trkpt>
      <trkpt lat="42.92039" lon="1.83683">
        <ele>567.3</ele>
        <time>2022-08-03T16:31:13.000Z</time>
      </trkpt>
      <trkpt lat="42.92044" lon="1.83688">
        <ele>567.3</ele>
        <time>2022-08-03T16:31:14.000Z</time>
      </trkpt>
      <trkpt lat="42.92048" lon="1.83693">
        <ele>567.1</ele>
        <time>2022-08-03T16:31:15.000Z</time>
      </trkpt>
      <trkpt lat="42.92053" lon="1.83699">
        <ele>567</ele>
        <time>2022-08-03T16:31:16.000Z</time>
      </trkpt>
      <trkpt lat="42.92058" lon="1.83705">
        <ele>566.9</ele>
        <time>2022-08-03T16:31:17.000Z</time>
      </trkpt>
      <trkpt lat="42.92063" lon="1.8371">
        <ele>566.8</ele>
        <time>2022-08-03T16:31:18.000Z</time>
      </trkpt>
      <trkpt lat="42.92068" lon="1.83715">
        <ele>566.7</ele>
        <time>2022-08-03T16:31:19.000Z</time>
      </trkpt>
      <trkpt lat="42.92073" lon="1.8372">
        <ele>566.6</ele>
        <time>2022-08-03T16:31:20.000Z</time>
      </trkpt>
      <trkpt lat="42.92079" lon="1.83725">
        <ele>566.5</ele>
        <time>2022-08-03T16:31:21.000Z</time>
      </trkpt>
      <trkpt lat="42.92084" lon="1.8373">
        <ele>566.4</ele>
        <time>2022-08-03T16:31:22.000Z</time>
      </trkpt>
      <trkpt lat="42.92089" lon="1.83735">
        <ele>566.2</ele>
        <time>2022-08-03T16:31:23.000Z</time>
      </trkpt>
      <trkpt lat="42.92095" lon="1.8374">
        <ele>566.1</ele>
        <time>2022-08-03T16:31:24.000Z</time>
      </trkpt>
      <trkpt lat="42.921" lon="1.83744">
        <ele>566</ele>
        <time>2022-08-03T16:31:25.000Z</time>
      </trkpt>
      <trkpt lat="42.92106" lon="1.83749">
        <ele>565.9</ele>
        <time>2022-08-03T16:31:26.000Z</time>
      </trkpt>
      <trkpt lat="42.92112" lon="1.83753">
        <ele>565.8</ele>
        <time>2022-08-03T16:31:27.000Z</time>
      </trkpt>
      <trkpt lat="42.92118" lon="1.83757">
        <ele>565.7</ele>
        <time>2022-08-03T16:31:28.000Z</time>
      </trkpt>
      <trkpt lat="42.92124" lon="1.8376">
        <ele>565.6</ele>
        <time>2022-08-03T16:31:29.000Z</time>
      </trkpt>
      <trkpt lat="42.9213" lon="1.83764">
        <ele>565.5</ele>
        <time>2022-08-03T16:31:30.000Z</time>
      </trkpt>
      <trkpt lat="42.92136" lon="1.83768">
        <ele>565.4</ele>
        <time>2022-08-03T16:31:31.000Z</time>
      </trkpt>
      <trkpt lat="42.92143" lon="1.83772">
        <ele>565.2</ele>
        <time>2022-08-03T16:31:32.000Z</time>
      </trkpt>
      <trkpt lat="42.92149" lon="1.83776">
        <ele>565.1</ele>
        <time>2022-08-03T16:31:33.000Z</time>
      </trkpt>
      <trkpt lat="42.92155" lon="1.8378">
        <ele>565</ele>
        <time>2022-08-03T16:31:34.000Z</time>
      </trkpt>
      <trkpt lat="42.92161" lon="1.83783">
        <ele>564.9</ele>
        <time>2022-08-03T16:31:35.000Z</time>
      </trkpt>
      <trkpt lat="42.92167" lon="1.83788">
        <ele>564.7</ele>
        <time>2022-08-03T16:31:36.000Z</time>
      </trkpt>
      <trkpt lat="42.92173" lon="1.83792">
        <ele>564.6</ele>
        <time>2022-08-03T16:31:37.000Z</time>
      </trkpt>
      <trkpt lat="42.92179" lon="1.83796">
        <ele>564.5</ele>
        <time>2022-08-03T16:31:38.000Z</time>
      </trkpt>
      <trkpt lat="42.92186" lon="1.83801">
        <ele>564.4</ele>
        <time>2022-08-03T16:31:39.000Z</time>
      </trkpt>
      <trkpt lat="42.92192" lon="1.83805">
        <ele>564.3</ele>
        <time>2022-08-03T16:31:40.000Z</time>
      </trkpt>
      <trkpt lat="42.92199" lon="1.83808">
        <ele>564.1</ele>
        <time>2022-08-03T16:31:41.000Z</time>
      </trkpt>
      <trkpt lat="42.92205" lon="1.83811">
        <ele>564</ele>
        <time>2022-08-03T16:31:42.000Z</time>
      </trkpt>
      <trkpt lat="42.92212" lon="1.83814">
        <ele>563.8</ele>
        <time>2022-08-03T16:31:43.000Z</time>
      </trkpt>
      <trkpt lat="42.92219" lon="1.83818">
        <ele>563.7</ele>
        <time>2022-08-03T16:31:44.000Z</time>
      </trkpt>
      <trkpt lat="42.92225" lon="1.83822">
        <ele>563.5</ele>
        <time>2022-08-03T16:31:45.000Z</time>
      </trkpt>
      <trkpt lat="42.92231" lon="1.83825">
        <ele>563.4</ele>
        <time>2022-08-03T16:31:46.000Z</time>
      </trkpt>
      <trkpt lat="42.92238" lon="1.83827">
        <ele>563.3</ele>
        <time>2022-08-03T16:31:47.000Z</time>
      </trkpt>
      <trkpt lat="42.92245" lon="1.8383">
        <ele>563.1</ele>
        <time>2022-08-03T16:31:48.000Z</time>
      </trkpt>
      <trkpt lat="42.92252" lon="1.83834">
        <ele>562.9</ele>
        <time>2022-08-03T16:31:49.000Z</time>
      </trkpt>
      <trkpt lat="42.92258" lon="1.83838">
        <ele>562.8</ele>
        <time>2022-08-03T16:31:50.000Z</time>
      </trkpt>
      <trkpt lat="42.92265" lon="1.83841">
        <ele>562.6</ele>
        <time>2022-08-03T16:31:51.000Z</time>
      </trkpt>
      <trkpt lat="42.92273" lon="1.83844">
        <ele>562.4</ele>
        <time>2022-08-03T16:31:52.000Z</time>
      </trkpt>
      <trkpt lat="42.9228" lon="1.83847">
        <ele>562.3</ele>
        <time>2022-08-03T16:31:53.000Z</time>
      </trkpt>
      <trkpt lat="42.92287" lon="1.8385">
        <ele>562.1</ele>
        <time>2022-08-03T16:31:54.000Z</time>
      </trkpt>
      <trkpt lat="42.92293" lon="1.83853">
        <ele>562</ele>
        <time>2022-08-03T16:31:55.000Z</time>
      </trkpt>
      <trkpt lat="42.923" lon="1.83857">
        <ele>561.9</ele>
        <time>2022-08-03T16:31:56.000Z</time>
      </trkpt>
      <trkpt lat="42.92307" lon="1.8386">
        <ele>561.7</ele>
        <time>2022-08-03T16:31:57.000Z</time>
      </trkpt>
      <trkpt lat="42.92314" lon="1.83863">
        <ele>561.5</ele>
        <time>2022-08-03T16:31:58.000Z</time>
      </trkpt>
      <trkpt lat="42.9232" lon="1.83866">
        <ele>561.3</ele>
        <time>2022-08-03T16:31:59.000Z</time>
      </trkpt>
      <trkpt lat="42.92327" lon="1.83871">
        <ele>561.2</ele>
        <time>2022-08-03T16:32:00.000Z</time>
      </trkpt>
      <trkpt lat="42.92334" lon="1.83875">
        <ele>560.9</ele>
        <time>2022-08-03T16:32:01.000Z</time>
      </trkpt>
      <trkpt lat="42.92341" lon="1.8388">
        <ele>560.7</ele>
        <time>2022-08-03T16:32:02.000Z</time>
      </trkpt>
      <trkpt lat="42.92347" lon="1.83884">
        <ele>560.5</ele>
        <time>2022-08-03T16:32:03.000Z</time>
      </trkpt>
      <trkpt lat="42.92354" lon="1.8389">
        <ele>560.3</ele>
        <time>2022-08-03T16:32:04.000Z</time>
      </trkpt>
      <trkpt lat="42.92361" lon="1.83895">
        <ele>560.1</ele>
        <time>2022-08-03T16:32:05.000Z</time>
      </trkpt>
      <trkpt lat="42.92368" lon="1.839">
        <ele>559.9</ele>
        <time>2022-08-03T16:32:06.000Z</time>
      </trkpt>
      <trkpt lat="42.92375" lon="1.83905">
        <ele>559.7</ele>
        <time>2022-08-03T16:32:07.000Z</time>
      </trkpt>
      <trkpt lat="42.92382" lon="1.8391">
        <ele>559.6</ele>
        <time>2022-08-03T16:32:08.000Z</time>
      </trkpt>
      <trkpt lat="42.92388" lon="1.83914">
        <ele>559.4</ele>
        <time>2022-08-03T16:32:09.000Z</time>
      </trkpt>
      <trkpt lat="42.92394" lon="1.83917">
        <ele>559.2</ele>
        <time>2022-08-03T16:32:10.000Z</time>
      </trkpt>
      <trkpt lat="42.92399" lon="1.8392">
        <ele>559</ele>
        <time>2022-08-03T16:32:11.000Z</time>
      </trkpt>
      <trkpt lat="42.92405" lon="1.83922">
        <ele>558.7</ele>
        <time>2022-08-03T16:32:13.000Z</time>
      </trkpt>
      <trkpt lat="42.92409" lon="1.83915">
        <ele>558.4</ele>
        <time>2022-08-03T16:32:15.000Z</time>
      </trkpt>
      <trkpt lat="42.92414" lon="1.83906">
        <ele>558.2</ele>
        <time>2022-08-03T16:32:17.000Z</time>
      </trkpt>
      <trkpt lat="42.92418" lon="1.83897">
        <ele>557.9</ele>
        <time>2022-08-03T16:32:19.000Z</time>
      </trkpt>
      <trkpt lat="42.92422" lon="1.83886">
        <ele>557.7</ele>
        <time>2022-08-03T16:32:21.000Z</time>
      </trkpt>
      <trkpt lat="42.92424" lon="1.8388">
        <ele>557.6</ele>
        <time>2022-08-03T16:32:22.000Z</time>
      </trkpt>
      <trkpt lat="42.92425" lon="1.83873">
        <ele>557.5</ele>
        <time>2022-08-03T16:32:23.000Z</time>
      </trkpt>
      <trkpt lat="42.92426" lon="1.83866">
        <ele>557.4</ele>
        <time>2022-08-03T16:32:24.000Z</time>
      </trkpt>
      <trkpt lat="42.92427" lon="1.8386">
        <ele>557.4</ele>
        <time>2022-08-03T16:32:25.000Z</time>
      </trkpt>
      <trkpt lat="42.92428" lon="1.83853">
        <ele>557.3</ele>
        <time>2022-08-03T16:32:26.000Z</time>
      </trkpt>
      <trkpt lat="42.92429" lon="1.83846">
        <ele>557.2</ele>
        <time>2022-08-03T16:32:27.000Z</time>
      </trkpt>
      <trkpt lat="42.9243" lon="1.83839">
        <ele>557.1</ele>
        <time>2022-08-03T16:32:28.000Z</time>
      </trkpt>
      <trkpt lat="42.92431" lon="1.83832">
        <ele>557</ele>
        <time>2022-08-03T16:32:29.000Z</time>
      </trkpt>
      <trkpt lat="42.92432" lon="1.83825">
        <ele>556.9</ele>
        <time>2022-08-03T16:32:30.000Z</time>
      </trkpt>
      <trkpt lat="42.92433" lon="1.83817">
        <ele>556.8</ele>
        <time>2022-08-03T16:32:31.000Z</time>
      </trkpt>
      <trkpt lat="42.92434" lon="1.8381">
        <ele>556.7</ele>
        <time>2022-08-03T16:32:32.000Z</time>
      </trkpt>
      <trkpt lat="42.92435" lon="1.83803">
        <ele>556.6</ele>
        <time>2022-08-03T16:32:33.000Z</time>
      </trkpt>
      <trkpt lat="42.92435" lon="1.83795">
        <ele>556.6</ele>
        <time>2022-08-03T16:32:34.000Z</time>
      </trkpt>
      <trkpt lat="42.92436" lon="1.83787">
        <ele>556.5</ele>
        <time>2022-08-03T16:32:35.000Z</time>
      </trkpt>
      <trkpt lat="42.92435" lon="1.83779">
        <ele>556.4</ele>
        <time>2022-08-03T16:32:36.000Z</time>
      </trkpt>
      <trkpt lat="42.92434" lon="1.83772">
        <ele>556.4</ele>
        <time>2022-08-03T16:32:37.000Z</time>
      </trkpt>
      <trkpt lat="42.92432" lon="1.83765">
        <ele>556.3</ele>
        <time>2022-08-03T16:32:38.000Z</time>
      </trkpt>
      <trkpt lat="42.9243" lon="1.83758">
        <ele>556.3</ele>
        <time>2022-08-03T16:32:39.000Z</time>
      </trkpt>
      <trkpt lat="42.92428" lon="1.83752">
        <ele>556.2</ele>
        <time>2022-08-03T16:32:40.000Z</time>
      </trkpt>
      <trkpt lat="42.92431" lon="1.8374">
        <ele>556.1</ele>
        <time>2022-08-03T16:32:42.000Z</time>
      </trkpt>
      <trkpt lat="42.92435" lon="1.83735">
        <ele>556.1</ele>
        <time>2022-08-03T16:32:43.000Z</time>
      </trkpt>
      <trkpt lat="42.9244" lon="1.8373">
        <ele>556.1</ele>
        <time>2022-08-03T16:32:44.000Z</time>
      </trkpt>
      <trkpt lat="42.92444" lon="1.83725">
        <ele>556</ele>
        <time>2022-08-03T16:32:45.000Z</time>
      </trkpt>
      <trkpt lat="42.92448" lon="1.83718">
        <ele>556</ele>
        <time>2022-08-03T16:32:46.000Z</time>
      </trkpt>
      <trkpt lat="42.92449" lon="1.83711">
        <ele>556</ele>
        <time>2022-08-03T16:32:47.000Z</time>
      </trkpt>
      <trkpt lat="42.9245" lon="1.83703">
        <ele>555.9</ele>
        <time>2022-08-03T16:32:48.000Z</time>
      </trkpt>
      <trkpt lat="42.92449" lon="1.83695">
        <ele>555.9</ele>
        <time>2022-08-03T16:32:49.000Z</time>
      </trkpt>
      <trkpt lat="42.9245" lon="1.83687">
        <ele>555.9</ele>
        <time>2022-08-03T16:32:50.000Z</time>
      </trkpt>
      <trkpt lat="42.92451" lon="1.8368">
        <ele>555.9</ele>
        <time>2022-08-03T16:32:51.000Z</time>
      </trkpt>
      <trkpt lat="42.92453" lon="1.83673">
        <ele>555.8</ele>
        <time>2022-08-03T16:32:52.000Z</time>
      </trkpt>
      <trkpt lat="42.92456" lon="1.83667">
        <ele>555.8</ele>
        <time>2022-08-03T16:32:53.000Z</time>
      </trkpt>
      <trkpt lat="42.92459" lon="1.8366">
        <ele>555.8</ele>
        <time>2022-08-03T16:32:54.000Z</time>
      </trkpt>
      <trkpt lat="42.92461" lon="1.83652">
        <ele>555.8</ele>
        <time>2022-08-03T16:32:55.000Z</time>
      </trkpt>
      <trkpt lat="42.92462" lon="1.83646">
        <ele>555.8</ele>
        <time>2022-08-03T16:32:56.000Z</time>
      </trkpt>
      <trkpt lat="42.92467" lon="1.83639">
        <ele>555.7</ele>
        <time>2022-08-03T16:32:58.000Z</time>
      </trkpt>
      <trkpt lat="42.92475" lon="1.83642">
        <ele>555.7</ele>
        <time>2022-08-03T16:33:00.000Z</time>
      </trkpt>
      <trkpt lat="42.92484" lon="1.83645">
        <ele>555.7</ele>
        <time>2022-08-03T16:33:02.000Z</time>
      </trkpt>
      <trkpt lat="42.92489" lon="1.83647">
        <ele>555.7</ele>
        <time>2022-08-03T16:33:03.000Z</time>
      </trkpt>
      <trkpt lat="42.92493" lon="1.83649">
        <ele>555.7</ele>
        <time>2022-08-03T16:33:04.000Z</time>
      </trkpt>
      <trkpt lat="42.92498" lon="1.83652">
        <ele>555.7</ele>
        <time>2022-08-03T16:33:05.000Z</time>
      </trkpt>
      <trkpt lat="42.92502" lon="1.83655">
        <ele>555.6</ele>
        <time>2022-08-03T16:33:06.000Z</time>
      </trkpt>
      <trkpt lat="42.92507" lon="1.83658">
        <ele>555.6</ele>
        <time>2022-08-03T16:33:07.000Z</time>
      </trkpt>
      <trkpt lat="42.92512" lon="1.83661">
        <ele>555.6</ele>
        <time>2022-08-03T16:33:08.000Z</time>
      </trkpt>
      <trkpt lat="42.92516" lon="1.83664">
        <ele>555.6</ele>
        <time>2022-08-03T16:33:09.000Z</time>
      </trkpt>
      <trkpt lat="42.9252" lon="1.83667">
        <ele>555.6</ele>
        <time>2022-08-03T16:33:10.000Z</time>
      </trkpt>
      <trkpt lat="42.92528" lon="1.83671">
        <ele>555.6</ele>
        <time>2022-08-03T16:33:12.000Z</time>
      </trkpt>
      <trkpt lat="42.92536" lon="1.83673">
        <ele>555.5</ele>
        <time>2022-08-03T16:33:14.000Z</time>
      </trkpt>
      <trkpt lat="42.92541" lon="1.83675">
        <ele>555.5</ele>
        <time>2022-08-03T16:33:15.000Z</time>
      </trkpt>
      <trkpt lat="42.92546" lon="1.83676">
        <ele>555.5</ele>
        <time>2022-08-03T16:33:16.000Z</time>
      </trkpt>
      <trkpt lat="42.92555" lon="1.83677">
        <ele>555.5</ele>
        <time>2022-08-03T16:33:18.000Z</time>
      </trkpt>
      <trkpt lat="42.92561" lon="1.83679">
        <ele>555.5</ele>
        <time>2022-08-03T16:33:19.000Z</time>
      </trkpt>
      <trkpt lat="42.92566" lon="1.83681">
        <ele>555.5</ele>
        <time>2022-08-03T16:33:20.000Z</time>
      </trkpt>
      <trkpt lat="42.92571" lon="1.83684">
        <ele>555.5</ele>
        <time>2022-08-03T16:33:21.000Z</time>
      </trkpt>
      <trkpt lat="42.92576" lon="1.83686">
        <ele>555.5</ele>
        <time>2022-08-03T16:33:22.000Z</time>
      </trkpt>
      <trkpt lat="42.92581" lon="1.83686">
        <ele>555.4</ele>
        <time>2022-08-03T16:33:23.000Z</time>
      </trkpt>
      <trkpt lat="42.92587" lon="1.83686">
        <ele>555.4</ele>
        <time>2022-08-03T16:33:24.000Z</time>
      </trkpt>
      <trkpt lat="42.92592" lon="1.83687">
        <ele>555.4</ele>
        <time>2022-08-03T16:33:25.000Z</time>
      </trkpt>
      <trkpt lat="42.92598" lon="1.83687">
        <ele>555.4</ele>
        <time>2022-08-03T16:33:26.000Z</time>
      </trkpt>
      <trkpt lat="42.92604" lon="1.83686">
        <ele>555.4</ele>
        <time>2022-08-03T16:33:27.000Z</time>
      </trkpt>
      <trkpt lat="42.92609" lon="1.83684">
        <ele>555.4</ele>
        <time>2022-08-03T16:33:28.000Z</time>
      </trkpt>
      <trkpt lat="42.92615" lon="1.83681">
        <ele>555.4</ele>
        <time>2022-08-03T16:33:29.000Z</time>
      </trkpt>
      <trkpt lat="42.9262" lon="1.83675">
        <ele>555.4</ele>
        <time>2022-08-03T16:33:30.000Z</time>
      </trkpt>
      <trkpt lat="42.92625" lon="1.83669">
        <ele>555.3</ele>
        <time>2022-08-03T16:33:31.000Z</time>
      </trkpt>
      <trkpt lat="42.92629" lon="1.83662">
        <ele>555.2</ele>
        <time>2022-08-03T16:33:32.000Z</time>
      </trkpt>
      <trkpt lat="42.92632" lon="1.83655">
        <ele>555</ele>
        <time>2022-08-03T16:33:33.000Z</time>
      </trkpt>
      <trkpt lat="42.92635" lon="1.83649">
        <ele>554.8</ele>
        <time>2022-08-03T16:33:34.000Z</time>
      </trkpt>
      <trkpt lat="42.92639" lon="1.83642">
        <ele>554.7</ele>
        <time>2022-08-03T16:33:35.000Z</time>
      </trkpt>
      <trkpt lat="42.92644" lon="1.83635">
        <ele>554.6</ele>
        <time>2022-08-03T16:33:36.000Z</time>
      </trkpt>
      <trkpt lat="42.92649" lon="1.83628">
        <ele>554.5</ele>
        <time>2022-08-03T16:33:37.000Z</time>
      </trkpt>
      <trkpt lat="42.92656" lon="1.83622">
        <ele>554.3</ele>
        <time>2022-08-03T16:33:38.000Z</time>
      </trkpt>
      <trkpt lat="42.92663" lon="1.83618">
        <ele>554.1</ele>
        <time>2022-08-03T16:33:39.000Z</time>
      </trkpt>
      <trkpt lat="42.92671" lon="1.83615">
        <ele>553.9</ele>
        <time>2022-08-03T16:33:40.000Z</time>
      </trkpt>
      <trkpt lat="42.92678" lon="1.83613">
        <ele>553.7</ele>
        <time>2022-08-03T16:33:41.000Z</time>
      </trkpt>
      <trkpt lat="42.92686" lon="1.8361">
        <ele>553.5</ele>
        <time>2022-08-03T16:33:42.000Z</time>
      </trkpt>
      <trkpt lat="42.92693" lon="1.83608">
        <ele>553.2</ele>
        <time>2022-08-03T16:33:43.000Z</time>
      </trkpt>
      <trkpt lat="42.92701" lon="1.83605">
        <ele>552.9</ele>
        <time>2022-08-03T16:33:44.000Z</time>
      </trkpt>
      <trkpt lat="42.92708" lon="1.83603">
        <ele>552.7</ele>
        <time>2022-08-03T16:33:45.000Z</time>
      </trkpt>
      <trkpt lat="42.92714" lon="1.836">
        <ele>552.5</ele>
        <time>2022-08-03T16:33:46.000Z</time>
      </trkpt>
      <trkpt lat="42.9272" lon="1.83596">
        <ele>552.2</ele>
        <time>2022-08-03T16:33:47.000Z</time>
      </trkpt>
      <trkpt lat="42.92725" lon="1.83593">
        <ele>552</ele>
        <time>2022-08-03T16:33:48.000Z</time>
      </trkpt>
      <trkpt lat="42.92729" lon="1.83589">
        <ele>551.7</ele>
        <time>2022-08-03T16:33:49.000Z</time>
      </trkpt>
      <trkpt lat="42.92736" lon="1.83584">
        <ele>551.3</ele>
        <time>2022-08-03T16:33:51.000Z</time>
      </trkpt>
      <trkpt lat="42.92739" lon="1.83579">
        <ele>550.9</ele>
        <time>2022-08-03T16:33:53.000Z</time>
      </trkpt>
      <trkpt lat="42.92743" lon="1.83574">
        <ele>550.5</ele>
        <time>2022-08-03T16:33:56.000Z</time>
      </trkpt>
      <trkpt lat="42.92746" lon="1.83568">
        <ele>550.2</ele>
        <time>2022-08-03T16:33:58.000Z</time>
      </trkpt>
      <trkpt lat="42.92746" lon="1.83562">
        <ele>550.1</ele>
        <time>2022-08-03T16:34:00.000Z</time>
      </trkpt>
      <trkpt lat="42.92748" lon="1.83555">
        <ele>549.9</ele>
        <time>2022-08-03T16:34:02.000Z</time>
      </trkpt>
      <trkpt lat="42.92752" lon="1.83549">
        <ele>549.9</ele>
        <time>2022-08-03T16:34:04.000Z</time>
      </trkpt>
      <trkpt lat="42.92757" lon="1.83544">
        <ele>549.9</ele>
        <time>2022-08-03T16:34:06.000Z</time>
      </trkpt>
      <trkpt lat="42.92762" lon="1.83539">
        <ele>550</ele>
        <time>2022-08-03T16:34:08.000Z</time>
      </trkpt>
      <trkpt lat="42.92768" lon="1.83534">
        <ele>550.1</ele>
        <time>2022-08-03T16:34:10.000Z</time>
      </trkpt>
      <trkpt lat="42.92774" lon="1.8353">
        <ele>550.1</ele>
        <time>2022-08-03T16:34:12.000Z</time>
      </trkpt>
      <trkpt lat="42.92781" lon="1.83525">
        <ele>550.1</ele>
        <time>2022-08-03T16:34:14.000Z</time>
      </trkpt>
      <trkpt lat="42.92787" lon="1.83521">
        <ele>550.2</ele>
        <time>2022-08-03T16:34:16.000Z</time>
      </trkpt>
      <trkpt lat="42.92795" lon="1.83517">
        <ele>550.2</ele>
        <time>2022-08-03T16:34:18.000Z</time>
      </trkpt>
      <trkpt lat="42.92801" lon="1.83512">
        <ele>550.2</ele>
        <time>2022-08-03T16:34:20.000Z</time>
      </trkpt>
      <trkpt lat="42.92809" lon="1.83507">
        <ele>550.3</ele>
        <time>2022-08-03T16:34:22.000Z</time>
      </trkpt>
      <trkpt lat="42.92817" lon="1.83501">
        <ele>550.3</ele>
        <time>2022-08-03T16:34:24.000Z</time>
      </trkpt>
      <trkpt lat="42.92821" lon="1.83498">
        <ele>550.3</ele>
        <time>2022-08-03T16:34:25.000Z</time>
      </trkpt>
      <trkpt lat="42.92825" lon="1.83496">
        <ele>550.3</ele>
        <time>2022-08-03T16:34:26.000Z</time>
      </trkpt>
      <trkpt lat="42.92829" lon="1.83493">
        <ele>550.3</ele>
        <time>2022-08-03T16:34:27.000Z</time>
      </trkpt>
      <trkpt lat="42.92834" lon="1.8349">
        <ele>550.3</ele>
        <time>2022-08-03T16:34:28.000Z</time>
      </trkpt>
      <trkpt lat="42.92838" lon="1.83488">
        <ele>550.3</ele>
        <time>2022-08-03T16:34:29.000Z</time>
      </trkpt>
      <trkpt lat="42.92843" lon="1.83486">
        <ele>550.3</ele>
        <time>2022-08-03T16:34:30.000Z</time>
      </trkpt>
      <trkpt lat="42.92847" lon="1.83484">
        <ele>550.3</ele>
        <time>2022-08-03T16:34:31.000Z</time>
      </trkpt>
      <trkpt lat="42.92852" lon="1.83481">
        <ele>550.2</ele>
        <time>2022-08-03T16:34:32.000Z</time>
      </trkpt>
      <trkpt lat="42.92857" lon="1.83479">
        <ele>550.1</ele>
        <time>2022-08-03T16:34:33.000Z</time>
      </trkpt>
      <trkpt lat="42.92862" lon="1.83476">
        <ele>550</ele>
        <time>2022-08-03T16:34:34.000Z</time>
      </trkpt>
      <trkpt lat="42.92867" lon="1.83473">
        <ele>549.9</ele>
        <time>2022-08-03T16:34:35.000Z</time>
      </trkpt>
      <trkpt lat="42.92872" lon="1.8347">
        <ele>549.8</ele>
        <time>2022-08-03T16:34:36.000Z</time>
      </trkpt>
      <trkpt lat="42.92877" lon="1.83467">
        <ele>549.7</ele>
        <time>2022-08-03T16:34:37.000Z</time>
      </trkpt>
      <trkpt lat="42.92881" lon="1.83463">
        <ele>549.7</ele>
        <time>2022-08-03T16:34:38.000Z</time>
      </trkpt>
      <trkpt lat="42.92886" lon="1.8346">
        <ele>549.6</ele>
        <time>2022-08-03T16:34:39.000Z</time>
      </trkpt>
      <trkpt lat="42.92891" lon="1.83456">
        <ele>549.5</ele>
        <time>2022-08-03T16:34:40.000Z</time>
      </trkpt>
      <trkpt lat="42.92896" lon="1.83453">
        <ele>549.4</ele>
        <time>2022-08-03T16:34:41.000Z</time>
      </trkpt>
      <trkpt lat="42.92901" lon="1.83449">
        <ele>549.3</ele>
        <time>2022-08-03T16:34:42.000Z</time>
      </trkpt>
      <trkpt lat="42.92906" lon="1.83446">
        <ele>549.2</ele>
        <time>2022-08-03T16:34:43.000Z</time>
      </trkpt>
      <trkpt lat="42.92911" lon="1.83442">
        <ele>549.1</ele>
        <time>2022-08-03T16:34:44.000Z</time>
      </trkpt>
      <trkpt lat="42.92917" lon="1.83439">
        <ele>548.9</ele>
        <time>2022-08-03T16:34:45.000Z</time>
      </trkpt>
      <trkpt lat="42.92923" lon="1.83435">
        <ele>548.8</ele>
        <time>2022-08-03T16:34:46.000Z</time>
      </trkpt>
      <trkpt lat="42.92928" lon="1.83432">
        <ele>548.7</ele>
        <time>2022-08-03T16:34:47.000Z</time>
      </trkpt>
      <trkpt lat="42.92934" lon="1.83429">
        <ele>548.6</ele>
        <time>2022-08-03T16:34:48.000Z</time>
      </trkpt>
      <trkpt lat="42.9294" lon="1.83425">
        <ele>548.5</ele>
        <time>2022-08-03T16:34:49.000Z</time>
      </trkpt>
      <trkpt lat="42.92946" lon="1.83421">
        <ele>548.4</ele>
        <time>2022-08-03T16:34:50.000Z</time>
      </trkpt>
      <trkpt lat="42.92951" lon="1.83417">
        <ele>548.2</ele>
        <time>2022-08-03T16:34:51.000Z</time>
      </trkpt>
      <trkpt lat="42.92956" lon="1.83412">
        <ele>548.1</ele>
        <time>2022-08-03T16:34:52.000Z</time>
      </trkpt>
      <trkpt lat="42.92962" lon="1.83408">
        <ele>548</ele>
        <time>2022-08-03T16:34:53.000Z</time>
      </trkpt>
      <trkpt lat="42.92967" lon="1.83403">
        <ele>547.8</ele>
        <time>2022-08-03T16:34:54.000Z</time>
      </trkpt>
      <trkpt lat="42.92972" lon="1.83399">
        <ele>547.6</ele>
        <time>2022-08-03T16:34:55.000Z</time>
      </trkpt>
      <trkpt lat="42.92976" lon="1.83395">
        <ele>547.4</ele>
        <time>2022-08-03T16:34:56.000Z</time>
      </trkpt>
      <trkpt lat="42.92981" lon="1.83391">
        <ele>547.3</ele>
        <time>2022-08-03T16:34:57.000Z</time>
      </trkpt>
      <trkpt lat="42.92987" lon="1.83388">
        <ele>547.2</ele>
        <time>2022-08-03T16:34:58.000Z</time>
      </trkpt>
      <trkpt lat="42.92993" lon="1.83384">
        <ele>547</ele>
        <time>2022-08-03T16:34:59.000Z</time>
      </trkpt>
      <trkpt lat="42.92998" lon="1.83381">
        <ele>546.8</ele>
        <time>2022-08-03T16:35:00.000Z</time>
      </trkpt>
      <trkpt lat="42.93003" lon="1.83379">
        <ele>546.7</ele>
        <time>2022-08-03T16:35:01.000Z</time>
      </trkpt>
      <trkpt lat="42.93008" lon="1.83373">
        <ele>546.4</ele>
        <time>2022-08-03T16:35:03.000Z</time>
      </trkpt>
      <trkpt lat="42.9301" lon="1.83367">
        <ele>546</ele>
        <time>2022-08-03T16:35:05.000Z</time>
      </trkpt>
      <trkpt lat="42.9301" lon="1.83358">
        <ele>545.6</ele>
        <time>2022-08-03T16:35:08.000Z</time>
      </trkpt>
      <trkpt lat="42.93012" lon="1.8335">
        <ele>545.1</ele>
        <time>2022-08-03T16:35:11.000Z</time>
      </trkpt>
      <trkpt lat="42.93014" lon="1.83344">
        <ele>544.8</ele>
        <time>2022-08-03T16:35:13.000Z</time>
      </trkpt>
      <trkpt lat="42.93016" lon="1.83338">
        <ele>544.6</ele>
        <time>2022-08-03T16:35:15.000Z</time>
      </trkpt>
      <trkpt lat="42.93019" lon="1.83331">
        <ele>544.4</ele>
        <time>2022-08-03T16:35:17.000Z</time>
      </trkpt>
      <trkpt lat="42.93022" lon="1.83326">
        <ele>544.2</ele>
        <time>2022-08-03T16:35:19.000Z</time>
      </trkpt>
      <trkpt lat="42.93025" lon="1.83319">
        <ele>544.1</ele>
        <time>2022-08-03T16:35:21.000Z</time>
      </trkpt>
      <trkpt lat="42.93028" lon="1.83311">
        <ele>544</ele>
        <time>2022-08-03T16:35:23.000Z</time>
      </trkpt>
      <trkpt lat="42.93031" lon="1.83302">
        <ele>544</ele>
        <time>2022-08-03T16:35:25.000Z</time>
      </trkpt>
      <trkpt lat="42.93035" lon="1.83293">
        <ele>544</ele>
        <time>2022-08-03T16:35:27.000Z</time>
      </trkpt>
      <trkpt lat="42.93039" lon="1.83284">
        <ele>543.9</ele>
        <time>2022-08-03T16:35:29.000Z</time>
      </trkpt>
      <trkpt lat="42.93043" lon="1.83274">
        <ele>543.9</ele>
        <time>2022-08-03T16:35:31.000Z</time>
      </trkpt>
      <trkpt lat="42.93046" lon="1.83269">
        <ele>543.9</ele>
        <time>2022-08-03T16:35:32.000Z</time>
      </trkpt>
      <trkpt lat="42.93051" lon="1.83259">
        <ele>543.9</ele>
        <time>2022-08-03T16:35:34.000Z</time>
      </trkpt>
      <trkpt lat="42.93056" lon="1.83249">
        <ele>543.9</ele>
        <time>2022-08-03T16:35:36.000Z</time>
      </trkpt>
      <trkpt lat="42.93059" lon="1.83244">
        <ele>543.9</ele>
        <time>2022-08-03T16:35:37.000Z</time>
      </trkpt>
      <trkpt lat="42.93062" lon="1.83239">
        <ele>543.9</ele>
        <time>2022-08-03T16:35:38.000Z</time>
      </trkpt>
      <trkpt lat="42.93065" lon="1.83234">
        <ele>543.9</ele>
        <time>2022-08-03T16:35:39.000Z</time>
      </trkpt>
      <trkpt lat="42.93068" lon="1.83229">
        <ele>543.8</ele>
        <time>2022-08-03T16:35:40.000Z</time>
      </trkpt>
      <trkpt lat="42.93071" lon="1.83224">
        <ele>543.8</ele>
        <time>2022-08-03T16:35:41.000Z</time>
      </trkpt>
      <trkpt lat="42.93074" lon="1.83219">
        <ele>543.8</ele>
        <time>2022-08-03T16:35:42.000Z</time>
      </trkpt>
      <trkpt lat="42.93077" lon="1.83214">
        <ele>543.8</ele>
        <time>2022-08-03T16:35:43.000Z</time>
      </trkpt>
      <trkpt lat="42.9308" lon="1.83209">
        <ele>543.8</ele>
        <time>2022-08-03T16:35:44.000Z</time>
      </trkpt>
      <trkpt lat="42.93082" lon="1.83204">
        <ele>543.8</ele>
        <time>2022-08-03T16:35:45.000Z</time>
      </trkpt>
      <trkpt lat="42.93085" lon="1.83199">
        <ele>543.8</ele>
        <time>2022-08-03T16:35:46.000Z</time>
      </trkpt>
      <trkpt lat="42.93089" lon="1.8319">
        <ele>543.8</ele>
        <time>2022-08-03T16:35:48.000Z</time>
      </trkpt>
      <trkpt lat="42.93093" lon="1.8318">
        <ele>543.8</ele>
        <time>2022-08-03T16:35:50.000Z</time>
      </trkpt>
      <trkpt lat="42.93096" lon="1.83175">
        <ele>543.8</ele>
        <time>2022-08-03T16:35:51.000Z</time>
      </trkpt>
      <trkpt lat="42.93098" lon="1.83169">
        <ele>543.8</ele>
        <time>2022-08-03T16:35:52.000Z</time>
      </trkpt>
      <trkpt lat="42.93101" lon="1.83164">
        <ele>543.8</ele>
        <time>2022-08-03T16:35:53.000Z</time>
      </trkpt>
      <trkpt lat="42.93104" lon="1.83154">
        <ele>543.8</ele>
        <time>2022-08-03T16:35:55.000Z</time>
      </trkpt>
      <trkpt lat="42.93109" lon="1.83145">
        <ele>543.8</ele>
        <time>2022-08-03T16:35:57.000Z</time>
      </trkpt>
      <trkpt lat="42.93112" lon="1.8314">
        <ele>543.8</ele>
        <time>2022-08-03T16:35:58.000Z</time>
      </trkpt>
      <trkpt lat="42.93115" lon="1.83134">
        <ele>543.8</ele>
        <time>2022-08-03T16:35:59.000Z</time>
      </trkpt>
      <trkpt lat="42.93118" lon="1.83129">
        <ele>543.9</ele>
        <time>2022-08-03T16:36:00.000Z</time>
      </trkpt>
      <trkpt lat="42.93121" lon="1.83122">
        <ele>543.9</ele>
        <time>2022-08-03T16:36:01.000Z</time>
      </trkpt>
      <trkpt lat="42.93124" lon="1.83117">
        <ele>543.9</ele>
        <time>2022-08-03T16:36:02.000Z</time>
      </trkpt>
      <trkpt lat="42.9313" lon="1.83108">
        <ele>544</ele>
        <time>2022-08-03T16:36:04.000Z</time>
      </trkpt>
      <trkpt lat="42.93135" lon="1.83099">
        <ele>544</ele>
        <time>2022-08-03T16:36:06.000Z</time>
      </trkpt>
      <trkpt lat="42.93141" lon="1.83091">
        <ele>544.1</ele>
        <time>2022-08-03T16:36:08.000Z</time>
      </trkpt>
      <trkpt lat="42.93144" lon="1.83085">
        <ele>544.1</ele>
        <time>2022-08-03T16:36:09.000Z</time>
      </trkpt>
      <trkpt lat="42.93147" lon="1.8308">
        <ele>544.1</ele>
        <time>2022-08-03T16:36:10.000Z</time>
      </trkpt>
      <trkpt lat="42.9315" lon="1.83074">
        <ele>544.1</ele>
        <time>2022-08-03T16:36:11.000Z</time>
      </trkpt>
      <trkpt lat="42.93154" lon="1.83069">
        <ele>544.2</ele>
        <time>2022-08-03T16:36:12.000Z</time>
      </trkpt>
      <trkpt lat="42.93159" lon="1.8306">
        <ele>544.3</ele>
        <time>2022-08-03T16:36:14.000Z</time>
      </trkpt>
      <trkpt lat="42.93165" lon="1.83052">
        <ele>544.4</ele>
        <time>2022-08-03T16:36:16.000Z</time>
      </trkpt>
      <trkpt lat="42.93171" lon="1.83045">
        <ele>544.7</ele>
        <time>2022-08-03T16:36:18.000Z</time>
      </trkpt>
      <trkpt lat="42.93176" lon="1.83038">
        <ele>544.9</ele>
        <time>2022-08-03T16:36:20.000Z</time>
      </trkpt>
      <trkpt lat="42.93181" lon="1.83031">
        <ele>545.2</ele>
        <time>2022-08-03T16:36:22.000Z</time>
      </trkpt>
      <trkpt lat="42.93185" lon="1.83026">
        <ele>545.4</ele>
        <time>2022-08-03T16:36:24.000Z</time>
      </trkpt>
      <trkpt lat="42.93191" lon="1.83019">
        <ele>545.6</ele>
        <time>2022-08-03T16:36:26.000Z</time>
      </trkpt>
      <trkpt lat="42.93196" lon="1.83013">
        <ele>545.9</ele>
        <time>2022-08-03T16:36:28.000Z</time>
      </trkpt>
      <trkpt lat="42.93201" lon="1.83008">
        <ele>546.2</ele>
        <time>2022-08-03T16:36:30.000Z</time>
      </trkpt>
      <trkpt lat="42.93206" lon="1.83002">
        <ele>546.5</ele>
        <time>2022-08-03T16:36:32.000Z</time>
      </trkpt>
      <trkpt lat="42.9321" lon="1.82997">
        <ele>546.8</ele>
        <time>2022-08-03T16:36:34.000Z</time>
      </trkpt>
      <trkpt lat="42.93214" lon="1.82992">
        <ele>547.1</ele>
        <time>2022-08-03T16:36:36.000Z</time>
      </trkpt>
      <trkpt lat="42.93219" lon="1.82987">
        <ele>547.3</ele>
        <time>2022-08-03T16:36:38.000Z</time>
      </trkpt>
      <trkpt lat="42.93223" lon="1.82982">
        <ele>547.5</ele>
        <time>2022-08-03T16:36:40.000Z</time>
      </trkpt>
      <trkpt lat="42.93228" lon="1.82977">
        <ele>547.7</ele>
        <time>2022-08-03T16:36:42.000Z</time>
      </trkpt>
      <trkpt lat="42.93232" lon="1.82971">
        <ele>547.9</ele>
        <time>2022-08-03T16:36:44.000Z</time>
      </trkpt>
      <trkpt lat="42.93235" lon="1.82966">
        <ele>548.1</ele>
        <time>2022-08-03T16:36:46.000Z</time>
      </trkpt>
      <trkpt lat="42.93239" lon="1.82962">
        <ele>548.5</ele>
        <time>2022-08-03T16:36:48.000Z</time>
      </trkpt>
      <trkpt lat="42.93243" lon="1.82957">
        <ele>548.9</ele>
        <time>2022-08-03T16:36:51.000Z</time>
      </trkpt>
      <trkpt lat="42.93247" lon="1.82951">
        <ele>551.7</ele>
        <time>2022-08-03T16:37:17.000Z</time>
      </trkpt>
      <trkpt lat="42.9325" lon="1.82945">
        <ele>551.9</ele>
        <time>2022-08-03T16:37:19.000Z</time>
      </trkpt>
      <trkpt lat="42.93253" lon="1.8294">
        <ele>552.1</ele>
        <time>2022-08-03T16:37:21.000Z</time>
      </trkpt>
      <trkpt lat="42.93256" lon="1.82933">
        <ele>552.4</ele>
        <time>2022-08-03T16:37:24.000Z</time>
      </trkpt>
      <trkpt lat="42.9326" lon="1.82926">
        <ele>552.6</ele>
        <time>2022-08-03T16:37:27.000Z</time>
      </trkpt>
      <trkpt lat="42.93263" lon="1.8292">
        <ele>552.7</ele>
        <time>2022-08-03T16:37:29.000Z</time>
      </trkpt>
      <trkpt lat="42.93266" lon="1.82913">
        <ele>552.9</ele>
        <time>2022-08-03T16:37:32.000Z</time>
      </trkpt>
      <trkpt lat="42.93269" lon="1.82906">
        <ele>553.1</ele>
        <time>2022-08-03T16:37:35.000Z</time>
      </trkpt>
      <trkpt lat="42.93272" lon="1.829">
        <ele>553.4</ele>
        <time>2022-08-03T16:37:38.000Z</time>
      </trkpt>
      <trkpt lat="42.93275" lon="1.82894">
        <ele>553.5</ele>
        <time>2022-08-03T16:37:40.000Z</time>
      </trkpt>
      <trkpt lat="42.93278" lon="1.82887">
        <ele>553.8</ele>
        <time>2022-08-03T16:37:43.000Z</time>
      </trkpt>
      <trkpt lat="42.93281" lon="1.8288">
        <ele>554</ele>
        <time>2022-08-03T16:37:46.000Z</time>
      </trkpt>
      <trkpt lat="42.93283" lon="1.82872">
        <ele>554.3</ele>
        <time>2022-08-03T16:37:49.000Z</time>
      </trkpt>
      <trkpt lat="42.93286" lon="1.82865">
        <ele>554.6</ele>
        <time>2022-08-03T16:37:52.000Z</time>
      </trkpt>
      <trkpt lat="42.93289" lon="1.82859">
        <ele>555</ele>
        <time>2022-08-03T16:37:55.000Z</time>
      </trkpt>
      <trkpt lat="42.93293" lon="1.82851">
        <ele>555.4</ele>
        <time>2022-08-03T16:37:58.000Z</time>
      </trkpt>
      <trkpt lat="42.93296" lon="1.82846">
        <ele>555.6</ele>
        <time>2022-08-03T16:38:00.000Z</time>
      </trkpt>
      <trkpt lat="42.933" lon="1.82838">
        <ele>556</ele>
        <time>2022-08-03T16:38:03.000Z</time>
      </trkpt>
      <trkpt lat="42.93304" lon="1.82831">
        <ele>556.4</ele>
        <time>2022-08-03T16:38:06.000Z</time>
      </trkpt>
      <trkpt lat="42.93308" lon="1.82824">
        <ele>556.8</ele>
        <time>2022-08-03T16:38:09.000Z</time>
      </trkpt>
      <trkpt lat="42.93311" lon="1.82819">
        <ele>557</ele>
        <time>2022-08-03T16:38:11.000Z</time>
      </trkpt>
      <trkpt lat="42.93314" lon="1.82815">
        <ele>557.2</ele>
        <time>2022-08-03T16:38:13.000Z</time>
      </trkpt>
      <trkpt lat="42.93318" lon="1.82811">
        <ele>557.4</ele>
        <time>2022-08-03T16:38:15.000Z</time>
      </trkpt>
      <trkpt lat="42.93322" lon="1.82808">
        <ele>557.7</ele>
        <time>2022-08-03T16:38:17.000Z</time>
      </trkpt>
      <trkpt lat="42.93328" lon="1.82804">
        <ele>558</ele>
        <time>2022-08-03T16:38:20.000Z</time>
      </trkpt>
      <trkpt lat="42.93333" lon="1.82802">
        <ele>558.2</ele>
        <time>2022-08-03T16:38:22.000Z</time>
      </trkpt>
      <trkpt lat="42.93338" lon="1.82798">
        <ele>558.5</ele>
        <time>2022-08-03T16:38:25.000Z</time>
      </trkpt>
      <trkpt lat="42.93344" lon="1.82792">
        <ele>558.9</ele>
        <time>2022-08-03T16:38:28.000Z</time>
      </trkpt>
      <trkpt lat="42.93347" lon="1.82787">
        <ele>559.1</ele>
        <time>2022-08-03T16:38:30.000Z</time>
      </trkpt>
      <trkpt lat="42.93351" lon="1.82783">
        <ele>559.2</ele>
        <time>2022-08-03T16:38:32.000Z</time>
      </trkpt>
      <trkpt lat="42.93356" lon="1.82777">
        <ele>559.5</ele>
        <time>2022-08-03T16:38:35.000Z</time>
      </trkpt>
      <trkpt lat="42.9336" lon="1.82772">
        <ele>559.6</ele>
        <time>2022-08-03T16:38:37.000Z</time>
      </trkpt>
      <trkpt lat="42.93366" lon="1.82766">
        <ele>559.8</ele>
        <time>2022-08-03T16:38:40.000Z</time>
      </trkpt>
      <trkpt lat="42.9337" lon="1.82763">
        <ele>560</ele>
        <time>2022-08-03T16:38:42.000Z</time>
      </trkpt>
      <trkpt lat="42.93375" lon="1.82758">
        <ele>560.4</ele>
        <time>2022-08-03T16:38:45.000Z</time>
      </trkpt>
      <trkpt lat="42.9338" lon="1.82753">
        <ele>560.7</ele>
        <time>2022-08-03T16:38:48.000Z</time>
      </trkpt>
      <trkpt lat="42.93385" lon="1.82748">
        <ele>561.1</ele>
        <time>2022-08-03T16:38:51.000Z</time>
      </trkpt>
      <trkpt lat="42.9339" lon="1.82744">
        <ele>561.5</ele>
        <time>2022-08-03T16:38:54.000Z</time>
      </trkpt>
      <trkpt lat="42.93394" lon="1.8274">
        <ele>561.8</ele>
        <time>2022-08-03T16:38:56.000Z</time>
      </trkpt>
      <trkpt lat="42.93398" lon="1.82736">
        <ele>562</ele>
        <time>2022-08-03T16:38:58.000Z</time>
      </trkpt>
      <trkpt lat="42.93402" lon="1.82732">
        <ele>562.3</ele>
        <time>2022-08-03T16:39:00.000Z</time>
      </trkpt>
      <trkpt lat="42.93407" lon="1.82729">
        <ele>562.5</ele>
        <time>2022-08-03T16:39:02.000Z</time>
      </trkpt>
      <trkpt lat="42.93411" lon="1.82726">
        <ele>562.7</ele>
        <time>2022-08-03T16:39:04.000Z</time>
      </trkpt>
      <trkpt lat="42.93416" lon="1.82723">
        <ele>562.9</ele>
        <time>2022-08-03T16:39:06.000Z</time>
      </trkpt>
      <trkpt lat="42.93421" lon="1.8272">
        <ele>563.1</ele>
        <time>2022-08-03T16:39:08.000Z</time>
      </trkpt>
      <trkpt lat="42.93425" lon="1.82717">
        <ele>563.3</ele>
        <time>2022-08-03T16:39:10.000Z</time>
      </trkpt>
      <trkpt lat="42.9343" lon="1.82714">
        <ele>563.5</ele>
        <time>2022-08-03T16:39:12.000Z</time>
      </trkpt>
      <trkpt lat="42.93434" lon="1.82711">
        <ele>563.7</ele>
        <time>2022-08-03T16:39:14.000Z</time>
      </trkpt>
      <trkpt lat="42.93438" lon="1.82708">
        <ele>563.9</ele>
        <time>2022-08-03T16:39:16.000Z</time>
      </trkpt>
      <trkpt lat="42.93443" lon="1.82705">
        <ele>564.1</ele>
        <time>2022-08-03T16:39:18.000Z</time>
      </trkpt>
      <trkpt lat="42.93448" lon="1.827">
        <ele>564.2</ele>
        <time>2022-08-03T16:39:20.000Z</time>
      </trkpt>
      <trkpt lat="42.93455" lon="1.82695">
        <ele>564.4</ele>
        <time>2022-08-03T16:39:22.000Z</time>
      </trkpt>
      <trkpt lat="42.9346" lon="1.82691">
        <ele>564.6</ele>
        <time>2022-08-03T16:39:24.000Z</time>
      </trkpt>
      <trkpt lat="42.93468" lon="1.82685">
        <ele>564.8</ele>
        <time>2022-08-03T16:39:26.000Z</time>
      </trkpt>
      <trkpt lat="42.93474" lon="1.82676">
        <ele>565</ele>
        <time>2022-08-03T16:39:28.000Z</time>
      </trkpt>
      <trkpt lat="42.93478" lon="1.8267">
        <ele>565</ele>
        <time>2022-08-03T16:39:29.000Z</time>
      </trkpt>
      <trkpt lat="42.93481" lon="1.82664">
        <ele>565.1</ele>
        <time>2022-08-03T16:39:30.000Z</time>
      </trkpt>
      <trkpt lat="42.93485" lon="1.82657">
        <ele>565.1</ele>
        <time>2022-08-03T16:39:31.000Z</time>
      </trkpt>
      <trkpt lat="42.9349" lon="1.82649">
        <ele>565</ele>
        <time>2022-08-03T16:39:32.000Z</time>
      </trkpt>
      <trkpt lat="42.93494" lon="1.82641">
        <ele>564.9</ele>
        <time>2022-08-03T16:39:33.000Z</time>
      </trkpt>
      <trkpt lat="42.93498" lon="1.82633">
        <ele>564.8</ele>
        <time>2022-08-03T16:39:34.000Z</time>
      </trkpt>
      <trkpt lat="42.93503" lon="1.82625">
        <ele>564.7</ele>
        <time>2022-08-03T16:39:35.000Z</time>
      </trkpt>
      <trkpt lat="42.93507" lon="1.82616">
        <ele>564.6</ele>
        <time>2022-08-03T16:39:36.000Z</time>
      </trkpt>
      <trkpt lat="42.93512" lon="1.82607">
        <ele>564.5</ele>
        <time>2022-08-03T16:39:37.000Z</time>
      </trkpt>
      <trkpt lat="42.93516" lon="1.82598">
        <ele>564.4</ele>
        <time>2022-08-03T16:39:38.000Z</time>
      </trkpt>
      <trkpt lat="42.93521" lon="1.8259">
        <ele>564.4</ele>
        <time>2022-08-03T16:39:39.000Z</time>
      </trkpt>
      <trkpt lat="42.93525" lon="1.82581">
        <ele>564.3</ele>
        <time>2022-08-03T16:39:40.000Z</time>
      </trkpt>
      <trkpt lat="42.9353" lon="1.82573">
        <ele>564.2</ele>
        <time>2022-08-03T16:39:41.000Z</time>
      </trkpt>
      <trkpt lat="42.93534" lon="1.82565">
        <ele>564</ele>
        <time>2022-08-03T16:39:42.000Z</time>
      </trkpt>
      <trkpt lat="42.93538" lon="1.82558">
        <ele>563.8</ele>
        <time>2022-08-03T16:39:43.000Z</time>
      </trkpt>
      <trkpt lat="42.93544" lon="1.82552">
        <ele>563.6</ele>
        <time>2022-08-03T16:39:44.000Z</time>
      </trkpt>
      <trkpt lat="42.9355" lon="1.82547">
        <ele>563.4</ele>
        <time>2022-08-03T16:39:45.000Z</time>
      </trkpt>
      <trkpt lat="42.93557" lon="1.82544">
        <ele>563.3</ele>
        <time>2022-08-03T16:39:46.000Z</time>
      </trkpt>
      <trkpt lat="42.93564" lon="1.82541">
        <ele>563.1</ele>
        <time>2022-08-03T16:39:47.000Z</time>
      </trkpt>
      <trkpt lat="42.93571" lon="1.82538">
        <ele>563</ele>
        <time>2022-08-03T16:39:48.000Z</time>
      </trkpt>
      <trkpt lat="42.93579" lon="1.82535">
        <ele>562.9</ele>
        <time>2022-08-03T16:39:49.000Z</time>
      </trkpt>
      <trkpt lat="42.93585" lon="1.82532">
        <ele>562.8</ele>
        <time>2022-08-03T16:39:50.000Z</time>
      </trkpt>
      <trkpt lat="42.93591" lon="1.82528">
        <ele>562.6</ele>
        <time>2022-08-03T16:39:51.000Z</time>
      </trkpt>
      <trkpt lat="42.93598" lon="1.82523">
        <ele>562.4</ele>
        <time>2022-08-03T16:39:52.000Z</time>
      </trkpt>
      <trkpt lat="42.93603" lon="1.82518">
        <ele>562.2</ele>
        <time>2022-08-03T16:39:53.000Z</time>
      </trkpt>
      <trkpt lat="42.93609" lon="1.82514">
        <ele>562</ele>
        <time>2022-08-03T16:39:54.000Z</time>
      </trkpt>
      <trkpt lat="42.93614" lon="1.82509">
        <ele>561.8</ele>
        <time>2022-08-03T16:39:55.000Z</time>
      </trkpt>
      <trkpt lat="42.93618" lon="1.82503">
        <ele>561.5</ele>
        <time>2022-08-03T16:39:56.000Z</time>
      </trkpt>
      <trkpt lat="42.93622" lon="1.82498">
        <ele>561.3</ele>
        <time>2022-08-03T16:39:57.000Z</time>
      </trkpt>
      <trkpt lat="42.93626" lon="1.82492">
        <ele>561</ele>
        <time>2022-08-03T16:39:58.000Z</time>
      </trkpt>
      <trkpt lat="42.9363" lon="1.82487">
        <ele>560.8</ele>
        <time>2022-08-03T16:39:59.000Z</time>
      </trkpt>
      <trkpt lat="42.93634" lon="1.82481">
        <ele>560.6</ele>
        <time>2022-08-03T16:40:00.000Z</time>
      </trkpt>
      <trkpt lat="42.93639" lon="1.82475">
        <ele>560.4</ele>
        <time>2022-08-03T16:40:01.000Z</time>
      </trkpt>
      <trkpt lat="42.93642" lon="1.82469">
        <ele>560.3</ele>
        <time>2022-08-03T16:40:02.000Z</time>
      </trkpt>
      <trkpt lat="42.93646" lon="1.82464">
        <ele>560.1</ele>
        <time>2022-08-03T16:40:03.000Z</time>
      </trkpt>
      <trkpt lat="42.9365" lon="1.82458">
        <ele>560</ele>
        <time>2022-08-03T16:40:04.000Z</time>
      </trkpt>
      <trkpt lat="42.93654" lon="1.82453">
        <ele>559.8</ele>
        <time>2022-08-03T16:40:05.000Z</time>
      </trkpt>
      <trkpt lat="42.93658" lon="1.82447">
        <ele>559.7</ele>
        <time>2022-08-03T16:40:06.000Z</time>
      </trkpt>
      <trkpt lat="42.93663" lon="1.82442">
        <ele>559.6</ele>
        <time>2022-08-03T16:40:07.000Z</time>
      </trkpt>
      <trkpt lat="42.93667" lon="1.82437">
        <ele>559.4</ele>
        <time>2022-08-03T16:40:08.000Z</time>
      </trkpt>
      <trkpt lat="42.93671" lon="1.82432">
        <ele>559.3</ele>
        <time>2022-08-03T16:40:09.000Z</time>
      </trkpt>
      <trkpt lat="42.93675" lon="1.82427">
        <ele>559.2</ele>
        <time>2022-08-03T16:40:10.000Z</time>
      </trkpt>
      <trkpt lat="42.93678" lon="1.82422">
        <ele>559.1</ele>
        <time>2022-08-03T16:40:11.000Z</time>
      </trkpt>
      <trkpt lat="42.93681" lon="1.82417">
        <ele>559.1</ele>
        <time>2022-08-03T16:40:12.000Z</time>
      </trkpt>
      <trkpt lat="42.93687" lon="1.82407">
        <ele>558.9</ele>
        <time>2022-08-03T16:40:14.000Z</time>
      </trkpt>
      <trkpt lat="42.9369" lon="1.82402">
        <ele>558.9</ele>
        <time>2022-08-03T16:40:15.000Z</time>
      </trkpt>
      <trkpt lat="42.93693" lon="1.82396">
        <ele>558.8</ele>
        <time>2022-08-03T16:40:16.000Z</time>
      </trkpt>
      <trkpt lat="42.93695" lon="1.82389">
        <ele>558.7</ele>
        <time>2022-08-03T16:40:17.000Z</time>
      </trkpt>
      <trkpt lat="42.93698" lon="1.82383">
        <ele>558.7</ele>
        <time>2022-08-03T16:40:18.000Z</time>
      </trkpt>
      <trkpt lat="42.93701" lon="1.82377">
        <ele>558.6</ele>
        <time>2022-08-03T16:40:19.000Z</time>
      </trkpt>
      <trkpt lat="42.93704" lon="1.82371">
        <ele>558.6</ele>
        <time>2022-08-03T16:40:20.000Z</time>
      </trkpt>
      <trkpt lat="42.93707" lon="1.82365">
        <ele>558.5</ele>
        <time>2022-08-03T16:40:21.000Z</time>
      </trkpt>
      <trkpt lat="42.9371" lon="1.8236">
        <ele>558.5</ele>
        <time>2022-08-03T16:40:22.000Z</time>
      </trkpt>
      <trkpt lat="42.93713" lon="1.82353">
        <ele>558.5</ele>
        <time>2022-08-03T16:40:23.000Z</time>
      </trkpt>
      <trkpt lat="42.93716" lon="1.82347">
        <ele>558.5</ele>
        <time>2022-08-03T16:40:24.000Z</time>
      </trkpt>
      <trkpt lat="42.93718" lon="1.82342">
        <ele>558.5</ele>
        <time>2022-08-03T16:40:25.000Z</time>
      </trkpt>
      <trkpt lat="42.93721" lon="1.82337">
        <ele>558.5</ele>
        <time>2022-08-03T16:40:26.000Z</time>
      </trkpt>
      <trkpt lat="42.93724" lon="1.82331">
        <ele>558.5</ele>
        <time>2022-08-03T16:40:27.000Z</time>
      </trkpt>
      <trkpt lat="42.93726" lon="1.82326">
        <ele>558.5</ele>
        <time>2022-08-03T16:40:28.000Z</time>
      </trkpt>
      <trkpt lat="42.93732" lon="1.82317">
        <ele>558.6</ele>
        <time>2022-08-03T16:40:30.000Z</time>
      </trkpt>
      <trkpt lat="42.93738" lon="1.82308">
        <ele>558.8</ele>
        <time>2022-08-03T16:40:32.000Z</time>
      </trkpt>
      <trkpt lat="42.93744" lon="1.82301">
        <ele>558.9</ele>
        <time>2022-08-03T16:40:34.000Z</time>
      </trkpt>
      <trkpt lat="42.9375" lon="1.82293">
        <ele>559.1</ele>
        <time>2022-08-03T16:40:36.000Z</time>
      </trkpt>
      <trkpt lat="42.93756" lon="1.82287">
        <ele>559.3</ele>
        <time>2022-08-03T16:40:38.000Z</time>
      </trkpt>
      <trkpt lat="42.93763" lon="1.8228">
        <ele>559.4</ele>
        <time>2022-08-03T16:40:40.000Z</time>
      </trkpt>
      <trkpt lat="42.93769" lon="1.82274">
        <ele>559.6</ele>
        <time>2022-08-03T16:40:42.000Z</time>
      </trkpt>
      <trkpt lat="42.93775" lon="1.82268">
        <ele>559.7</ele>
        <time>2022-08-03T16:40:44.000Z</time>
      </trkpt>
      <trkpt lat="42.93781" lon="1.82263">
        <ele>559.9</ele>
        <time>2022-08-03T16:40:46.000Z</time>
      </trkpt>
      <trkpt lat="42.93787" lon="1.82258">
        <ele>560.1</ele>
        <time>2022-08-03T16:40:48.000Z</time>
      </trkpt>
      <trkpt lat="42.93792" lon="1.82251">
        <ele>560.3</ele>
        <time>2022-08-03T16:40:50.000Z</time>
      </trkpt>
      <trkpt lat="42.93798" lon="1.82244">
        <ele>560.6</ele>
        <time>2022-08-03T16:40:52.000Z</time>
      </trkpt>
      <trkpt lat="42.93804" lon="1.82236">
        <ele>560.8</ele>
        <time>2022-08-03T16:40:54.000Z</time>
      </trkpt>
      <trkpt lat="42.93808" lon="1.82228">
        <ele>561</ele>
        <time>2022-08-03T16:40:56.000Z</time>
      </trkpt>
      <trkpt lat="42.93812" lon="1.8222">
        <ele>561.3</ele>
        <time>2022-08-03T16:40:58.000Z</time>
      </trkpt>
      <trkpt lat="42.93816" lon="1.82212">
        <ele>561.5</ele>
        <time>2022-08-03T16:41:00.000Z</time>
      </trkpt>
      <trkpt lat="42.93819" lon="1.82204">
        <ele>561.7</ele>
        <time>2022-08-03T16:41:02.000Z</time>
      </trkpt>
      <trkpt lat="42.93822" lon="1.82197">
        <ele>561.9</ele>
        <time>2022-08-03T16:41:04.000Z</time>
      </trkpt>
      <trkpt lat="42.93824" lon="1.82191">
        <ele>562.1</ele>
        <time>2022-08-03T16:41:06.000Z</time>
      </trkpt>
      <trkpt lat="42.93827" lon="1.82182">
        <ele>562.3</ele>
        <time>2022-08-03T16:41:09.000Z</time>
      </trkpt>
      <trkpt lat="42.9383" lon="1.82174">
        <ele>562.5</ele>
        <time>2022-08-03T16:41:12.000Z</time>
      </trkpt>
      <trkpt lat="42.93833" lon="1.82166">
        <ele>562.7</ele>
        <time>2022-08-03T16:41:15.000Z</time>
      </trkpt>
      <trkpt lat="42.93836" lon="1.82161">
        <ele>562.9</ele>
        <time>2022-08-03T16:41:17.000Z</time>
      </trkpt>
      <trkpt lat="42.93837" lon="1.82154">
        <ele>563.1</ele>
        <time>2022-08-03T16:41:19.000Z</time>
      </trkpt>
      <trkpt lat="42.93838" lon="1.82145">
        <ele>563.4</ele>
        <time>2022-08-03T16:41:22.000Z</time>
      </trkpt>
      <trkpt lat="42.93839" lon="1.82139">
        <ele>563.7</ele>
        <time>2022-08-03T16:41:25.000Z</time>
      </trkpt>
      <trkpt lat="42.9384" lon="1.82131">
        <ele>564.1</ele>
        <time>2022-08-03T16:41:28.000Z</time>
      </trkpt>
      <trkpt lat="42.9384" lon="1.82123">
        <ele>564.4</ele>
        <time>2022-08-03T16:41:31.000Z</time>
      </trkpt>
      <trkpt lat="42.93841" lon="1.82115">
        <ele>564.6</ele>
        <time>2022-08-03T16:41:33.000Z</time>
      </trkpt>
      <trkpt lat="42.93841" lon="1.82107">
        <ele>564.8</ele>
        <time>2022-08-03T16:41:35.000Z</time>
      </trkpt>
      <trkpt lat="42.93843" lon="1.821">
        <ele>565</ele>
        <time>2022-08-03T16:41:37.000Z</time>
      </trkpt>
      <trkpt lat="42.93844" lon="1.82093">
        <ele>565.2</ele>
        <time>2022-08-03T16:41:39.000Z</time>
      </trkpt>
      <trkpt lat="42.93845" lon="1.82085">
        <ele>565.4</ele>
        <time>2022-08-03T16:41:41.000Z</time>
      </trkpt>
      <trkpt lat="42.93847" lon="1.82078">
        <ele>565.6</ele>
        <time>2022-08-03T16:41:43.000Z</time>
      </trkpt>
      <trkpt lat="42.93848" lon="1.8207">
        <ele>565.9</ele>
        <time>2022-08-03T16:41:45.000Z</time>
      </trkpt>
      <trkpt lat="42.93849" lon="1.82063">
        <ele>566.1</ele>
        <time>2022-08-03T16:41:47.000Z</time>
      </trkpt>
      <trkpt lat="42.93851" lon="1.82055">
        <ele>566.3</ele>
        <time>2022-08-03T16:41:49.000Z</time>
      </trkpt>
      <trkpt lat="42.93852" lon="1.82047">
        <ele>566.5</ele>
        <time>2022-08-03T16:41:51.000Z</time>
      </trkpt>
      <trkpt lat="42.93854" lon="1.8204">
        <ele>566.7</ele>
        <time>2022-08-03T16:41:53.000Z</time>
      </trkpt>
      <trkpt lat="42.93856" lon="1.82033">
        <ele>567</ele>
        <time>2022-08-03T16:41:55.000Z</time>
      </trkpt>
      <trkpt lat="42.93858" lon="1.82024">
        <ele>567.3</ele>
        <time>2022-08-03T16:41:57.000Z</time>
      </trkpt>
      <trkpt lat="42.93859" lon="1.82017">
        <ele>567.5</ele>
        <time>2022-08-03T16:41:59.000Z</time>
      </trkpt>
      <trkpt lat="42.93861" lon="1.82009">
        <ele>567.7</ele>
        <time>2022-08-03T16:42:01.000Z</time>
      </trkpt>
      <trkpt lat="42.93863" lon="1.82002">
        <ele>567.9</ele>
        <time>2022-08-03T16:42:03.000Z</time>
      </trkpt>
      <trkpt lat="42.93864" lon="1.81995">
        <ele>568.1</ele>
        <time>2022-08-03T16:42:05.000Z</time>
      </trkpt>
      <trkpt lat="42.93866" lon="1.81988">
        <ele>568.3</ele>
        <time>2022-08-03T16:42:07.000Z</time>
      </trkpt>
      <trkpt lat="42.93867" lon="1.8198">
        <ele>568.6</ele>
        <time>2022-08-03T16:42:09.000Z</time>
      </trkpt>
      <trkpt lat="42.93869" lon="1.81973">
        <ele>568.8</ele>
        <time>2022-08-03T16:42:11.000Z</time>
      </trkpt>
      <trkpt lat="42.93871" lon="1.81965">
        <ele>569</ele>
        <time>2022-08-03T16:42:13.000Z</time>
      </trkpt>
      <trkpt lat="42.93872" lon="1.81957">
        <ele>569.2</ele>
        <time>2022-08-03T16:42:15.000Z</time>
      </trkpt>
      <trkpt lat="42.93874" lon="1.81949">
        <ele>569.4</ele>
        <time>2022-08-03T16:42:17.000Z</time>
      </trkpt>
      <trkpt lat="42.93875" lon="1.81942">
        <ele>569.5</ele>
        <time>2022-08-03T16:42:19.000Z</time>
      </trkpt>
      <trkpt lat="42.93877" lon="1.81934">
        <ele>569.7</ele>
        <time>2022-08-03T16:42:21.000Z</time>
      </trkpt>
      <trkpt lat="42.93878" lon="1.81927">
        <ele>569.9</ele>
        <time>2022-08-03T16:42:23.000Z</time>
      </trkpt>
      <trkpt lat="42.93879" lon="1.8192">
        <ele>570.1</ele>
        <time>2022-08-03T16:42:25.000Z</time>
      </trkpt>
      <trkpt lat="42.93881" lon="1.81911">
        <ele>570.3</ele>
        <time>2022-08-03T16:42:27.000Z</time>
      </trkpt>
      <trkpt lat="42.93882" lon="1.81903">
        <ele>570.5</ele>
        <time>2022-08-03T16:42:29.000Z</time>
      </trkpt>
      <trkpt lat="42.93885" lon="1.81897">
        <ele>570.7</ele>
        <time>2022-08-03T16:42:31.000Z</time>
      </trkpt>
      <trkpt lat="42.93889" lon="1.81891">
        <ele>571</ele>
        <time>2022-08-03T16:42:33.000Z</time>
      </trkpt>
      <trkpt lat="42.93892" lon="1.81885">
        <ele>571.2</ele>
        <time>2022-08-03T16:42:35.000Z</time>
      </trkpt>
      <trkpt lat="42.93895" lon="1.8188">
        <ele>571.4</ele>
        <time>2022-08-03T16:42:37.000Z</time>
      </trkpt>
      <trkpt lat="42.93897" lon="1.81874">
        <ele>571.6</ele>
        <time>2022-08-03T16:42:39.000Z</time>
      </trkpt>
      <trkpt lat="42.93898" lon="1.81867">
        <ele>571.8</ele>
        <time>2022-08-03T16:42:41.000Z</time>
      </trkpt>
      <trkpt lat="42.93901" lon="1.81861">
        <ele>572</ele>
        <time>2022-08-03T16:42:43.000Z</time>
      </trkpt>
      <trkpt lat="42.93903" lon="1.81855">
        <ele>572.3</ele>
        <time>2022-08-03T16:42:45.000Z</time>
      </trkpt>
      <trkpt lat="42.93905" lon="1.81848">
        <ele>572.5</ele>
        <time>2022-08-03T16:42:47.000Z</time>
      </trkpt>
      <trkpt lat="42.93907" lon="1.81842">
        <ele>572.6</ele>
        <time>2022-08-03T16:42:49.000Z</time>
      </trkpt>
      <trkpt lat="42.9391" lon="1.81836">
        <ele>572.8</ele>
        <time>2022-08-03T16:42:51.000Z</time>
      </trkpt>
      <trkpt lat="42.93913" lon="1.81829">
        <ele>573</ele>
        <time>2022-08-03T16:42:53.000Z</time>
      </trkpt>
      <trkpt lat="42.93915" lon="1.81822">
        <ele>573.2</ele>
        <time>2022-08-03T16:42:55.000Z</time>
      </trkpt>
      <trkpt lat="42.93916" lon="1.81816">
        <ele>573.4</ele>
        <time>2022-08-03T16:42:57.000Z</time>
      </trkpt>
      <trkpt lat="42.93916" lon="1.81807">
        <ele>573.5</ele>
        <time>2022-08-03T16:42:59.000Z</time>
      </trkpt>
      <trkpt lat="42.93915" lon="1.818">
        <ele>573.6</ele>
        <time>2022-08-03T16:43:01.000Z</time>
      </trkpt>
      <trkpt lat="42.93917" lon="1.81791">
        <ele>573.8</ele>
        <time>2022-08-03T16:43:04.000Z</time>
      </trkpt>
      <trkpt lat="42.93918" lon="1.81783">
        <ele>574</ele>
        <time>2022-08-03T16:43:06.000Z</time>
      </trkpt>
      <trkpt lat="42.93919" lon="1.81776">
        <ele>574.1</ele>
        <time>2022-08-03T16:43:08.000Z</time>
      </trkpt>
      <trkpt lat="42.9392" lon="1.8177">
        <ele>574.3</ele>
        <time>2022-08-03T16:43:10.000Z</time>
      </trkpt>
      <trkpt lat="42.93922" lon="1.81763">
        <ele>574.5</ele>
        <time>2022-08-03T16:43:12.000Z</time>
      </trkpt>
      <trkpt lat="42.93925" lon="1.81757">
        <ele>574.6</ele>
        <time>2022-08-03T16:43:14.000Z</time>
      </trkpt>
      <trkpt lat="42.93926" lon="1.81749">
        <ele>574.8</ele>
        <time>2022-08-03T16:43:16.000Z</time>
      </trkpt>
      <trkpt lat="42.93928" lon="1.81741">
        <ele>575</ele>
        <time>2022-08-03T16:43:18.000Z</time>
      </trkpt>
      <trkpt lat="42.9393" lon="1.81733">
        <ele>575.2</ele>
        <time>2022-08-03T16:43:20.000Z</time>
      </trkpt>
      <trkpt lat="42.93932" lon="1.81725">
        <ele>575.4</ele>
        <time>2022-08-03T16:43:22.000Z</time>
      </trkpt>
      <trkpt lat="42.93934" lon="1.81717">
        <ele>575.6</ele>
        <time>2022-08-03T16:43:24.000Z</time>
      </trkpt>
      <trkpt lat="42.93936" lon="1.8171">
        <ele>575.8</ele>
        <time>2022-08-03T16:43:26.000Z</time>
      </trkpt>
      <trkpt lat="42.93938" lon="1.81703">
        <ele>576</ele>
        <time>2022-08-03T16:43:28.000Z</time>
      </trkpt>
      <trkpt lat="42.93941" lon="1.81697">
        <ele>576.2</ele>
        <time>2022-08-03T16:43:30.000Z</time>
      </trkpt>
      <trkpt lat="42.93944" lon="1.81691">
        <ele>576.3</ele>
        <time>2022-08-03T16:43:32.000Z</time>
      </trkpt>
      <trkpt lat="42.93946" lon="1.81684">
        <ele>576.5</ele>
        <time>2022-08-03T16:43:34.000Z</time>
      </trkpt>
      <trkpt lat="42.93948" lon="1.81676">
        <ele>576.6</ele>
        <time>2022-08-03T16:43:36.000Z</time>
      </trkpt>
      <trkpt lat="42.9395" lon="1.81667">
        <ele>576.8</ele>
        <time>2022-08-03T16:43:38.000Z</time>
      </trkpt>
      <trkpt lat="42.93953" lon="1.8166">
        <ele>577</ele>
        <time>2022-08-03T16:43:40.000Z</time>
      </trkpt>
      <trkpt lat="42.93956" lon="1.81654">
        <ele>577.1</ele>
        <time>2022-08-03T16:43:42.000Z</time>
      </trkpt>
      <trkpt lat="42.93958" lon="1.81645">
        <ele>577.4</ele>
        <time>2022-08-03T16:43:44.000Z</time>
      </trkpt>
      <trkpt lat="42.9396" lon="1.81637">
        <ele>577.6</ele>
        <time>2022-08-03T16:43:46.000Z</time>
      </trkpt>
      <trkpt lat="42.93962" lon="1.81629">
        <ele>577.8</ele>
        <time>2022-08-03T16:43:48.000Z</time>
      </trkpt>
      <trkpt lat="42.93964" lon="1.8162">
        <ele>578</ele>
        <time>2022-08-03T16:43:50.000Z</time>
      </trkpt>
      <trkpt lat="42.93966" lon="1.81613">
        <ele>578.2</ele>
        <time>2022-08-03T16:43:52.000Z</time>
      </trkpt>
      <trkpt lat="42.93967" lon="1.81603">
        <ele>578.4</ele>
        <time>2022-08-03T16:43:54.000Z</time>
      </trkpt>
      <trkpt lat="42.93969" lon="1.81596">
        <ele>578.6</ele>
        <time>2022-08-03T16:43:56.000Z</time>
      </trkpt>
      <trkpt lat="42.93971" lon="1.8159">
        <ele>578.8</ele>
        <time>2022-08-03T16:43:58.000Z</time>
      </trkpt>
      <trkpt lat="42.93974" lon="1.81584">
        <ele>579</ele>
        <time>2022-08-03T16:44:00.000Z</time>
      </trkpt>
      <trkpt lat="42.93976" lon="1.81578">
        <ele>579.3</ele>
        <time>2022-08-03T16:44:02.000Z</time>
      </trkpt>
      <trkpt lat="42.93976" lon="1.81567">
        <ele>579.5</ele>
        <time>2022-08-03T16:44:04.000Z</time>
      </trkpt>
      <trkpt lat="42.93977" lon="1.81557">
        <ele>579.7</ele>
        <time>2022-08-03T16:44:06.000Z</time>
      </trkpt>
      <trkpt lat="42.93977" lon="1.81549">
        <ele>579.9</ele>
        <time>2022-08-03T16:44:08.000Z</time>
      </trkpt>
      <trkpt lat="42.93977" lon="1.81541">
        <ele>580.2</ele>
        <time>2022-08-03T16:44:10.000Z</time>
      </trkpt>
      <trkpt lat="42.93978" lon="1.81533">
        <ele>580.4</ele>
        <time>2022-08-03T16:44:12.000Z</time>
      </trkpt>
      <trkpt lat="42.93978" lon="1.81525">
        <ele>580.7</ele>
        <time>2022-08-03T16:44:14.000Z</time>
      </trkpt>
      <trkpt lat="42.93978" lon="1.81517">
        <ele>580.9</ele>
        <time>2022-08-03T16:44:16.000Z</time>
      </trkpt>
      <trkpt lat="42.93978" lon="1.81509">
        <ele>581.1</ele>
        <time>2022-08-03T16:44:18.000Z</time>
      </trkpt>
      <trkpt lat="42.93979" lon="1.81501">
        <ele>581.3</ele>
        <time>2022-08-03T16:44:20.000Z</time>
      </trkpt>
      <trkpt lat="42.93978" lon="1.81492">
        <ele>581.5</ele>
        <time>2022-08-03T16:44:22.000Z</time>
      </trkpt>
      <trkpt lat="42.93979" lon="1.81483">
        <ele>581.8</ele>
        <time>2022-08-03T16:44:24.000Z</time>
      </trkpt>
      <trkpt lat="42.9398" lon="1.81475">
        <ele>582.1</ele>
        <time>2022-08-03T16:44:26.000Z</time>
      </trkpt>
      <trkpt lat="42.9398" lon="1.81467">
        <ele>582.3</ele>
        <time>2022-08-03T16:44:28.000Z</time>
      </trkpt>
      <trkpt lat="42.93981" lon="1.81458">
        <ele>582.5</ele>
        <time>2022-08-03T16:44:30.000Z</time>
      </trkpt>
      <trkpt lat="42.9398" lon="1.81447">
        <ele>582.7</ele>
        <time>2022-08-03T16:44:32.000Z</time>
      </trkpt>
      <trkpt lat="42.93979" lon="1.81435">
        <ele>582.9</ele>
        <time>2022-08-03T16:44:34.000Z</time>
      </trkpt>
      <trkpt lat="42.9398" lon="1.81424">
        <ele>583.1</ele>
        <time>2022-08-03T16:44:36.000Z</time>
      </trkpt>
      <trkpt lat="42.9398" lon="1.81418">
        <ele>583.1</ele>
        <time>2022-08-03T16:44:37.000Z</time>
      </trkpt>
      <trkpt lat="42.93981" lon="1.81411">
        <ele>583.2</ele>
        <time>2022-08-03T16:44:38.000Z</time>
      </trkpt>
      <trkpt lat="42.93981" lon="1.81399">
        <ele>583.3</ele>
        <time>2022-08-03T16:44:40.000Z</time>
      </trkpt>
      <trkpt lat="42.93982" lon="1.81393">
        <ele>583.4</ele>
        <time>2022-08-03T16:44:41.000Z</time>
      </trkpt>
      <trkpt lat="42.93982" lon="1.81386">
        <ele>583.5</ele>
        <time>2022-08-03T16:44:42.000Z</time>
      </trkpt>
      <trkpt lat="42.93982" lon="1.8138">
        <ele>583.5</ele>
        <time>2022-08-03T16:44:43.000Z</time>
      </trkpt>
      <trkpt lat="42.93982" lon="1.81373">
        <ele>583.6</ele>
        <time>2022-08-03T16:44:44.000Z</time>
      </trkpt>
      <trkpt lat="42.93982" lon="1.81367">
        <ele>583.6</ele>
        <time>2022-08-03T16:44:45.000Z</time>
      </trkpt>
      <trkpt lat="42.93981" lon="1.81361">
        <ele>583.7</ele>
        <time>2022-08-03T16:44:46.000Z</time>
      </trkpt>
      <trkpt lat="42.9398" lon="1.81354">
        <ele>583.7</ele>
        <time>2022-08-03T16:44:47.000Z</time>
      </trkpt>
      <trkpt lat="42.9398" lon="1.81348">
        <ele>583.7</ele>
        <time>2022-08-03T16:44:48.000Z</time>
      </trkpt>
      <trkpt lat="42.9398" lon="1.81338">
        <ele>583.8</ele>
        <time>2022-08-03T16:44:50.000Z</time>
      </trkpt>
      <trkpt lat="42.93981" lon="1.81331">
        <ele>583.9</ele>
        <time>2022-08-03T16:44:52.000Z</time>
      </trkpt>
      <trkpt lat="42.93982" lon="1.81322">
        <ele>583.9</ele>
        <time>2022-08-03T16:44:54.000Z</time>
      </trkpt>
      <trkpt lat="42.93983" lon="1.81314">
        <ele>584</ele>
        <time>2022-08-03T16:44:56.000Z</time>
      </trkpt>
      <trkpt lat="42.93983" lon="1.81305">
        <ele>584</ele>
        <time>2022-08-03T16:44:58.000Z</time>
      </trkpt>
      <trkpt lat="42.93984" lon="1.81296">
        <ele>584.1</ele>
        <time>2022-08-03T16:45:00.000Z</time>
      </trkpt>
      <trkpt lat="42.93982" lon="1.81287">
        <ele>584.1</ele>
        <time>2022-08-03T16:45:02.000Z</time>
      </trkpt>
      <trkpt lat="42.93982" lon="1.8128">
        <ele>584.2</ele>
        <time>2022-08-03T16:45:04.000Z</time>
      </trkpt>
      <trkpt lat="42.93983" lon="1.81271">
        <ele>584.5</ele>
        <time>2022-08-03T16:45:07.000Z</time>
      </trkpt>
      <trkpt lat="42.93983" lon="1.81264">
        <ele>584.7</ele>
        <time>2022-08-03T16:45:09.000Z</time>
      </trkpt>
      <trkpt lat="42.93985" lon="1.81255">
        <ele>585.2</ele>
        <time>2022-08-03T16:45:12.000Z</time>
      </trkpt>
      <trkpt lat="42.93986" lon="1.81249">
        <ele>585.5</ele>
        <time>2022-08-03T16:45:14.000Z</time>
      </trkpt>
      <trkpt lat="42.93986" lon="1.81242">
        <ele>585.7</ele>
        <time>2022-08-03T16:45:16.000Z</time>
      </trkpt>
      <trkpt lat="42.93985" lon="1.81235">
        <ele>586</ele>
        <time>2022-08-03T16:45:18.000Z</time>
      </trkpt>
      <trkpt lat="42.93985" lon="1.81228">
        <ele>586.3</ele>
        <time>2022-08-03T16:45:20.000Z</time>
      </trkpt>
      <trkpt lat="42.93986" lon="1.8122">
        <ele>586.7</ele>
        <time>2022-08-03T16:45:22.000Z</time>
      </trkpt>
      <trkpt lat="42.93987" lon="1.81213">
        <ele>587</ele>
        <time>2022-08-03T16:45:24.000Z</time>
      </trkpt>
      <trkpt lat="42.93988" lon="1.81204">
        <ele>587.5</ele>
        <time>2022-08-03T16:45:27.000Z</time>
      </trkpt>
      <trkpt lat="42.93987" lon="1.81196">
        <ele>587.9</ele>
        <time>2022-08-03T16:45:29.000Z</time>
      </trkpt>
      <trkpt lat="42.93987" lon="1.81188">
        <ele>588.2</ele>
        <time>2022-08-03T16:45:31.000Z</time>
      </trkpt>
      <trkpt lat="42.93986" lon="1.81181">
        <ele>588.5</ele>
        <time>2022-08-03T16:45:33.000Z</time>
      </trkpt>
      <trkpt lat="42.93986" lon="1.81174">
        <ele>588.8</ele>
        <time>2022-08-03T16:45:35.000Z</time>
      </trkpt>
      <trkpt lat="42.93986" lon="1.81166">
        <ele>589</ele>
        <time>2022-08-03T16:45:37.000Z</time>
      </trkpt>
      <trkpt lat="42.93985" lon="1.8116">
        <ele>589.3</ele>
        <time>2022-08-03T16:45:39.000Z</time>
      </trkpt>
      <trkpt lat="42.93985" lon="1.81153">
        <ele>589.6</ele>
        <time>2022-08-03T16:45:41.000Z</time>
      </trkpt>
      <trkpt lat="42.93985" lon="1.81147">
        <ele>589.8</ele>
        <time>2022-08-03T16:45:43.000Z</time>
      </trkpt>
      <trkpt lat="42.93985" lon="1.8114">
        <ele>590.1</ele>
        <time>2022-08-03T16:45:45.000Z</time>
      </trkpt>
      <trkpt lat="42.93985" lon="1.81132">
        <ele>590.5</ele>
        <time>2022-08-03T16:45:48.000Z</time>
      </trkpt>
      <trkpt lat="42.93986" lon="1.81124">
        <ele>590.8</ele>
        <time>2022-08-03T16:45:51.000Z</time>
      </trkpt>
      <trkpt lat="42.93986" lon="1.81115">
        <ele>591.2</ele>
        <time>2022-08-03T16:45:54.000Z</time>
      </trkpt>
      <trkpt lat="42.93987" lon="1.81107">
        <ele>591.6</ele>
        <time>2022-08-03T16:45:57.000Z</time>
      </trkpt>
      <trkpt lat="42.93987" lon="1.81099">
        <ele>591.9</ele>
        <time>2022-08-03T16:46:00.000Z</time>
      </trkpt>
      <trkpt lat="42.93987" lon="1.81091">
        <ele>592.3</ele>
        <time>2022-08-03T16:46:03.000Z</time>
      </trkpt>
      <trkpt lat="42.93986" lon="1.81083">
        <ele>592.6</ele>
        <time>2022-08-03T16:46:06.000Z</time>
      </trkpt>
      <trkpt lat="42.93988" lon="1.81076">
        <ele>592.9</ele>
        <time>2022-08-03T16:46:09.000Z</time>
      </trkpt>
      <trkpt lat="42.93989" lon="1.81069">
        <ele>593.1</ele>
        <time>2022-08-03T16:46:12.000Z</time>
      </trkpt>
      <trkpt lat="42.9399" lon="1.81061">
        <ele>593.5</ele>
        <time>2022-08-03T16:46:15.000Z</time>
      </trkpt>
      <trkpt lat="42.93989" lon="1.81055">
        <ele>593.7</ele>
        <time>2022-08-03T16:46:17.000Z</time>
      </trkpt>
      <trkpt lat="42.93989" lon="1.81047">
        <ele>594</ele>
        <time>2022-08-03T16:46:20.000Z</time>
      </trkpt>
      <trkpt lat="42.9399" lon="1.81038">
        <ele>594.3</ele>
        <time>2022-08-03T16:46:23.000Z</time>
      </trkpt>
      <trkpt lat="42.93989" lon="1.81029">
        <ele>594.6</ele>
        <time>2022-08-03T16:46:26.000Z</time>
      </trkpt>
      <trkpt lat="42.93989" lon="1.81022">
        <ele>594.9</ele>
        <time>2022-08-03T16:46:28.000Z</time>
      </trkpt>
      <trkpt lat="42.9399" lon="1.81015">
        <ele>595.2</ele>
        <time>2022-08-03T16:46:31.000Z</time>
      </trkpt>
      <trkpt lat="42.9399" lon="1.81008">
        <ele>595.5</ele>
        <time>2022-08-03T16:46:34.000Z</time>
      </trkpt>
      <trkpt lat="42.9399" lon="1.81001">
        <ele>595.9</ele>
        <time>2022-08-03T16:46:37.000Z</time>
      </trkpt>
      <trkpt lat="42.9399" lon="1.80992">
        <ele>596.3</ele>
        <time>2022-08-03T16:46:40.000Z</time>
      </trkpt>
      <trkpt lat="42.93989" lon="1.80983">
        <ele>596.6</ele>
        <time>2022-08-03T16:46:43.000Z</time>
      </trkpt>
      <trkpt lat="42.93989" lon="1.80975">
        <ele>596.9</ele>
        <time>2022-08-03T16:46:46.000Z</time>
      </trkpt>
      <trkpt lat="42.93989" lon="1.80968">
        <ele>597.2</ele>
        <time>2022-08-03T16:46:49.000Z</time>
      </trkpt>
      <trkpt lat="42.9399" lon="1.8096">
        <ele>597.5</ele>
        <time>2022-08-03T16:46:52.000Z</time>
      </trkpt>
      <trkpt lat="42.9399" lon="1.80952">
        <ele>597.8</ele>
        <time>2022-08-03T16:46:55.000Z</time>
      </trkpt>
      <trkpt lat="42.9399" lon="1.80944">
        <ele>598.2</ele>
        <time>2022-08-03T16:46:59.000Z</time>
      </trkpt>
      <trkpt lat="42.9399" lon="1.80936">
        <ele>598.7</ele>
        <time>2022-08-03T16:47:03.000Z</time>
      </trkpt>
      <trkpt lat="42.9399" lon="1.80928">
        <ele>599.2</ele>
        <time>2022-08-03T16:47:06.000Z</time>
      </trkpt>
      <trkpt lat="42.9399" lon="1.80919">
        <ele>599.7</ele>
        <time>2022-08-03T16:47:09.000Z</time>
      </trkpt>
      <trkpt lat="42.93989" lon="1.80911">
        <ele>600</ele>
        <time>2022-08-03T16:47:11.000Z</time>
      </trkpt>
      <trkpt lat="42.93988" lon="1.80904">
        <ele>600.4</ele>
        <time>2022-08-03T16:47:14.000Z</time>
      </trkpt>
      <trkpt lat="42.93988" lon="1.80896">
        <ele>600.9</ele>
        <time>2022-08-03T16:47:18.000Z</time>
      </trkpt>
      <trkpt lat="42.93987" lon="1.80889">
        <ele>601.4</ele>
        <time>2022-08-03T16:47:21.000Z</time>
      </trkpt>
      <trkpt lat="42.93986" lon="1.80882">
        <ele>601.9</ele>
        <time>2022-08-03T16:47:25.000Z</time>
      </trkpt>
      <trkpt lat="42.93986" lon="1.80874">
        <ele>602.5</ele>
        <time>2022-08-03T16:47:30.000Z</time>
      </trkpt>
      <trkpt lat="42.93986" lon="1.80867">
        <ele>602.9</ele>
        <time>2022-08-03T16:47:34.000Z</time>
      </trkpt>
      <trkpt lat="42.93987" lon="1.80861">
        <ele>603.3</ele>
        <time>2022-08-03T16:47:38.000Z</time>
      </trkpt>
      <trkpt lat="42.93988" lon="1.80853">
        <ele>603.7</ele>
        <time>2022-08-03T16:47:42.000Z</time>
      </trkpt>
      <trkpt lat="42.93989" lon="1.80846">
        <ele>604.1</ele>
        <time>2022-08-03T16:47:46.000Z</time>
      </trkpt>
      <trkpt lat="42.93989" lon="1.80839">
        <ele>604.6</ele>
        <time>2022-08-03T16:47:50.000Z</time>
      </trkpt>
      <trkpt lat="42.93989" lon="1.80832">
        <ele>605</ele>
        <time>2022-08-03T16:47:54.000Z</time>
      </trkpt>
      <trkpt lat="42.93989" lon="1.80826">
        <ele>605.4</ele>
        <time>2022-08-03T16:47:58.000Z</time>
      </trkpt>
      <trkpt lat="42.9399" lon="1.80818">
        <ele>605.8</ele>
        <time>2022-08-03T16:48:02.000Z</time>
      </trkpt>
      <trkpt lat="42.93991" lon="1.80812">
        <ele>606.1</ele>
        <time>2022-08-03T16:48:05.000Z</time>
      </trkpt>
      <trkpt lat="42.93992" lon="1.80805">
        <ele>606.5</ele>
        <time>2022-08-03T16:48:08.000Z</time>
      </trkpt>
      <trkpt lat="42.93992" lon="1.80797">
        <ele>606.8</ele>
        <time>2022-08-03T16:48:11.000Z</time>
      </trkpt>
      <trkpt lat="42.93994" lon="1.80791">
        <ele>607.1</ele>
        <time>2022-08-03T16:48:14.000Z</time>
      </trkpt>
      <trkpt lat="42.93994" lon="1.80783">
        <ele>607.4</ele>
        <time>2022-08-03T16:48:17.000Z</time>
      </trkpt>
      <trkpt lat="42.93994" lon="1.80776">
        <ele>607.8</ele>
        <time>2022-08-03T16:48:21.000Z</time>
      </trkpt>
      <trkpt lat="42.93994" lon="1.80769">
        <ele>608.2</ele>
        <time>2022-08-03T16:48:25.000Z</time>
      </trkpt>
      <trkpt lat="42.93993" lon="1.80763">
        <ele>608.6</ele>
        <time>2022-08-03T16:48:29.000Z</time>
      </trkpt>
      <trkpt lat="42.93992" lon="1.80757">
        <ele>609.1</ele>
        <time>2022-08-03T16:48:33.000Z</time>
      </trkpt>
      <trkpt lat="42.93992" lon="1.80749">
        <ele>609.5</ele>
        <time>2022-08-03T16:48:37.000Z</time>
      </trkpt>
      <trkpt lat="42.93993" lon="1.80742">
        <ele>609.8</ele>
        <time>2022-08-03T16:48:40.000Z</time>
      </trkpt>
      <trkpt lat="42.93994" lon="1.80735">
        <ele>610.2</ele>
        <time>2022-08-03T16:48:44.000Z</time>
      </trkpt>
      <trkpt lat="42.93994" lon="1.80727">
        <ele>610.7</ele>
        <time>2022-08-03T16:48:48.000Z</time>
      </trkpt>
      <trkpt lat="42.93993" lon="1.80721">
        <ele>611.2</ele>
        <time>2022-08-03T16:48:52.000Z</time>
      </trkpt>
      <trkpt lat="42.93993" lon="1.80713">
        <ele>611.5</ele>
        <time>2022-08-03T16:48:56.000Z</time>
      </trkpt>
      <trkpt lat="42.93994" lon="1.80706">
        <ele>611.9</ele>
        <time>2022-08-03T16:49:00.000Z</time>
      </trkpt>
      <trkpt lat="42.93994" lon="1.80698">
        <ele>612.3</ele>
        <time>2022-08-03T16:49:04.000Z</time>
      </trkpt>
      <trkpt lat="42.93992" lon="1.8069">
        <ele>612.6</ele>
        <time>2022-08-03T16:49:07.000Z</time>
      </trkpt>
      <trkpt lat="42.93993" lon="1.80682">
        <ele>612.9</ele>
        <time>2022-08-03T16:49:10.000Z</time>
      </trkpt>
      <trkpt lat="42.93993" lon="1.80675">
        <ele>613.4</ele>
        <time>2022-08-03T16:49:14.000Z</time>
      </trkpt>
      <trkpt lat="42.93992" lon="1.80667">
        <ele>613.9</ele>
        <time>2022-08-03T16:49:19.000Z</time>
      </trkpt>
      <trkpt lat="42.93992" lon="1.80661">
        <ele>614.3</ele>
        <time>2022-08-03T16:49:23.000Z</time>
      </trkpt>
      <trkpt lat="42.93993" lon="1.80653">
        <ele>614.7</ele>
        <time>2022-08-03T16:49:27.000Z</time>
      </trkpt>
      <trkpt lat="42.93993" lon="1.80647">
        <ele>615.1</ele>
        <time>2022-08-03T16:49:31.000Z</time>
      </trkpt>
      <trkpt lat="42.93992" lon="1.8064">
        <ele>615.6</ele>
        <time>2022-08-03T16:49:36.000Z</time>
      </trkpt>
      <trkpt lat="42.93993" lon="1.80633">
        <ele>616</ele>
        <time>2022-08-03T16:49:39.000Z</time>
      </trkpt>
      <trkpt lat="42.93993" lon="1.80626">
        <ele>616.2</ele>
        <time>2022-08-03T16:49:41.000Z</time>
      </trkpt>
      <trkpt lat="42.93992" lon="1.80618">
        <ele>616.6</ele>
        <time>2022-08-03T16:49:44.000Z</time>
      </trkpt>
      <trkpt lat="42.93991" lon="1.8061">
        <ele>617.3</ele>
        <time>2022-08-03T16:49:50.000Z</time>
      </trkpt>
      <trkpt lat="42.9399" lon="1.80603">
        <ele>617.8</ele>
        <time>2022-08-03T16:49:54.000Z</time>
      </trkpt>
      <trkpt lat="42.93992" lon="1.80596">
        <ele>618.6</ele>
        <time>2022-08-03T16:49:59.000Z</time>
      </trkpt>
      <trkpt lat="42.93992" lon="1.80589">
        <ele>619</ele>
        <time>2022-08-03T16:50:03.000Z</time>
      </trkpt>
      <trkpt lat="42.93991" lon="1.80583">
        <ele>619.6</ele>
        <time>2022-08-03T16:50:08.000Z</time>
      </trkpt>
      <trkpt lat="42.93989" lon="1.80576">
        <ele>620.2</ele>
        <time>2022-08-03T16:50:13.000Z</time>
      </trkpt>
      <trkpt lat="42.93989" lon="1.8057">
        <ele>620.6</ele>
        <time>2022-08-03T16:50:16.000Z</time>
      </trkpt>
      <trkpt lat="42.93989" lon="1.80564">
        <ele>621.2</ele>
        <time>2022-08-03T16:50:21.000Z</time>
      </trkpt>
      <trkpt lat="42.9399" lon="1.80556">
        <ele>621.9</ele>
        <time>2022-08-03T16:50:27.000Z</time>
      </trkpt>
      <trkpt lat="42.9399" lon="1.8055">
        <ele>622.4</ele>
        <time>2022-08-03T16:50:32.000Z</time>
      </trkpt>
      <trkpt lat="42.93988" lon="1.80543">
        <ele>622.9</ele>
        <time>2022-08-03T16:50:37.000Z</time>
      </trkpt>
      <trkpt lat="42.93989" lon="1.80536">
        <ele>623.4</ele>
        <time>2022-08-03T16:50:41.000Z</time>
      </trkpt>
      <trkpt lat="42.9399" lon="1.80529">
        <ele>623.9</ele>
        <time>2022-08-03T16:50:45.000Z</time>
      </trkpt>
      <trkpt lat="42.93992" lon="1.80521">
        <ele>624.4</ele>
        <time>2022-08-03T16:50:49.000Z</time>
      </trkpt>
      <trkpt lat="42.93993" lon="1.80514">
        <ele>625</ele>
        <time>2022-08-03T16:50:54.000Z</time>
      </trkpt>
      <trkpt lat="42.93994" lon="1.80508">
        <ele>625.5</ele>
        <time>2022-08-03T16:50:58.000Z</time>
      </trkpt>
      <trkpt lat="42.93995" lon="1.805">
        <ele>626</ele>
        <time>2022-08-03T16:51:02.000Z</time>
      </trkpt>
      <trkpt lat="42.93995" lon="1.80494">
        <ele>626.5</ele>
        <time>2022-08-03T16:51:06.000Z</time>
      </trkpt>
      <trkpt lat="42.93995" lon="1.80486">
        <ele>627.1</ele>
        <time>2022-08-03T16:51:11.000Z</time>
      </trkpt>
      <trkpt lat="42.93996" lon="1.8048">
        <ele>627.6</ele>
        <time>2022-08-03T16:51:15.000Z</time>
      </trkpt>
      <trkpt lat="42.93994" lon="1.80474">
        <ele>628.3</ele>
        <time>2022-08-03T16:51:20.000Z</time>
      </trkpt>
      <trkpt lat="42.93994" lon="1.80467">
        <ele>628.9</ele>
        <time>2022-08-03T16:51:25.000Z</time>
      </trkpt>
      <trkpt lat="42.93994" lon="1.8046">
        <ele>629.5</ele>
        <time>2022-08-03T16:51:30.000Z</time>
      </trkpt>
      <trkpt lat="42.93996" lon="1.80453">
        <ele>630.4</ele>
        <time>2022-08-03T16:51:36.000Z</time>
      </trkpt>
      <trkpt lat="42.93995" lon="1.80446">
        <ele>631.2</ele>
        <time>2022-08-03T16:51:42.000Z</time>
      </trkpt>
      <trkpt lat="42.93995" lon="1.8044">
        <ele>631.6</ele>
        <time>2022-08-03T16:51:46.000Z</time>
      </trkpt>
      <trkpt lat="42.93994" lon="1.80433">
        <ele>632</ele>
        <time>2022-08-03T16:51:49.000Z</time>
      </trkpt>
      <trkpt lat="42.93993" lon="1.80426">
        <ele>632.6</ele>
        <time>2022-08-03T16:51:54.000Z</time>
      </trkpt>
      <trkpt lat="42.93992" lon="1.80419">
        <ele>633.2</ele>
        <time>2022-08-03T16:51:59.000Z</time>
      </trkpt>
      <trkpt lat="42.93993" lon="1.80412">
        <ele>633.8</ele>
        <time>2022-08-03T16:52:04.000Z</time>
      </trkpt>
      <trkpt lat="42.93992" lon="1.80406">
        <ele>634.4</ele>
        <time>2022-08-03T16:52:09.000Z</time>
      </trkpt>
      <trkpt lat="42.93993" lon="1.80399">
        <ele>634.9</ele>
        <time>2022-08-03T16:52:13.000Z</time>
      </trkpt>
      <trkpt lat="42.93993" lon="1.80393">
        <ele>635.3</ele>
        <time>2022-08-03T16:52:17.000Z</time>
      </trkpt>
      <trkpt lat="42.93993" lon="1.80386">
        <ele>635.6</ele>
        <time>2022-08-03T16:52:20.000Z</time>
      </trkpt>
      <trkpt lat="42.93992" lon="1.80378">
        <ele>636.1</ele>
        <time>2022-08-03T16:52:24.000Z</time>
      </trkpt>
      <trkpt lat="42.93993" lon="1.8037">
        <ele>636.5</ele>
        <time>2022-08-03T16:52:28.000Z</time>
      </trkpt>
      <trkpt lat="42.93993" lon="1.80362">
        <ele>637</ele>
        <time>2022-08-03T16:52:32.000Z</time>
      </trkpt>
      <trkpt lat="42.93994" lon="1.80354">
        <ele>637.5</ele>
        <time>2022-08-03T16:52:37.000Z</time>
      </trkpt>
      <trkpt lat="42.93995" lon="1.80347">
        <ele>637.8</ele>
        <time>2022-08-03T16:52:40.000Z</time>
      </trkpt>
      <trkpt lat="42.93997" lon="1.8034">
        <ele>638.2</ele>
        <time>2022-08-03T16:52:43.000Z</time>
      </trkpt>
      <trkpt lat="42.93997" lon="1.80332">
        <ele>638.5</ele>
        <time>2022-08-03T16:52:46.000Z</time>
      </trkpt>
      <trkpt lat="42.93995" lon="1.80322">
        <ele>638.7</ele>
        <time>2022-08-03T16:52:48.000Z</time>
      </trkpt>
      <trkpt lat="42.93993" lon="1.80316">
        <ele>638.7</ele>
        <time>2022-08-03T16:52:49.000Z</time>
      </trkpt>
      <trkpt lat="42.93992" lon="1.80309">
        <ele>638.8</ele>
        <time>2022-08-03T16:52:50.000Z</time>
      </trkpt>
      <trkpt lat="42.93992" lon="1.80299">
        <ele>638.9</ele>
        <time>2022-08-03T16:52:52.000Z</time>
      </trkpt>
      <trkpt lat="42.93995" lon="1.80291">
        <ele>639</ele>
        <time>2022-08-03T16:52:53.000Z</time>
      </trkpt>
      <trkpt lat="42.93999" lon="1.80284">
        <ele>639</ele>
        <time>2022-08-03T16:52:54.000Z</time>
      </trkpt>
      <trkpt lat="42.94002" lon="1.80277">
        <ele>639.1</ele>
        <time>2022-08-03T16:52:55.000Z</time>
      </trkpt>
      <trkpt lat="42.94003" lon="1.80271">
        <ele>639.1</ele>
        <time>2022-08-03T16:52:56.000Z</time>
      </trkpt>
      <trkpt lat="42.94007" lon="1.80264">
        <ele>639.2</ele>
        <time>2022-08-03T16:52:57.000Z</time>
      </trkpt>
      <trkpt lat="42.94009" lon="1.80257">
        <ele>639.2</ele>
        <time>2022-08-03T16:52:58.000Z</time>
      </trkpt>
      <trkpt lat="42.9401" lon="1.80251">
        <ele>639.3</ele>
        <time>2022-08-03T16:52:59.000Z</time>
      </trkpt>
      <trkpt lat="42.94012" lon="1.80245">
        <ele>639.3</ele>
        <time>2022-08-03T16:53:00.000Z</time>
      </trkpt>
      <trkpt lat="42.94016" lon="1.8024">
        <ele>639.4</ele>
        <time>2022-08-03T16:53:01.000Z</time>
      </trkpt>
      <trkpt lat="42.9402" lon="1.80231">
        <ele>639.4</ele>
        <time>2022-08-03T16:53:03.000Z</time>
      </trkpt>
      <trkpt lat="42.94025" lon="1.80224">
        <ele>639.5</ele>
        <time>2022-08-03T16:53:05.000Z</time>
      </trkpt>
      <trkpt lat="42.9403" lon="1.80216">
        <ele>639.5</ele>
        <time>2022-08-03T16:53:07.000Z</time>
      </trkpt>
      <trkpt lat="42.94035" lon="1.80206">
        <ele>639.6</ele>
        <time>2022-08-03T16:53:09.000Z</time>
      </trkpt>
      <trkpt lat="42.94039" lon="1.80196">
        <ele>639.6</ele>
        <time>2022-08-03T16:53:11.000Z</time>
      </trkpt>
      <trkpt lat="42.94041" lon="1.8019">
        <ele>639.6</ele>
        <time>2022-08-03T16:53:12.000Z</time>
      </trkpt>
      <trkpt lat="42.94043" lon="1.80183">
        <ele>639.6</ele>
        <time>2022-08-03T16:53:13.000Z</time>
      </trkpt>
      <trkpt lat="42.94045" lon="1.80176">
        <ele>639.7</ele>
        <time>2022-08-03T16:53:14.000Z</time>
      </trkpt>
      <trkpt lat="42.94046" lon="1.80169">
        <ele>639.7</ele>
        <time>2022-08-03T16:53:15.000Z</time>
      </trkpt>
      <trkpt lat="42.94048" lon="1.80161">
        <ele>639.7</ele>
        <time>2022-08-03T16:53:16.000Z</time>
      </trkpt>
      <trkpt lat="42.9405" lon="1.80153">
        <ele>639.7</ele>
        <time>2022-08-03T16:53:17.000Z</time>
      </trkpt>
      <trkpt lat="42.94051" lon="1.80145">
        <ele>639.7</ele>
        <time>2022-08-03T16:53:18.000Z</time>
      </trkpt>
      <trkpt lat="42.94052" lon="1.80136">
        <ele>639.7</ele>
        <time>2022-08-03T16:53:19.000Z</time>
      </trkpt>
      <trkpt lat="42.94055" lon="1.80127">
        <ele>639.7</ele>
        <time>2022-08-03T16:53:20.000Z</time>
      </trkpt>
      <trkpt lat="42.94057" lon="1.80118">
        <ele>639.7</ele>
        <time>2022-08-03T16:53:21.000Z</time>
      </trkpt>
      <trkpt lat="42.94058" lon="1.8011">
        <ele>639.7</ele>
        <time>2022-08-03T16:53:22.000Z</time>
      </trkpt>
      <trkpt lat="42.94059" lon="1.80101">
        <ele>639.7</ele>
        <time>2022-08-03T16:53:23.000Z</time>
      </trkpt>
      <trkpt lat="42.9406" lon="1.80093">
        <ele>639.7</ele>
        <time>2022-08-03T16:53:24.000Z</time>
      </trkpt>
      <trkpt lat="42.94061" lon="1.80086">
        <ele>639.7</ele>
        <time>2022-08-03T16:53:25.000Z</time>
      </trkpt>
      <trkpt lat="42.94062" lon="1.80079">
        <ele>639.7</ele>
        <time>2022-08-03T16:53:26.000Z</time>
      </trkpt>
      <trkpt lat="42.94062" lon="1.80072">
        <ele>639.6</ele>
        <time>2022-08-03T16:53:27.000Z</time>
      </trkpt>
      <trkpt lat="42.94064" lon="1.80061">
        <ele>639.6</ele>
        <time>2022-08-03T16:53:29.000Z</time>
      </trkpt>
      <trkpt lat="42.94066" lon="1.80051">
        <ele>639.6</ele>
        <time>2022-08-03T16:53:31.000Z</time>
      </trkpt>
      <trkpt lat="42.94068" lon="1.8004">
        <ele>639.6</ele>
        <time>2022-08-03T16:53:33.000Z</time>
      </trkpt>
      <trkpt lat="42.9407" lon="1.80029">
        <ele>639.6</ele>
        <time>2022-08-03T16:53:35.000Z</time>
      </trkpt>
      <trkpt lat="42.9407" lon="1.80022">
        <ele>639.6</ele>
        <time>2022-08-03T16:53:36.000Z</time>
      </trkpt>
      <trkpt lat="42.94071" lon="1.80016">
        <ele>639.6</ele>
        <time>2022-08-03T16:53:37.000Z</time>
      </trkpt>
      <trkpt lat="42.94073" lon="1.80009">
        <ele>639.6</ele>
        <time>2022-08-03T16:53:38.000Z</time>
      </trkpt>
      <trkpt lat="42.94074" lon="1.80002">
        <ele>639.6</ele>
        <time>2022-08-03T16:53:39.000Z</time>
      </trkpt>
      <trkpt lat="42.94076" lon="1.79994">
        <ele>639.6</ele>
        <time>2022-08-03T16:53:40.000Z</time>
      </trkpt>
      <trkpt lat="42.94077" lon="1.79985">
        <ele>639.6</ele>
        <time>2022-08-03T16:53:41.000Z</time>
      </trkpt>
      <trkpt lat="42.94078" lon="1.79975">
        <ele>639.5</ele>
        <time>2022-08-03T16:53:42.000Z</time>
      </trkpt>
      <trkpt lat="42.94079" lon="1.79965">
        <ele>639.4</ele>
        <time>2022-08-03T16:53:43.000Z</time>
      </trkpt>
      <trkpt lat="42.94081" lon="1.79954">
        <ele>639.3</ele>
        <time>2022-08-03T16:53:44.000Z</time>
      </trkpt>
      <trkpt lat="42.94082" lon="1.79943">
        <ele>639.2</ele>
        <time>2022-08-03T16:53:45.000Z</time>
      </trkpt>
      <trkpt lat="42.94084" lon="1.79932">
        <ele>639.1</ele>
        <time>2022-08-03T16:53:46.000Z</time>
      </trkpt>
      <trkpt lat="42.94086" lon="1.79922">
        <ele>639</ele>
        <time>2022-08-03T16:53:47.000Z</time>
      </trkpt>
      <trkpt lat="42.94088" lon="1.79914">
        <ele>638.9</ele>
        <time>2022-08-03T16:53:48.000Z</time>
      </trkpt>
      <trkpt lat="42.9409" lon="1.79907">
        <ele>638.7</ele>
        <time>2022-08-03T16:53:49.000Z</time>
      </trkpt>
      <trkpt lat="42.94089" lon="1.79898">
        <ele>638.3</ele>
        <time>2022-08-03T16:53:51.000Z</time>
      </trkpt>
      <trkpt lat="42.94085" lon="1.79895">
        <ele>638</ele>
        <time>2022-08-03T16:53:53.000Z</time>
      </trkpt>
      <trkpt lat="42.9408" lon="1.79899">
        <ele>632.9</ele>
        <time>2022-08-03T16:55:31.000Z</time>
      </trkpt>
      <trkpt lat="42.94077" lon="1.79905">
        <ele>632.8</ele>
        <time>2022-08-03T16:55:33.000Z</time>
      </trkpt>
      <trkpt lat="42.94073" lon="1.79912">
        <ele>632.7</ele>
        <time>2022-08-03T16:55:35.000Z</time>
      </trkpt>
      <trkpt lat="42.94068" lon="1.7992">
        <ele>632.6</ele>
        <time>2022-08-03T16:55:37.000Z</time>
      </trkpt>
      <trkpt lat="42.94066" lon="1.79926">
        <ele>632.5</ele>
        <time>2022-08-03T16:55:38.000Z</time>
      </trkpt>
      <trkpt lat="42.94063" lon="1.79932">
        <ele>632.5</ele>
        <time>2022-08-03T16:55:39.000Z</time>
      </trkpt>
      <trkpt lat="42.9406" lon="1.79938">
        <ele>632.4</ele>
        <time>2022-08-03T16:55:40.000Z</time>
      </trkpt>
      <trkpt lat="42.94057" lon="1.79944">
        <ele>632.3</ele>
        <time>2022-08-03T16:55:41.000Z</time>
      </trkpt>
      <trkpt lat="42.94054" lon="1.79951">
        <ele>632.1</ele>
        <time>2022-08-03T16:55:42.000Z</time>
      </trkpt>
      <trkpt lat="42.9405" lon="1.79959">
        <ele>631.9</ele>
        <time>2022-08-03T16:55:43.000Z</time>
      </trkpt>
      <trkpt lat="42.94047" lon="1.79968">
        <ele>631.7</ele>
        <time>2022-08-03T16:55:44.000Z</time>
      </trkpt>
      <trkpt lat="42.94044" lon="1.79977">
        <ele>631.6</ele>
        <time>2022-08-03T16:55:45.000Z</time>
      </trkpt>
      <trkpt lat="42.94041" lon="1.79987">
        <ele>631.4</ele>
        <time>2022-08-03T16:55:46.000Z</time>
      </trkpt>
      <trkpt lat="42.94038" lon="1.79998">
        <ele>631.2</ele>
        <time>2022-08-03T16:55:47.000Z</time>
      </trkpt>
      <trkpt lat="42.94034" lon="1.80009">
        <ele>631.1</ele>
        <time>2022-08-03T16:55:48.000Z</time>
      </trkpt>
      <trkpt lat="42.9403" lon="1.8002">
        <ele>630.9</ele>
        <time>2022-08-03T16:55:49.000Z</time>
      </trkpt>
      <trkpt lat="42.94026" lon="1.80031">
        <ele>630.7</ele>
        <time>2022-08-03T16:55:50.000Z</time>
      </trkpt>
      <trkpt lat="42.94022" lon="1.80044">
        <ele>630.4</ele>
        <time>2022-08-03T16:55:51.000Z</time>
      </trkpt>
      <trkpt lat="42.94018" lon="1.80056">
        <ele>630.2</ele>
        <time>2022-08-03T16:55:52.000Z</time>
      </trkpt>
      <trkpt lat="42.94014" lon="1.80068">
        <ele>629.9</ele>
        <time>2022-08-03T16:55:53.000Z</time>
      </trkpt>
      <trkpt lat="42.94009" lon="1.8008">
        <ele>629.6</ele>
        <time>2022-08-03T16:55:54.000Z</time>
      </trkpt>
      <trkpt lat="42.94004" lon="1.80092">
        <ele>629.3</ele>
        <time>2022-08-03T16:55:55.000Z</time>
      </trkpt>
      <trkpt lat="42.93999" lon="1.80104">
        <ele>628.9</ele>
        <time>2022-08-03T16:55:56.000Z</time>
      </trkpt>
      <trkpt lat="42.93993" lon="1.80117">
        <ele>628.5</ele>
        <time>2022-08-03T16:55:57.000Z</time>
      </trkpt>
      <trkpt lat="42.93988" lon="1.80129">
        <ele>628.1</ele>
        <time>2022-08-03T16:55:58.000Z</time>
      </trkpt>
      <trkpt lat="42.93981" lon="1.80142">
        <ele>627.7</ele>
        <time>2022-08-03T16:55:59.000Z</time>
      </trkpt>
      <trkpt lat="42.93975" lon="1.80155">
        <ele>627.2</ele>
        <time>2022-08-03T16:56:00.000Z</time>
      </trkpt>
      <trkpt lat="42.93969" lon="1.80167">
        <ele>626.8</ele>
        <time>2022-08-03T16:56:01.000Z</time>
      </trkpt>
      <trkpt lat="42.93962" lon="1.80179">
        <ele>626.4</ele>
        <time>2022-08-03T16:56:02.000Z</time>
      </trkpt>
      <trkpt lat="42.93956" lon="1.8019">
        <ele>626</ele>
        <time>2022-08-03T16:56:03.000Z</time>
      </trkpt>
      <trkpt lat="42.93951" lon="1.802">
        <ele>625.5</ele>
        <time>2022-08-03T16:56:04.000Z</time>
      </trkpt>
      <trkpt lat="42.93946" lon="1.80209">
        <ele>625.1</ele>
        <time>2022-08-03T16:56:05.000Z</time>
      </trkpt>
      <trkpt lat="42.93941" lon="1.80216">
        <ele>624.7</ele>
        <time>2022-08-03T16:56:06.000Z</time>
      </trkpt>
      <trkpt lat="42.93935" lon="1.80223">
        <ele>624.3</ele>
        <time>2022-08-03T16:56:07.000Z</time>
      </trkpt>
      <trkpt lat="42.93929" lon="1.80227">
        <ele>623.8</ele>
        <time>2022-08-03T16:56:08.000Z</time>
      </trkpt>
      <trkpt lat="42.93923" lon="1.80231">
        <ele>623.3</ele>
        <time>2022-08-03T16:56:09.000Z</time>
      </trkpt>
      <trkpt lat="42.93915" lon="1.80234">
        <ele>622.9</ele>
        <time>2022-08-03T16:56:10.000Z</time>
      </trkpt>
      <trkpt lat="42.93908" lon="1.80236">
        <ele>622.5</ele>
        <time>2022-08-03T16:56:11.000Z</time>
      </trkpt>
      <trkpt lat="42.93901" lon="1.80236">
        <ele>622</ele>
        <time>2022-08-03T16:56:12.000Z</time>
      </trkpt>
      <trkpt lat="42.93893" lon="1.80234">
        <ele>621.5</ele>
        <time>2022-08-03T16:56:13.000Z</time>
      </trkpt>
      <trkpt lat="42.93886" lon="1.80231">
        <ele>621.1</ele>
        <time>2022-08-03T16:56:14.000Z</time>
      </trkpt>
      <trkpt lat="42.93879" lon="1.80226">
        <ele>620.6</ele>
        <time>2022-08-03T16:56:15.000Z</time>
      </trkpt>
      <trkpt lat="42.93874" lon="1.80221">
        <ele>620.2</ele>
        <time>2022-08-03T16:56:16.000Z</time>
      </trkpt>
      <trkpt lat="42.9387" lon="1.80216">
        <ele>619.7</ele>
        <time>2022-08-03T16:56:17.000Z</time>
      </trkpt>
      <trkpt lat="42.93867" lon="1.80208">
        <ele>619.3</ele>
        <time>2022-08-03T16:56:18.000Z</time>
      </trkpt>
      <trkpt lat="42.93865" lon="1.802">
        <ele>618.8</ele>
        <time>2022-08-03T16:56:19.000Z</time>
      </trkpt>
      <trkpt lat="42.93862" lon="1.80194">
        <ele>618.3</ele>
        <time>2022-08-03T16:56:20.000Z</time>
      </trkpt>
      <trkpt lat="42.93859" lon="1.80188">
        <ele>617.9</ele>
        <time>2022-08-03T16:56:21.000Z</time>
      </trkpt>
      <trkpt lat="42.93856" lon="1.80184">
        <ele>617.5</ele>
        <time>2022-08-03T16:56:22.000Z</time>
      </trkpt>
      <trkpt lat="42.93853" lon="1.80174">
        <ele>616.6</ele>
        <time>2022-08-03T16:56:24.000Z</time>
      </trkpt>
      <trkpt lat="42.93853" lon="1.80167">
        <ele>616.2</ele>
        <time>2022-08-03T16:56:25.000Z</time>
      </trkpt>
      <trkpt lat="42.93854" lon="1.8016">
        <ele>615.7</ele>
        <time>2022-08-03T16:56:26.000Z</time>
      </trkpt>
      <trkpt lat="42.93855" lon="1.8015">
        <ele>615.3</ele>
        <time>2022-08-03T16:56:27.000Z</time>
      </trkpt>
      <trkpt lat="42.93855" lon="1.80141">
        <ele>614.8</ele>
        <time>2022-08-03T16:56:28.000Z</time>
      </trkpt>
      <trkpt lat="42.93854" lon="1.80132">
        <ele>614.2</ele>
        <time>2022-08-03T16:56:29.000Z</time>
      </trkpt>
      <trkpt lat="42.93853" lon="1.80123">
        <ele>613.7</ele>
        <time>2022-08-03T16:56:30.000Z</time>
      </trkpt>
      <trkpt lat="42.93852" lon="1.80115">
        <ele>613.2</ele>
        <time>2022-08-03T16:56:31.000Z</time>
      </trkpt>
      <trkpt lat="42.9385" lon="1.80106">
        <ele>612.7</ele>
        <time>2022-08-03T16:56:32.000Z</time>
      </trkpt>
      <trkpt lat="42.93849" lon="1.80098">
        <ele>612.2</ele>
        <time>2022-08-03T16:56:33.000Z</time>
      </trkpt>
      <trkpt lat="42.93849" lon="1.8009">
        <ele>611.7</ele>
        <time>2022-08-03T16:56:34.000Z</time>
      </trkpt>
      <trkpt lat="42.93851" lon="1.80081">
        <ele>611.2</ele>
        <time>2022-08-03T16:56:35.000Z</time>
      </trkpt>
      <trkpt lat="42.93852" lon="1.80074">
        <ele>610.8</ele>
        <time>2022-08-03T16:56:36.000Z</time>
      </trkpt>
      <trkpt lat="42.93854" lon="1.80066">
        <ele>610.2</ele>
        <time>2022-08-03T16:56:37.000Z</time>
      </trkpt>
      <trkpt lat="42.93854" lon="1.80056">
        <ele>609.8</ele>
        <time>2022-08-03T16:56:38.000Z</time>
      </trkpt>
      <trkpt lat="42.93855" lon="1.80049">
        <ele>609.3</ele>
        <time>2022-08-03T16:56:39.000Z</time>
      </trkpt>
      <trkpt lat="42.93856" lon="1.80041">
        <ele>608.9</ele>
        <time>2022-08-03T16:56:40.000Z</time>
      </trkpt>
      <trkpt lat="42.93856" lon="1.80035">
        <ele>608.4</ele>
        <time>2022-08-03T16:56:41.000Z</time>
      </trkpt>
      <trkpt lat="42.93855" lon="1.80029">
        <ele>608</ele>
        <time>2022-08-03T16:56:42.000Z</time>
      </trkpt>
      <trkpt lat="42.93853" lon="1.80017">
        <ele>607.2</ele>
        <time>2022-08-03T16:56:44.000Z</time>
      </trkpt>
      <trkpt lat="42.93851" lon="1.80007">
        <ele>606.2</ele>
        <time>2022-08-03T16:56:46.000Z</time>
      </trkpt>
      <trkpt lat="42.93849" lon="1.79998">
        <ele>605.1</ele>
        <time>2022-08-03T16:56:48.000Z</time>
      </trkpt>
      <trkpt lat="42.93846" lon="1.7999">
        <ele>604</ele>
        <time>2022-08-03T16:56:50.000Z</time>
      </trkpt>
      <trkpt lat="42.93843" lon="1.79985">
        <ele>603.5</ele>
        <time>2022-08-03T16:56:51.000Z</time>
      </trkpt>
      <trkpt lat="42.93838" lon="1.79976">
        <ele>602.5</ele>
        <time>2022-08-03T16:56:53.000Z</time>
      </trkpt>
      <trkpt lat="42.93838" lon="1.79966">
        <ele>601.5</ele>
        <time>2022-08-03T16:56:55.000Z</time>
      </trkpt>
      <trkpt lat="42.93844" lon="1.79966">
        <ele>600</ele>
        <time>2022-08-03T16:56:58.000Z</time>
      </trkpt>
      <trkpt lat="42.93849" lon="1.79971">
        <ele>599.1</ele>
        <time>2022-08-03T16:57:00.000Z</time>
      </trkpt>
      <trkpt lat="42.93854" lon="1.79978">
        <ele>598.2</ele>
        <time>2022-08-03T16:57:02.000Z</time>
      </trkpt>
      <trkpt lat="42.93858" lon="1.79978">
        <ele>596.1</ele>
        <time>2022-08-03T16:57:07.000Z</time>
      </trkpt>
      <trkpt lat="42.9386" lon="1.79972">
        <ele>594.8</ele>
        <time>2022-08-03T16:57:10.000Z</time>
      </trkpt>
      <trkpt lat="42.93864" lon="1.79963">
        <ele>593.7</ele>
        <time>2022-08-03T16:57:12.000Z</time>
      </trkpt>
      <trkpt lat="42.93868" lon="1.79953">
        <ele>592.6</ele>
        <time>2022-08-03T16:57:14.000Z</time>
      </trkpt>
      <trkpt lat="42.93871" lon="1.79944">
        <ele>591.6</ele>
        <time>2022-08-03T16:57:16.000Z</time>
      </trkpt>
      <trkpt lat="42.93874" lon="1.79935">
        <ele>590.7</ele>
        <time>2022-08-03T16:57:18.000Z</time>
      </trkpt>
      <trkpt lat="42.93877" lon="1.79927">
        <ele>589.7</ele>
        <time>2022-08-03T16:57:20.000Z</time>
      </trkpt>
      <trkpt lat="42.93879" lon="1.79918">
        <ele>588.7</ele>
        <time>2022-08-03T16:57:22.000Z</time>
      </trkpt>
      <trkpt lat="42.93882" lon="1.79911">
        <ele>587.8</ele>
        <time>2022-08-03T16:57:24.000Z</time>
      </trkpt>
      <trkpt lat="42.93885" lon="1.79903">
        <ele>586.6</ele>
        <time>2022-08-03T16:57:26.000Z</time>
      </trkpt>
      <trkpt lat="42.93887" lon="1.79895">
        <ele>585.6</ele>
        <time>2022-08-03T16:57:28.000Z</time>
      </trkpt>
      <trkpt lat="42.93888" lon="1.79887">
        <ele>584.6</ele>
        <time>2022-08-03T16:57:30.000Z</time>
      </trkpt>
      <trkpt lat="42.93889" lon="1.7988">
        <ele>583.5</ele>
        <time>2022-08-03T16:57:32.000Z</time>
      </trkpt>
      <trkpt lat="42.9389" lon="1.79873">
        <ele>582.4</ele>
        <time>2022-08-03T16:57:34.000Z</time>
      </trkpt>
      <trkpt lat="42.9389" lon="1.79864">
        <ele>581.4</ele>
        <time>2022-08-03T16:57:36.000Z</time>
      </trkpt>
      <trkpt lat="42.93891" lon="1.79856">
        <ele>580.3</ele>
        <time>2022-08-03T16:57:38.000Z</time>
      </trkpt>
      <trkpt lat="42.9389" lon="1.79846">
        <ele>579.2</ele>
        <time>2022-08-03T16:57:40.000Z</time>
      </trkpt>
      <trkpt lat="42.93888" lon="1.79839">
        <ele>578.2</ele>
        <time>2022-08-03T16:57:42.000Z</time>
      </trkpt>
      <trkpt lat="42.93885" lon="1.79832">
        <ele>576.6</ele>
        <time>2022-08-03T16:57:45.000Z</time>
      </trkpt>
      <trkpt lat="42.93883" lon="1.79826">
        <ele>575.5</ele>
        <time>2022-08-03T16:57:47.000Z</time>
      </trkpt>
      <trkpt lat="42.93884" lon="1.79818">
        <ele>574.5</ele>
        <time>2022-08-03T16:57:49.000Z</time>
      </trkpt>
      <trkpt lat="42.93886" lon="1.79812">
        <ele>573.6</ele>
        <time>2022-08-03T16:57:51.000Z</time>
      </trkpt>
      <trkpt lat="42.93888" lon="1.79804">
        <ele>572.1</ele>
        <time>2022-08-03T16:57:54.000Z</time>
      </trkpt>
      <trkpt lat="42.93886" lon="1.79797">
        <ele>571.1</ele>
        <time>2022-08-03T16:57:56.000Z</time>
      </trkpt>
      <trkpt lat="42.93882" lon="1.79789">
        <ele>570.2</ele>
        <time>2022-08-03T16:57:58.000Z</time>
      </trkpt>
      <trkpt lat="42.93879" lon="1.79781">
        <ele>569.1</ele>
        <time>2022-08-03T16:58:00.000Z</time>
      </trkpt>
      <trkpt lat="42.93876" lon="1.79771">
        <ele>568.2</ele>
        <time>2022-08-03T16:58:02.000Z</time>
      </trkpt>
      <trkpt lat="42.93874" lon="1.79763">
        <ele>567.1</ele>
        <time>2022-08-03T16:58:04.000Z</time>
      </trkpt>
      <trkpt lat="42.93873" lon="1.79755">
        <ele>566.1</ele>
        <time>2022-08-03T16:58:06.000Z</time>
      </trkpt>
      <trkpt lat="42.93872" lon="1.79749">
        <ele>565</ele>
        <time>2022-08-03T16:58:08.000Z</time>
      </trkpt>
      <trkpt lat="42.93871" lon="1.79741">
        <ele>563.9</ele>
        <time>2022-08-03T16:58:10.000Z</time>
      </trkpt>
      <trkpt lat="42.93869" lon="1.79733">
        <ele>562.8</ele>
        <time>2022-08-03T16:58:12.000Z</time>
      </trkpt>
      <trkpt lat="42.93866" lon="1.79726">
        <ele>561.7</ele>
        <time>2022-08-03T16:58:14.000Z</time>
      </trkpt>
      <trkpt lat="42.93863" lon="1.7972">
        <ele>560.6</ele>
        <time>2022-08-03T16:58:16.000Z</time>
      </trkpt>
      <trkpt lat="42.93861" lon="1.79715">
        <ele>559.6</ele>
        <time>2022-08-03T16:58:18.000Z</time>
      </trkpt>
      <trkpt lat="42.93857" lon="1.79708">
        <ele>558</ele>
        <time>2022-08-03T16:58:21.000Z</time>
      </trkpt>
      <trkpt lat="42.93856" lon="1.797">
        <ele>557</ele>
        <time>2022-08-03T16:58:23.000Z</time>
      </trkpt>
      <trkpt lat="42.93853" lon="1.79693">
        <ele>556.5</ele>
        <time>2022-08-03T16:58:24.000Z</time>
      </trkpt>
      <trkpt lat="42.9385" lon="1.79685">
        <ele>556.1</ele>
        <time>2022-08-03T16:58:25.000Z</time>
      </trkpt>
      <trkpt lat="42.93853" lon="1.79678">
        <ele>554.7</ele>
        <time>2022-08-03T16:58:28.000Z</time>
      </trkpt>
      <trkpt lat="42.93858" lon="1.79675">
        <ele>553</ele>
        <time>2022-08-03T16:58:32.000Z</time>
      </trkpt>
      <trkpt lat="42.93859" lon="1.79669">
        <ele>544.2</ele>
        <time>2022-08-03T16:59:29.000Z</time>
      </trkpt>
      <trkpt lat="42.93853" lon="1.79666">
        <ele>544.1</ele>
        <time>2022-08-03T16:59:32.000Z</time>
      </trkpt>
      <trkpt lat="42.93848" lon="1.79664">
        <ele>544.1</ele>
        <time>2022-08-03T16:59:33.000Z</time>
      </trkpt>
      <trkpt lat="42.93842" lon="1.79662">
        <ele>544.1</ele>
        <time>2022-08-03T16:59:34.000Z</time>
      </trkpt>
      <trkpt lat="42.93836" lon="1.7966">
        <ele>544.1</ele>
        <time>2022-08-03T16:59:35.000Z</time>
      </trkpt>
      <trkpt lat="42.93829" lon="1.79655">
        <ele>544.1</ele>
        <time>2022-08-03T16:59:37.000Z</time>
      </trkpt>
      <trkpt lat="42.93824" lon="1.79653">
        <ele>544.1</ele>
        <time>2022-08-03T16:59:39.000Z</time>
      </trkpt>
      <trkpt lat="42.93818" lon="1.79648">
        <ele>544</ele>
        <time>2022-08-03T16:59:41.000Z</time>
      </trkpt>
      <trkpt lat="42.93813" lon="1.79644">
        <ele>544</ele>
        <time>2022-08-03T16:59:43.000Z</time>
      </trkpt>
      <trkpt lat="42.93807" lon="1.79639">
        <ele>544</ele>
        <time>2022-08-03T16:59:45.000Z</time>
      </trkpt>
      <trkpt lat="42.938" lon="1.79635">
        <ele>544</ele>
        <time>2022-08-03T16:59:47.000Z</time>
      </trkpt>
      <trkpt lat="42.93792" lon="1.79632">
        <ele>543.9</ele>
        <time>2022-08-03T16:59:49.000Z</time>
      </trkpt>
      <trkpt lat="42.93785" lon="1.79629">
        <ele>543.8</ele>
        <time>2022-08-03T16:59:51.000Z</time>
      </trkpt>
      <trkpt lat="42.93778" lon="1.79627">
        <ele>543.8</ele>
        <time>2022-08-03T16:59:53.000Z</time>
      </trkpt>
      <trkpt lat="42.93772" lon="1.79628">
        <ele>543.8</ele>
        <time>2022-08-03T16:59:55.000Z</time>
      </trkpt>
      <trkpt lat="42.93763" lon="1.79627">
        <ele>543.8</ele>
        <time>2022-08-03T16:59:57.000Z</time>
      </trkpt>
      <trkpt lat="42.93756" lon="1.79627">
        <ele>543.8</ele>
        <time>2022-08-03T16:59:59.000Z</time>
      </trkpt>
      <trkpt lat="42.93749" lon="1.79627">
        <ele>543.8</ele>
        <time>2022-08-03T17:00:01.000Z</time>
      </trkpt>
      <trkpt lat="42.93741" lon="1.79625">
        <ele>543.8</ele>
        <time>2022-08-03T17:00:03.000Z</time>
      </trkpt>
      <trkpt lat="42.93736" lon="1.79623">
        <ele>543.8</ele>
        <time>2022-08-03T17:00:04.000Z</time>
      </trkpt>
      <trkpt lat="42.93728" lon="1.7962">
        <ele>543.8</ele>
        <time>2022-08-03T17:00:06.000Z</time>
      </trkpt>
      <trkpt lat="42.93724" lon="1.79617">
        <ele>543.9</ele>
        <time>2022-08-03T17:00:07.000Z</time>
      </trkpt>
      <trkpt lat="42.93716" lon="1.79613">
        <ele>543.9</ele>
        <time>2022-08-03T17:00:09.000Z</time>
      </trkpt>
      <trkpt lat="42.93708" lon="1.7961">
        <ele>544</ele>
        <time>2022-08-03T17:00:11.000Z</time>
      </trkpt>
      <trkpt lat="42.937" lon="1.79607">
        <ele>544</ele>
        <time>2022-08-03T17:00:13.000Z</time>
      </trkpt>
      <trkpt lat="42.93692" lon="1.79603">
        <ele>544.1</ele>
        <time>2022-08-03T17:00:15.000Z</time>
      </trkpt>
      <trkpt lat="42.93687" lon="1.79601">
        <ele>544.1</ele>
        <time>2022-08-03T17:00:16.000Z</time>
      </trkpt>
      <trkpt lat="42.93683" lon="1.79599">
        <ele>544.1</ele>
        <time>2022-08-03T17:00:17.000Z</time>
      </trkpt>
      <trkpt lat="42.93679" lon="1.79595">
        <ele>544.2</ele>
        <time>2022-08-03T17:00:18.000Z</time>
      </trkpt>
      <trkpt lat="42.93674" lon="1.79593">
        <ele>544.2</ele>
        <time>2022-08-03T17:00:19.000Z</time>
      </trkpt>
      <trkpt lat="42.93666" lon="1.79591">
        <ele>544.1</ele>
        <time>2022-08-03T17:00:21.000Z</time>
      </trkpt>
      <trkpt lat="42.93661" lon="1.79589">
        <ele>544.1</ele>
        <time>2022-08-03T17:00:22.000Z</time>
      </trkpt>
      <trkpt lat="42.93657" lon="1.79587">
        <ele>544.1</ele>
        <time>2022-08-03T17:00:23.000Z</time>
      </trkpt>
      <trkpt lat="42.93652" lon="1.79585">
        <ele>544.1</ele>
        <time>2022-08-03T17:00:24.000Z</time>
      </trkpt>
      <trkpt lat="42.93646" lon="1.79583">
        <ele>544.1</ele>
        <time>2022-08-03T17:00:25.000Z</time>
      </trkpt>
      <trkpt lat="42.93642" lon="1.79581">
        <ele>544.1</ele>
        <time>2022-08-03T17:00:26.000Z</time>
      </trkpt>
      <trkpt lat="42.93634" lon="1.79576">
        <ele>544.1</ele>
        <time>2022-08-03T17:00:28.000Z</time>
      </trkpt>
      <trkpt lat="42.93626" lon="1.79572">
        <ele>544.1</ele>
        <time>2022-08-03T17:00:30.000Z</time>
      </trkpt>
      <trkpt lat="42.93618" lon="1.79566">
        <ele>544.1</ele>
        <time>2022-08-03T17:00:32.000Z</time>
      </trkpt>
      <trkpt lat="42.93614" lon="1.79563">
        <ele>544.2</ele>
        <time>2022-08-03T17:00:33.000Z</time>
      </trkpt>
      <trkpt lat="42.9361" lon="1.7956">
        <ele>544.2</ele>
        <time>2022-08-03T17:00:34.000Z</time>
      </trkpt>
      <trkpt lat="42.93604" lon="1.79558">
        <ele>544.2</ele>
        <time>2022-08-03T17:00:35.000Z</time>
      </trkpt>
      <trkpt lat="42.93598" lon="1.79555">
        <ele>544.3</ele>
        <time>2022-08-03T17:00:36.000Z</time>
      </trkpt>
      <trkpt lat="42.9359" lon="1.79555">
        <ele>544.4</ele>
        <time>2022-08-03T17:00:38.000Z</time>
      </trkpt>
      <trkpt lat="42.93583" lon="1.79559">
        <ele>544.5</ele>
        <time>2022-08-03T17:00:40.000Z</time>
      </trkpt>
      <trkpt lat="42.93576" lon="1.79563">
        <ele>544.6</ele>
        <time>2022-08-03T17:00:42.000Z</time>
      </trkpt>
      <trkpt lat="42.93569" lon="1.79566">
        <ele>544.7</ele>
        <time>2022-08-03T17:00:44.000Z</time>
      </trkpt>
      <trkpt lat="42.93562" lon="1.79566">
        <ele>544.8</ele>
        <time>2022-08-03T17:00:46.000Z</time>
      </trkpt>
      <trkpt lat="42.93555" lon="1.79566">
        <ele>544.9</ele>
        <time>2022-08-03T17:00:48.000Z</time>
      </trkpt>
      <trkpt lat="42.93548" lon="1.79566">
        <ele>545</ele>
        <time>2022-08-03T17:00:50.000Z</time>
      </trkpt>
      <trkpt lat="42.9354" lon="1.79566">
        <ele>545.1</ele>
        <time>2022-08-03T17:00:52.000Z</time>
      </trkpt>
      <trkpt lat="42.93531" lon="1.79565">
        <ele>545.2</ele>
        <time>2022-08-03T17:00:54.000Z</time>
      </trkpt>
      <trkpt lat="42.93523" lon="1.79563">
        <ele>545.2</ele>
        <time>2022-08-03T17:00:56.000Z</time>
      </trkpt>
      <trkpt lat="42.93514" lon="1.7956">
        <ele>545.3</ele>
        <time>2022-08-03T17:00:58.000Z</time>
      </trkpt>
      <trkpt lat="42.93507" lon="1.79557">
        <ele>545.4</ele>
        <time>2022-08-03T17:01:00.000Z</time>
      </trkpt>
      <trkpt lat="42.93498" lon="1.79553">
        <ele>545.4</ele>
        <time>2022-08-03T17:01:02.000Z</time>
      </trkpt>
      <trkpt lat="42.93494" lon="1.7955">
        <ele>545.4</ele>
        <time>2022-08-03T17:01:03.000Z</time>
      </trkpt>
      <trkpt lat="42.9349" lon="1.79548">
        <ele>545.6</ele>
        <time>2022-08-03T17:01:04.000Z</time>
      </trkpt>
      <trkpt lat="42.93481" lon="1.79544">
        <ele>545.8</ele>
        <time>2022-08-03T17:01:06.000Z</time>
      </trkpt>
      <trkpt lat="42.93473" lon="1.7954">
        <ele>545.9</ele>
        <time>2022-08-03T17:01:08.000Z</time>
      </trkpt>
      <trkpt lat="42.93465" lon="1.79537">
        <ele>546</ele>
        <time>2022-08-03T17:01:10.000Z</time>
      </trkpt>
      <trkpt lat="42.93458" lon="1.79532">
        <ele>546.1</ele>
        <time>2022-08-03T17:01:12.000Z</time>
      </trkpt>
      <trkpt lat="42.93453" lon="1.7953">
        <ele>546.1</ele>
        <time>2022-08-03T17:01:13.000Z</time>
      </trkpt>
      <trkpt lat="42.93446" lon="1.79526">
        <ele>546.2</ele>
        <time>2022-08-03T17:01:15.000Z</time>
      </trkpt>
      <trkpt lat="42.93438" lon="1.79522">
        <ele>546.3</ele>
        <time>2022-08-03T17:01:17.000Z</time>
      </trkpt>
      <trkpt lat="42.9343" lon="1.79518">
        <ele>546.4</ele>
        <time>2022-08-03T17:01:19.000Z</time>
      </trkpt>
      <trkpt lat="42.93422" lon="1.79513">
        <ele>546.4</ele>
        <time>2022-08-03T17:01:21.000Z</time>
      </trkpt>
      <trkpt lat="42.93418" lon="1.79511">
        <ele>546.4</ele>
        <time>2022-08-03T17:01:22.000Z</time>
      </trkpt>
      <trkpt lat="42.93413" lon="1.7951">
        <ele>546.5</ele>
        <time>2022-08-03T17:01:23.000Z</time>
      </trkpt>
      <trkpt lat="42.93408" lon="1.79509">
        <ele>546.5</ele>
        <time>2022-08-03T17:01:24.000Z</time>
      </trkpt>
      <trkpt lat="42.93403" lon="1.79509">
        <ele>546.5</ele>
        <time>2022-08-03T17:01:25.000Z</time>
      </trkpt>
      <trkpt lat="42.93399" lon="1.79508">
        <ele>546.5</ele>
        <time>2022-08-03T17:01:26.000Z</time>
      </trkpt>
      <trkpt lat="42.93394" lon="1.79507">
        <ele>546.6</ele>
        <time>2022-08-03T17:01:27.000Z</time>
      </trkpt>
      <trkpt lat="42.9339" lon="1.79507">
        <ele>546.6</ele>
        <time>2022-08-03T17:01:28.000Z</time>
      </trkpt>
      <trkpt lat="42.93385" lon="1.79507">
        <ele>546.6</ele>
        <time>2022-08-03T17:01:29.000Z</time>
      </trkpt>
      <trkpt lat="42.93377" lon="1.79508">
        <ele>546.7</ele>
        <time>2022-08-03T17:01:31.000Z</time>
      </trkpt>
      <trkpt lat="42.93368" lon="1.7951">
        <ele>546.7</ele>
        <time>2022-08-03T17:01:33.000Z</time>
      </trkpt>
      <trkpt lat="42.9336" lon="1.79512">
        <ele>546.8</ele>
        <time>2022-08-03T17:01:35.000Z</time>
      </trkpt>
      <trkpt lat="42.93356" lon="1.79514">
        <ele>546.8</ele>
        <time>2022-08-03T17:01:36.000Z</time>
      </trkpt>
      <trkpt lat="42.9335" lon="1.79515">
        <ele>546.9</ele>
        <time>2022-08-03T17:01:37.000Z</time>
      </trkpt>
      <trkpt lat="42.93344" lon="1.79515">
        <ele>546.9</ele>
        <time>2022-08-03T17:01:38.000Z</time>
      </trkpt>
      <trkpt lat="42.9334" lon="1.79516">
        <ele>546.9</ele>
        <time>2022-08-03T17:01:39.000Z</time>
      </trkpt>
      <trkpt lat="42.93335" lon="1.79516">
        <ele>547</ele>
        <time>2022-08-03T17:01:40.000Z</time>
      </trkpt>
      <trkpt lat="42.9333" lon="1.79515">
        <ele>547</ele>
        <time>2022-08-03T17:01:41.000Z</time>
      </trkpt>
      <trkpt lat="42.93325" lon="1.79514">
        <ele>547</ele>
        <time>2022-08-03T17:01:42.000Z</time>
      </trkpt>
      <trkpt lat="42.9332" lon="1.79513">
        <ele>547.1</ele>
        <time>2022-08-03T17:01:43.000Z</time>
      </trkpt>
      <trkpt lat="42.93315" lon="1.79513">
        <ele>547.1</ele>
        <time>2022-08-03T17:01:44.000Z</time>
      </trkpt>
      <trkpt lat="42.9331" lon="1.79513">
        <ele>547.2</ele>
        <time>2022-08-03T17:01:45.000Z</time>
      </trkpt>
      <trkpt lat="42.93301" lon="1.79513">
        <ele>547.3</ele>
        <time>2022-08-03T17:01:47.000Z</time>
      </trkpt>
      <trkpt lat="42.93297" lon="1.79512">
        <ele>547.3</ele>
        <time>2022-08-03T17:01:48.000Z</time>
      </trkpt>
      <trkpt lat="42.93292" lon="1.7951">
        <ele>547.3</ele>
        <time>2022-08-03T17:01:49.000Z</time>
      </trkpt>
      <trkpt lat="42.93285" lon="1.79507">
        <ele>547.4</ele>
        <time>2022-08-03T17:01:51.000Z</time>
      </trkpt>
      <trkpt lat="42.9328" lon="1.79505">
        <ele>547.4</ele>
        <time>2022-08-03T17:01:52.000Z</time>
      </trkpt>
      <trkpt lat="42.93275" lon="1.79504">
        <ele>547.5</ele>
        <time>2022-08-03T17:01:53.000Z</time>
      </trkpt>
      <trkpt lat="42.93271" lon="1.79503">
        <ele>547.5</ele>
        <time>2022-08-03T17:01:54.000Z</time>
      </trkpt>
      <trkpt lat="42.93266" lon="1.79502">
        <ele>547.5</ele>
        <time>2022-08-03T17:01:55.000Z</time>
      </trkpt>
      <trkpt lat="42.9326" lon="1.79501">
        <ele>547.5</ele>
        <time>2022-08-03T17:01:56.000Z</time>
      </trkpt>
      <trkpt lat="42.93255" lon="1.795">
        <ele>547.6</ele>
        <time>2022-08-03T17:01:57.000Z</time>
      </trkpt>
      <trkpt lat="42.9325" lon="1.795">
        <ele>547.6</ele>
        <time>2022-08-03T17:01:58.000Z</time>
      </trkpt>
      <trkpt lat="42.93243" lon="1.79506">
        <ele>547.6</ele>
        <time>2022-08-03T17:02:00.000Z</time>
      </trkpt>
      <trkpt lat="42.93241" lon="1.79513">
        <ele>547.6</ele>
        <time>2022-08-03T17:02:01.000Z</time>
      </trkpt>
      <trkpt lat="42.93239" lon="1.7952">
        <ele>547.6</ele>
        <time>2022-08-03T17:02:02.000Z</time>
      </trkpt>
      <trkpt lat="42.93237" lon="1.79526">
        <ele>547.7</ele>
        <time>2022-08-03T17:02:03.000Z</time>
      </trkpt>
      <trkpt lat="42.93235" lon="1.79532">
        <ele>547.7</ele>
        <time>2022-08-03T17:02:04.000Z</time>
      </trkpt>
      <trkpt lat="42.93234" lon="1.79538">
        <ele>547.7</ele>
        <time>2022-08-03T17:02:05.000Z</time>
      </trkpt>
      <trkpt lat="42.93231" lon="1.79544">
        <ele>547.8</ele>
        <time>2022-08-03T17:02:06.000Z</time>
      </trkpt>
      <trkpt lat="42.93227" lon="1.79548">
        <ele>547.9</ele>
        <time>2022-08-03T17:02:07.000Z</time>
      </trkpt>
      <trkpt lat="42.93221" lon="1.79549">
        <ele>548</ele>
        <time>2022-08-03T17:02:08.000Z</time>
      </trkpt>
      <trkpt lat="42.93218" lon="1.79554">
        <ele>548</ele>
        <time>2022-08-03T17:02:09.000Z</time>
      </trkpt>
      <trkpt lat="42.93213" lon="1.79558">
        <ele>548.1</ele>
        <time>2022-08-03T17:02:10.000Z</time>
      </trkpt>
      <trkpt lat="42.93206" lon="1.79564">
        <ele>548.1</ele>
        <time>2022-08-03T17:02:12.000Z</time>
      </trkpt>
      <trkpt lat="42.93201" lon="1.79566">
        <ele>548.1</ele>
        <time>2022-08-03T17:02:13.000Z</time>
      </trkpt>
      <trkpt lat="42.93196" lon="1.79569">
        <ele>548.1</ele>
        <time>2022-08-03T17:02:14.000Z</time>
      </trkpt>
      <trkpt lat="42.93192" lon="1.79573">
        <ele>548.2</ele>
        <time>2022-08-03T17:02:15.000Z</time>
      </trkpt>
      <trkpt lat="42.93187" lon="1.79577">
        <ele>548.2</ele>
        <time>2022-08-03T17:02:16.000Z</time>
      </trkpt>
      <trkpt lat="42.93183" lon="1.79582">
        <ele>548.3</ele>
        <time>2022-08-03T17:02:17.000Z</time>
      </trkpt>
      <trkpt lat="42.93179" lon="1.79587">
        <ele>548.4</ele>
        <time>2022-08-03T17:02:18.000Z</time>
      </trkpt>
      <trkpt lat="42.93176" lon="1.79592">
        <ele>548.4</ele>
        <time>2022-08-03T17:02:19.000Z</time>
      </trkpt>
      <trkpt lat="42.93172" lon="1.79595">
        <ele>548.5</ele>
        <time>2022-08-03T17:02:20.000Z</time>
      </trkpt>
      <trkpt lat="42.93167" lon="1.79598">
        <ele>548.5</ele>
        <time>2022-08-03T17:02:21.000Z</time>
      </trkpt>
      <trkpt lat="42.93162" lon="1.79599">
        <ele>548.6</ele>
        <time>2022-08-03T17:02:22.000Z</time>
      </trkpt>
      <trkpt lat="42.93156" lon="1.796">
        <ele>548.7</ele>
        <time>2022-08-03T17:02:23.000Z</time>
      </trkpt>
      <trkpt lat="42.9315" lon="1.79599">
        <ele>548.7</ele>
        <time>2022-08-03T17:02:24.000Z</time>
      </trkpt>
      <trkpt lat="42.93145" lon="1.79597">
        <ele>548.8</ele>
        <time>2022-08-03T17:02:25.000Z</time>
      </trkpt>
      <trkpt lat="42.93139" lon="1.79595">
        <ele>548.8</ele>
        <time>2022-08-03T17:02:26.000Z</time>
      </trkpt>
      <trkpt lat="42.93134" lon="1.79594">
        <ele>548.9</ele>
        <time>2022-08-03T17:02:27.000Z</time>
      </trkpt>
      <trkpt lat="42.93128" lon="1.79593">
        <ele>548.9</ele>
        <time>2022-08-03T17:02:28.000Z</time>
      </trkpt>
      <trkpt lat="42.93122" lon="1.79592">
        <ele>549</ele>
        <time>2022-08-03T17:02:29.000Z</time>
      </trkpt>
      <trkpt lat="42.93117" lon="1.79591">
        <ele>549</ele>
        <time>2022-08-03T17:02:30.000Z</time>
      </trkpt>
      <trkpt lat="42.93111" lon="1.7959">
        <ele>549</ele>
        <time>2022-08-03T17:02:31.000Z</time>
      </trkpt>
      <trkpt lat="42.93106" lon="1.79589">
        <ele>549</ele>
        <time>2022-08-03T17:02:32.000Z</time>
      </trkpt>
      <trkpt lat="42.931" lon="1.79588">
        <ele>549.1</ele>
        <time>2022-08-03T17:02:33.000Z</time>
      </trkpt>
      <trkpt lat="42.93094" lon="1.79586">
        <ele>549.1</ele>
        <time>2022-08-03T17:02:34.000Z</time>
      </trkpt>
      <trkpt lat="42.93087" lon="1.79584">
        <ele>549.1</ele>
        <time>2022-08-03T17:02:35.000Z</time>
      </trkpt>
      <trkpt lat="42.93082" lon="1.79583">
        <ele>549.1</ele>
        <time>2022-08-03T17:02:36.000Z</time>
      </trkpt>
      <trkpt lat="42.93077" lon="1.79583">
        <ele>549.1</ele>
        <time>2022-08-03T17:02:37.000Z</time>
      </trkpt>
      <trkpt lat="42.93072" lon="1.79582">
        <ele>549.1</ele>
        <time>2022-08-03T17:02:38.000Z</time>
      </trkpt>
      <trkpt lat="42.93064" lon="1.7958">
        <ele>549.1</ele>
        <time>2022-08-03T17:02:40.000Z</time>
      </trkpt>
      <trkpt lat="42.93058" lon="1.79575">
        <ele>549.1</ele>
        <time>2022-08-03T17:02:42.000Z</time>
      </trkpt>
      <trkpt lat="42.93054" lon="1.79572">
        <ele>549</ele>
        <time>2022-08-03T17:02:44.000Z</time>
      </trkpt>
      <trkpt lat="42.9305" lon="1.79567">
        <ele>548.8</ele>
        <time>2022-08-03T17:02:46.000Z</time>
      </trkpt>
      <trkpt lat="42.93046" lon="1.79563">
        <ele>548.6</ele>
        <time>2022-08-03T17:02:48.000Z</time>
      </trkpt>
      <trkpt lat="42.93041" lon="1.79559">
        <ele>548.1</ele>
        <time>2022-08-03T17:02:51.000Z</time>
      </trkpt>
      <trkpt lat="42.93037" lon="1.79557">
        <ele>547.5</ele>
        <time>2022-08-03T17:02:54.000Z</time>
      </trkpt>
      <trkpt lat="42.93031" lon="1.79557">
        <ele>547.1</ele>
        <time>2022-08-03T17:02:56.000Z</time>
      </trkpt>
      <trkpt lat="42.93022" lon="1.79556">
        <ele>546.6</ele>
        <time>2022-08-03T17:02:58.000Z</time>
      </trkpt>
      <trkpt lat="42.93017" lon="1.79556">
        <ele>546.3</ele>
        <time>2022-08-03T17:02:59.000Z</time>
      </trkpt>
      <trkpt lat="42.93012" lon="1.79556">
        <ele>545.9</ele>
        <time>2022-08-03T17:03:00.000Z</time>
      </trkpt>
      <trkpt lat="42.93004" lon="1.79557">
        <ele>545.1</ele>
        <time>2022-08-03T17:03:02.000Z</time>
      </trkpt>
      <trkpt lat="42.93" lon="1.79559">
        <ele>544.7</ele>
        <time>2022-08-03T17:03:03.000Z</time>
      </trkpt>
      <trkpt lat="42.92995" lon="1.79561">
        <ele>544.3</ele>
        <time>2022-08-03T17:03:04.000Z</time>
      </trkpt>
      <trkpt lat="42.9299" lon="1.79564">
        <ele>543.9</ele>
        <time>2022-08-03T17:03:05.000Z</time>
      </trkpt>
      <trkpt lat="42.92985" lon="1.79566">
        <ele>543.5</ele>
        <time>2022-08-03T17:03:06.000Z</time>
      </trkpt>
      <trkpt lat="42.9298" lon="1.79568">
        <ele>543.1</ele>
        <time>2022-08-03T17:03:07.000Z</time>
      </trkpt>
      <trkpt lat="42.92975" lon="1.79569">
        <ele>542.8</ele>
        <time>2022-08-03T17:03:08.000Z</time>
      </trkpt>
      <trkpt lat="42.92969" lon="1.79568">
        <ele>542.5</ele>
        <time>2022-08-03T17:03:09.000Z</time>
      </trkpt>
      <trkpt lat="42.92963" lon="1.79569">
        <ele>542.2</ele>
        <time>2022-08-03T17:03:10.000Z</time>
      </trkpt>
      <trkpt lat="42.92958" lon="1.79569">
        <ele>541.9</ele>
        <time>2022-08-03T17:03:11.000Z</time>
      </trkpt>
      <trkpt lat="42.92953" lon="1.7957">
        <ele>541.7</ele>
        <time>2022-08-03T17:03:12.000Z</time>
      </trkpt>
      <trkpt lat="42.92949" lon="1.79571">
        <ele>541.4</ele>
        <time>2022-08-03T17:03:13.000Z</time>
      </trkpt>
      <trkpt lat="42.92944" lon="1.79573">
        <ele>541.2</ele>
        <time>2022-08-03T17:03:14.000Z</time>
      </trkpt>
      <trkpt lat="42.92939" lon="1.79574">
        <ele>540.9</ele>
        <time>2022-08-03T17:03:15.000Z</time>
      </trkpt>
      <trkpt lat="42.92933" lon="1.79575">
        <ele>540.6</ele>
        <time>2022-08-03T17:03:16.000Z</time>
      </trkpt>
      <trkpt lat="42.92928" lon="1.79575">
        <ele>540.3</ele>
        <time>2022-08-03T17:03:17.000Z</time>
      </trkpt>
      <trkpt lat="42.92923" lon="1.79575">
        <ele>540.1</ele>
        <time>2022-08-03T17:03:18.000Z</time>
      </trkpt>
      <trkpt lat="42.92918" lon="1.79575">
        <ele>539.9</ele>
        <time>2022-08-03T17:03:19.000Z</time>
      </trkpt>
      <trkpt lat="42.92911" lon="1.79573">
        <ele>539.5</ele>
        <time>2022-08-03T17:03:21.000Z</time>
      </trkpt>
      <trkpt lat="42.92906" lon="1.79573">
        <ele>539.2</ele>
        <time>2022-08-03T17:03:23.000Z</time>
      </trkpt>
      <trkpt lat="42.929" lon="1.79573">
        <ele>539</ele>
        <time>2022-08-03T17:03:25.000Z</time>
      </trkpt>
      <trkpt lat="42.92895" lon="1.79571">
        <ele>538.8</ele>
        <time>2022-08-03T17:03:28.000Z</time>
      </trkpt>
      <trkpt lat="42.9289" lon="1.7957">
        <ele>538.7</ele>
        <time>2022-08-03T17:03:31.000Z</time>
      </trkpt>
      <trkpt lat="42.92885" lon="1.79571">
        <ele>538.8</ele>
        <time>2022-08-03T17:03:34.000Z</time>
      </trkpt>
      <trkpt lat="42.92877" lon="1.79571">
        <ele>538.8</ele>
        <time>2022-08-03T17:03:37.000Z</time>
      </trkpt>
      <trkpt lat="42.92871" lon="1.79571">
        <ele>538.9</ele>
        <time>2022-08-03T17:03:39.000Z</time>
      </trkpt>
      <trkpt lat="42.92863" lon="1.79572">
        <ele>539</ele>
        <time>2022-08-03T17:03:41.000Z</time>
      </trkpt>
      <trkpt lat="42.92857" lon="1.79574">
        <ele>539</ele>
        <time>2022-08-03T17:03:43.000Z</time>
      </trkpt>
      <trkpt lat="42.92852" lon="1.79574">
        <ele>539.1</ele>
        <time>2022-08-03T17:03:45.000Z</time>
      </trkpt>
      <trkpt lat="42.92847" lon="1.79576">
        <ele>539.3</ele>
        <time>2022-08-03T17:03:47.000Z</time>
      </trkpt>
      <trkpt lat="42.92842" lon="1.79577">
        <ele>539.4</ele>
        <time>2022-08-03T17:03:49.000Z</time>
      </trkpt>
      <trkpt lat="42.92836" lon="1.79577">
        <ele>539.5</ele>
        <time>2022-08-03T17:03:52.000Z</time>
      </trkpt>
      <trkpt lat="42.9283" lon="1.79578">
        <ele>539.6</ele>
        <time>2022-08-03T17:03:55.000Z</time>
      </trkpt>
      <trkpt lat="42.92824" lon="1.79578">
        <ele>539.8</ele>
        <time>2022-08-03T17:03:58.000Z</time>
      </trkpt>
      <trkpt lat="42.92818" lon="1.79579">
        <ele>540.1</ele>
        <time>2022-08-03T17:04:01.000Z</time>
      </trkpt>
      <trkpt lat="42.92812" lon="1.79579">
        <ele>540.3</ele>
        <time>2022-08-03T17:04:04.000Z</time>
      </trkpt>
      <trkpt lat="42.92806" lon="1.79577">
        <ele>540.5</ele>
        <time>2022-08-03T17:04:07.000Z</time>
      </trkpt>
      <trkpt lat="42.928" lon="1.79573">
        <ele>540.8</ele>
        <time>2022-08-03T17:04:10.000Z</time>
      </trkpt>
      <trkpt lat="42.92796" lon="1.79571">
        <ele>541</ele>
        <time>2022-08-03T17:04:12.000Z</time>
      </trkpt>
      <trkpt lat="42.92789" lon="1.79572">
        <ele>541.2</ele>
        <time>2022-08-03T17:04:15.000Z</time>
      </trkpt>
      <trkpt lat="42.92783" lon="1.79572">
        <ele>541.5</ele>
        <time>2022-08-03T17:04:18.000Z</time>
      </trkpt>
      <trkpt lat="42.92777" lon="1.79569">
        <ele>541.8</ele>
        <time>2022-08-03T17:04:21.000Z</time>
      </trkpt>
      <trkpt lat="42.92771" lon="1.79569">
        <ele>542.1</ele>
        <time>2022-08-03T17:04:24.000Z</time>
      </trkpt>
      <trkpt lat="42.92765" lon="1.79569">
        <ele>542.4</ele>
        <time>2022-08-03T17:04:27.000Z</time>
      </trkpt>
      <trkpt lat="42.92759" lon="1.79568">
        <ele>542.8</ele>
        <time>2022-08-03T17:04:30.000Z</time>
      </trkpt>
      <trkpt lat="42.92754" lon="1.79568">
        <ele>543.2</ele>
        <time>2022-08-03T17:04:33.000Z</time>
      </trkpt>
      <trkpt lat="42.92748" lon="1.79569">
        <ele>543.6</ele>
        <time>2022-08-03T17:04:36.000Z</time>
      </trkpt>
      <trkpt lat="42.92743" lon="1.79572">
        <ele>543.9</ele>
        <time>2022-08-03T17:04:39.000Z</time>
      </trkpt>
      <trkpt lat="42.92738" lon="1.79573">
        <ele>544.2</ele>
        <time>2022-08-03T17:04:42.000Z</time>
      </trkpt>
      <trkpt lat="42.92733" lon="1.79577">
        <ele>544.5</ele>
        <time>2022-08-03T17:04:45.000Z</time>
      </trkpt>
      <trkpt lat="42.92728" lon="1.79578">
        <ele>544.7</ele>
        <time>2022-08-03T17:04:48.000Z</time>
      </trkpt>
      <trkpt lat="42.92721" lon="1.79579">
        <ele>544.9</ele>
        <time>2022-08-03T17:04:51.000Z</time>
      </trkpt>
      <trkpt lat="42.92715" lon="1.79577">
        <ele>545.1</ele>
        <time>2022-08-03T17:04:53.000Z</time>
      </trkpt>
      <trkpt lat="42.9271" lon="1.79574">
        <ele>545.2</ele>
        <time>2022-08-03T17:04:55.000Z</time>
      </trkpt>
      <trkpt lat="42.92706" lon="1.7957">
        <ele>545.4</ele>
        <time>2022-08-03T17:04:57.000Z</time>
      </trkpt>
      <trkpt lat="42.92701" lon="1.79567">
        <ele>545.7</ele>
        <time>2022-08-03T17:04:59.000Z</time>
      </trkpt>
      <trkpt lat="42.92695" lon="1.79562">
        <ele>545.9</ele>
        <time>2022-08-03T17:05:01.000Z</time>
      </trkpt>
      <trkpt lat="42.92689" lon="1.79558">
        <ele>546.1</ele>
        <time>2022-08-03T17:05:03.000Z</time>
      </trkpt>
      <trkpt lat="42.92682" lon="1.79554">
        <ele>546.3</ele>
        <time>2022-08-03T17:05:05.000Z</time>
      </trkpt>
      <trkpt lat="42.92675" lon="1.79549">
        <ele>546.5</ele>
        <time>2022-08-03T17:05:07.000Z</time>
      </trkpt>
      <trkpt lat="42.9267" lon="1.79543">
        <ele>546.6</ele>
        <time>2022-08-03T17:05:09.000Z</time>
      </trkpt>
      <trkpt lat="42.92666" lon="1.79535">
        <ele>546.8</ele>
        <time>2022-08-03T17:05:11.000Z</time>
      </trkpt>
      <trkpt lat="42.9266" lon="1.79529">
        <ele>546.9</ele>
        <time>2022-08-03T17:05:13.000Z</time>
      </trkpt>
      <trkpt lat="42.92653" lon="1.79525">
        <ele>547</ele>
        <time>2022-08-03T17:05:15.000Z</time>
      </trkpt>
      <trkpt lat="42.92646" lon="1.7952">
        <ele>547.1</ele>
        <time>2022-08-03T17:05:17.000Z</time>
      </trkpt>
      <trkpt lat="42.92639" lon="1.79514">
        <ele>547.1</ele>
        <time>2022-08-03T17:05:19.000Z</time>
      </trkpt>
      <trkpt lat="42.92634" lon="1.79508">
        <ele>547.2</ele>
        <time>2022-08-03T17:05:21.000Z</time>
      </trkpt>
      <trkpt lat="42.92629" lon="1.79502">
        <ele>547.3</ele>
        <time>2022-08-03T17:05:23.000Z</time>
      </trkpt>
      <trkpt lat="42.92625" lon="1.79498">
        <ele>547.3</ele>
        <time>2022-08-03T17:05:25.000Z</time>
      </trkpt>
      <trkpt lat="42.92621" lon="1.79494">
        <ele>547.4</ele>
        <time>2022-08-03T17:05:27.000Z</time>
      </trkpt>
      <trkpt lat="42.92616" lon="1.79491">
        <ele>548.7</ele>
        <time>2022-08-03T17:06:41.000Z</time>
      </trkpt>
      <trkpt lat="42.9261" lon="1.79488">
        <ele>548.7</ele>
        <time>2022-08-03T17:06:44.000Z</time>
      </trkpt>
      <trkpt lat="42.92604" lon="1.79487">
        <ele>548.7</ele>
        <time>2022-08-03T17:06:46.000Z</time>
      </trkpt>
      <trkpt lat="42.92598" lon="1.79488">
        <ele>548.6</ele>
        <time>2022-08-03T17:06:48.000Z</time>
      </trkpt>
      <trkpt lat="42.92591" lon="1.79494">
        <ele>548.6</ele>
        <time>2022-08-03T17:06:50.000Z</time>
      </trkpt>
      <trkpt lat="42.92585" lon="1.79498">
        <ele>548.4</ele>
        <time>2022-08-03T17:06:52.000Z</time>
      </trkpt>
      <trkpt lat="42.92579" lon="1.79505">
        <ele>548.2</ele>
        <time>2022-08-03T17:06:54.000Z</time>
      </trkpt>
      <trkpt lat="42.92572" lon="1.79511">
        <ele>548.1</ele>
        <time>2022-08-03T17:06:56.000Z</time>
      </trkpt>
      <trkpt lat="42.92563" lon="1.79516">
        <ele>548</ele>
        <time>2022-08-03T17:06:58.000Z</time>
      </trkpt>
      <trkpt lat="42.92555" lon="1.79518">
        <ele>547.9</ele>
        <time>2022-08-03T17:07:00.000Z</time>
      </trkpt>
      <trkpt lat="42.92546" lon="1.79519">
        <ele>547.8</ele>
        <time>2022-08-03T17:07:02.000Z</time>
      </trkpt>
      <trkpt lat="42.92538" lon="1.79516">
        <ele>547.7</ele>
        <time>2022-08-03T17:07:04.000Z</time>
      </trkpt>
      <trkpt lat="42.92533" lon="1.79514">
        <ele>547.7</ele>
        <time>2022-08-03T17:07:05.000Z</time>
      </trkpt>
      <trkpt lat="42.92528" lon="1.79512">
        <ele>547.6</ele>
        <time>2022-08-03T17:07:06.000Z</time>
      </trkpt>
      <trkpt lat="42.92524" lon="1.79508">
        <ele>547.6</ele>
        <time>2022-08-03T17:07:07.000Z</time>
      </trkpt>
      <trkpt lat="42.92519" lon="1.79504">
        <ele>547.6</ele>
        <time>2022-08-03T17:07:08.000Z</time>
      </trkpt>
      <trkpt lat="42.92515" lon="1.795">
        <ele>547.5</ele>
        <time>2022-08-03T17:07:09.000Z</time>
      </trkpt>
      <trkpt lat="42.92511" lon="1.79496">
        <ele>547.5</ele>
        <time>2022-08-03T17:07:10.000Z</time>
      </trkpt>
      <trkpt lat="42.92506" lon="1.79491">
        <ele>547.4</ele>
        <time>2022-08-03T17:07:11.000Z</time>
      </trkpt>
      <trkpt lat="42.92502" lon="1.79487">
        <ele>547.3</ele>
        <time>2022-08-03T17:07:12.000Z</time>
      </trkpt>
      <trkpt lat="42.92497" lon="1.79483">
        <ele>547.3</ele>
        <time>2022-08-03T17:07:13.000Z</time>
      </trkpt>
      <trkpt lat="42.92493" lon="1.79479">
        <ele>547.2</ele>
        <time>2022-08-03T17:07:14.000Z</time>
      </trkpt>
      <trkpt lat="42.92489" lon="1.79475">
        <ele>547.1</ele>
        <time>2022-08-03T17:07:15.000Z</time>
      </trkpt>
      <trkpt lat="42.92485" lon="1.79472">
        <ele>547.1</ele>
        <time>2022-08-03T17:07:16.000Z</time>
      </trkpt>
      <trkpt lat="42.92481" lon="1.79468">
        <ele>547</ele>
        <time>2022-08-03T17:07:17.000Z</time>
      </trkpt>
      <trkpt lat="42.92477" lon="1.79464">
        <ele>546.9</ele>
        <time>2022-08-03T17:07:18.000Z</time>
      </trkpt>
      <trkpt lat="42.92473" lon="1.7946">
        <ele>546.9</ele>
        <time>2022-08-03T17:07:19.000Z</time>
      </trkpt>
      <trkpt lat="42.9247" lon="1.79456">
        <ele>546.8</ele>
        <time>2022-08-03T17:07:20.000Z</time>
      </trkpt>
      <trkpt lat="42.92466" lon="1.79451">
        <ele>546.8</ele>
        <time>2022-08-03T17:07:21.000Z</time>
      </trkpt>
      <trkpt lat="42.92463" lon="1.79446">
        <ele>546.8</ele>
        <time>2022-08-03T17:07:22.000Z</time>
      </trkpt>
      <trkpt lat="42.92459" lon="1.79441">
        <ele>546.7</ele>
        <time>2022-08-03T17:07:23.000Z</time>
      </trkpt>
      <trkpt lat="42.92456" lon="1.79436">
        <ele>546.7</ele>
        <time>2022-08-03T17:07:24.000Z</time>
      </trkpt>
      <trkpt lat="42.92453" lon="1.79431">
        <ele>546.6</ele>
        <time>2022-08-03T17:07:25.000Z</time>
      </trkpt>
      <trkpt lat="42.9245" lon="1.79426">
        <ele>546.6</ele>
        <time>2022-08-03T17:07:26.000Z</time>
      </trkpt>
      <trkpt lat="42.92446" lon="1.7942">
        <ele>546.6</ele>
        <time>2022-08-03T17:07:27.000Z</time>
      </trkpt>
      <trkpt lat="42.92443" lon="1.79415">
        <ele>546.6</ele>
        <time>2022-08-03T17:07:28.000Z</time>
      </trkpt>
      <trkpt lat="42.9244" lon="1.7941">
        <ele>546.5</ele>
        <time>2022-08-03T17:07:29.000Z</time>
      </trkpt>
      <trkpt lat="42.92438" lon="1.79404">
        <ele>546.5</ele>
        <time>2022-08-03T17:07:30.000Z</time>
      </trkpt>
      <trkpt lat="42.92435" lon="1.79399">
        <ele>546.5</ele>
        <time>2022-08-03T17:07:31.000Z</time>
      </trkpt>
      <trkpt lat="42.92432" lon="1.79394">
        <ele>546.5</ele>
        <time>2022-08-03T17:07:32.000Z</time>
      </trkpt>
      <trkpt lat="42.92429" lon="1.79388">
        <ele>546.4</ele>
        <time>2022-08-03T17:07:33.000Z</time>
      </trkpt>
      <trkpt lat="42.92427" lon="1.79382">
        <ele>546.4</ele>
        <time>2022-08-03T17:07:34.000Z</time>
      </trkpt>
      <trkpt lat="42.92424" lon="1.79377">
        <ele>546.4</ele>
        <time>2022-08-03T17:07:35.000Z</time>
      </trkpt>
      <trkpt lat="42.92421" lon="1.79371">
        <ele>546.4</ele>
        <time>2022-08-03T17:07:36.000Z</time>
      </trkpt>
      <trkpt lat="42.92419" lon="1.79365">
        <ele>546.4</ele>
        <time>2022-08-03T17:07:37.000Z</time>
      </trkpt>
      <trkpt lat="42.92416" lon="1.79359">
        <ele>546.4</ele>
        <time>2022-08-03T17:07:38.000Z</time>
      </trkpt>
      <trkpt lat="42.92413" lon="1.79354">
        <ele>546.3</ele>
        <time>2022-08-03T17:07:39.000Z</time>
      </trkpt>
      <trkpt lat="42.92408" lon="1.79344">
        <ele>546.3</ele>
        <time>2022-08-03T17:07:41.000Z</time>
      </trkpt>
      <trkpt lat="42.92402" lon="1.79337">
        <ele>546.3</ele>
        <time>2022-08-03T17:07:43.000Z</time>
      </trkpt>
      <trkpt lat="42.92395" lon="1.7933">
        <ele>546.3</ele>
        <time>2022-08-03T17:07:45.000Z</time>
      </trkpt>
      <trkpt lat="42.92386" lon="1.79328">
        <ele>546.3</ele>
        <time>2022-08-03T17:07:47.000Z</time>
      </trkpt>
      <trkpt lat="42.92378" lon="1.79328">
        <ele>546.2</ele>
        <time>2022-08-03T17:07:49.000Z</time>
      </trkpt>
      <trkpt lat="42.92369" lon="1.79329">
        <ele>546.2</ele>
        <time>2022-08-03T17:07:51.000Z</time>
      </trkpt>
      <trkpt lat="42.92365" lon="1.79328">
        <ele>546.2</ele>
        <time>2022-08-03T17:07:52.000Z</time>
      </trkpt>
      <trkpt lat="42.92356" lon="1.79325">
        <ele>546.2</ele>
        <time>2022-08-03T17:07:54.000Z</time>
      </trkpt>
      <trkpt lat="42.92349" lon="1.79319">
        <ele>546.2</ele>
        <time>2022-08-03T17:07:56.000Z</time>
      </trkpt>
      <trkpt lat="42.92344" lon="1.79311">
        <ele>546.2</ele>
        <time>2022-08-03T17:07:58.000Z</time>
      </trkpt>
      <trkpt lat="42.92341" lon="1.79302">
        <ele>546.2</ele>
        <time>2022-08-03T17:08:00.000Z</time>
      </trkpt>
      <trkpt lat="42.9234" lon="1.79293">
        <ele>546.2</ele>
        <time>2022-08-03T17:08:02.000Z</time>
      </trkpt>
      <trkpt lat="42.92338" lon="1.79284">
        <ele>546.2</ele>
        <time>2022-08-03T17:08:04.000Z</time>
      </trkpt>
      <trkpt lat="42.92331" lon="1.79274">
        <ele>546.2</ele>
        <time>2022-08-03T17:08:06.000Z</time>
      </trkpt>
      <trkpt lat="42.92327" lon="1.79272">
        <ele>546.2</ele>
        <time>2022-08-03T17:08:07.000Z</time>
      </trkpt>
      <trkpt lat="42.92322" lon="1.79271">
        <ele>546.2</ele>
        <time>2022-08-03T17:08:08.000Z</time>
      </trkpt>
      <trkpt lat="42.92317" lon="1.79271">
        <ele>546.2</ele>
        <time>2022-08-03T17:08:09.000Z</time>
      </trkpt>
      <trkpt lat="42.92312" lon="1.79274">
        <ele>546.2</ele>
        <time>2022-08-03T17:08:10.000Z</time>
      </trkpt>
      <trkpt lat="42.92307" lon="1.79276">
        <ele>546.2</ele>
        <time>2022-08-03T17:08:11.000Z</time>
      </trkpt>
      <trkpt lat="42.92303" lon="1.79279">
        <ele>546.2</ele>
        <time>2022-08-03T17:08:12.000Z</time>
      </trkpt>
      <trkpt lat="42.92298" lon="1.79281">
        <ele>546.2</ele>
        <time>2022-08-03T17:08:13.000Z</time>
      </trkpt>
      <trkpt lat="42.92294" lon="1.79284">
        <ele>546.3</ele>
        <time>2022-08-03T17:08:14.000Z</time>
      </trkpt>
      <trkpt lat="42.92289" lon="1.79287">
        <ele>546.3</ele>
        <time>2022-08-03T17:08:15.000Z</time>
      </trkpt>
      <trkpt lat="42.92285" lon="1.79289">
        <ele>546.3</ele>
        <time>2022-08-03T17:08:16.000Z</time>
      </trkpt>
      <trkpt lat="42.9228" lon="1.79292">
        <ele>546.3</ele>
        <time>2022-08-03T17:08:17.000Z</time>
      </trkpt>
      <trkpt lat="42.92276" lon="1.79295">
        <ele>546.3</ele>
        <time>2022-08-03T17:08:18.000Z</time>
      </trkpt>
      <trkpt lat="42.92272" lon="1.79298">
        <ele>546.3</ele>
        <time>2022-08-03T17:08:19.000Z</time>
      </trkpt>
      <trkpt lat="42.92266" lon="1.79306">
        <ele>546.4</ele>
        <time>2022-08-03T17:08:21.000Z</time>
      </trkpt>
      <trkpt lat="42.92262" lon="1.79311">
        <ele>546.4</ele>
        <time>2022-08-03T17:08:22.000Z</time>
      </trkpt>
      <trkpt lat="42.92261" lon="1.79317">
        <ele>546.4</ele>
        <time>2022-08-03T17:08:23.000Z</time>
      </trkpt>
      <trkpt lat="42.9226" lon="1.79323">
        <ele>546.4</ele>
        <time>2022-08-03T17:08:24.000Z</time>
      </trkpt>
      <trkpt lat="42.92259" lon="1.79335">
        <ele>546.5</ele>
        <time>2022-08-03T17:08:26.000Z</time>
      </trkpt>
      <trkpt lat="42.92258" lon="1.79342">
        <ele>546.5</ele>
        <time>2022-08-03T17:08:27.000Z</time>
      </trkpt>
      <trkpt lat="42.92256" lon="1.79353">
        <ele>546.6</ele>
        <time>2022-08-03T17:08:29.000Z</time>
      </trkpt>
      <trkpt lat="42.92254" lon="1.79364">
        <ele>546.6</ele>
        <time>2022-08-03T17:08:31.000Z</time>
      </trkpt>
      <trkpt lat="42.92252" lon="1.7937">
        <ele>546.6</ele>
        <time>2022-08-03T17:08:32.000Z</time>
      </trkpt>
      <trkpt lat="42.92249" lon="1.79376">
        <ele>546.7</ele>
        <time>2022-08-03T17:08:33.000Z</time>
      </trkpt>
      <trkpt lat="42.92246" lon="1.79382">
        <ele>546.7</ele>
        <time>2022-08-03T17:08:34.000Z</time>
      </trkpt>
      <trkpt lat="42.92244" lon="1.79387">
        <ele>546.7</ele>
        <time>2022-08-03T17:08:35.000Z</time>
      </trkpt>
      <trkpt lat="42.92241" lon="1.79392">
        <ele>546.7</ele>
        <time>2022-08-03T17:08:36.000Z</time>
      </trkpt>
      <trkpt lat="42.92239" lon="1.79398">
        <ele>546.7</ele>
        <time>2022-08-03T17:08:37.000Z</time>
      </trkpt>
      <trkpt lat="42.92236" lon="1.79404">
        <ele>546.7</ele>
        <time>2022-08-03T17:08:38.000Z</time>
      </trkpt>
      <trkpt lat="42.92233" lon="1.79409">
        <ele>546.7</ele>
        <time>2022-08-03T17:08:39.000Z</time>
      </trkpt>
      <trkpt lat="42.92229" lon="1.79413">
        <ele>546.7</ele>
        <time>2022-08-03T17:08:40.000Z</time>
      </trkpt>
      <trkpt lat="42.92224" lon="1.79417">
        <ele>546.8</ele>
        <time>2022-08-03T17:08:41.000Z</time>
      </trkpt>
      <trkpt lat="42.9222" lon="1.79421">
        <ele>546.8</ele>
        <time>2022-08-03T17:08:42.000Z</time>
      </trkpt>
      <trkpt lat="42.92216" lon="1.79423">
        <ele>546.8</ele>
        <time>2022-08-03T17:08:43.000Z</time>
      </trkpt>
      <trkpt lat="42.92208" lon="1.79426">
        <ele>546.8</ele>
        <time>2022-08-03T17:08:45.000Z</time>
      </trkpt>
      <trkpt lat="42.922" lon="1.79428">
        <ele>546.8</ele>
        <time>2022-08-03T17:08:47.000Z</time>
      </trkpt>
      <trkpt lat="42.92196" lon="1.7943">
        <ele>546.8</ele>
        <time>2022-08-03T17:08:48.000Z</time>
      </trkpt>
      <trkpt lat="42.92191" lon="1.79431">
        <ele>546.8</ele>
        <time>2022-08-03T17:08:49.000Z</time>
      </trkpt>
      <trkpt lat="42.92182" lon="1.7943">
        <ele>546.8</ele>
        <time>2022-08-03T17:08:51.000Z</time>
      </trkpt>
      <trkpt lat="42.92178" lon="1.79429">
        <ele>546.8</ele>
        <time>2022-08-03T17:08:52.000Z</time>
      </trkpt>
      <trkpt lat="42.92173" lon="1.79428">
        <ele>546.8</ele>
        <time>2022-08-03T17:08:53.000Z</time>
      </trkpt>
      <trkpt lat="42.92168" lon="1.79428">
        <ele>546.9</ele>
        <time>2022-08-03T17:08:54.000Z</time>
      </trkpt>
      <trkpt lat="42.92163" lon="1.79428">
        <ele>546.9</ele>
        <time>2022-08-03T17:08:55.000Z</time>
      </trkpt>
      <trkpt lat="42.92158" lon="1.79429">
        <ele>546.9</ele>
        <time>2022-08-03T17:08:56.000Z</time>
      </trkpt>
      <trkpt lat="42.92153" lon="1.7943">
        <ele>546.9</ele>
        <time>2022-08-03T17:08:57.000Z</time>
      </trkpt>
      <trkpt lat="42.92148" lon="1.79433">
        <ele>546.9</ele>
        <time>2022-08-03T17:08:58.000Z</time>
      </trkpt>
      <trkpt lat="42.92143" lon="1.79435">
        <ele>546.9</ele>
        <time>2022-08-03T17:08:59.000Z</time>
      </trkpt>
      <trkpt lat="42.92139" lon="1.79439">
        <ele>546.9</ele>
        <time>2022-08-03T17:09:00.000Z</time>
      </trkpt>
      <trkpt lat="42.92135" lon="1.79442">
        <ele>546.9</ele>
        <time>2022-08-03T17:09:01.000Z</time>
      </trkpt>
      <trkpt lat="42.92131" lon="1.79446">
        <ele>547</ele>
        <time>2022-08-03T17:09:02.000Z</time>
      </trkpt>
      <trkpt lat="42.92127" lon="1.7945">
        <ele>547</ele>
        <time>2022-08-03T17:09:03.000Z</time>
      </trkpt>
      <trkpt lat="42.92123" lon="1.79455">
        <ele>547</ele>
        <time>2022-08-03T17:09:04.000Z</time>
      </trkpt>
      <trkpt lat="42.9212" lon="1.79461">
        <ele>547</ele>
        <time>2022-08-03T17:09:05.000Z</time>
      </trkpt>
      <trkpt lat="42.92118" lon="1.79466">
        <ele>547</ele>
        <time>2022-08-03T17:09:06.000Z</time>
      </trkpt>
      <trkpt lat="42.92114" lon="1.79478">
        <ele>547.1</ele>
        <time>2022-08-03T17:09:08.000Z</time>
      </trkpt>
      <trkpt lat="42.92112" lon="1.79484">
        <ele>547.1</ele>
        <time>2022-08-03T17:09:09.000Z</time>
      </trkpt>
      <trkpt lat="42.9211" lon="1.7949">
        <ele>547.1</ele>
        <time>2022-08-03T17:09:10.000Z</time>
      </trkpt>
      <trkpt lat="42.92106" lon="1.795">
        <ele>547.2</ele>
        <time>2022-08-03T17:09:12.000Z</time>
      </trkpt>
      <trkpt lat="42.92102" lon="1.79511">
        <ele>547.3</ele>
        <time>2022-08-03T17:09:14.000Z</time>
      </trkpt>
      <trkpt lat="42.92099" lon="1.79517">
        <ele>547.3</ele>
        <time>2022-08-03T17:09:15.000Z</time>
      </trkpt>
      <trkpt lat="42.92094" lon="1.79526">
        <ele>547.3</ele>
        <time>2022-08-03T17:09:17.000Z</time>
      </trkpt>
      <trkpt lat="42.92089" lon="1.79535">
        <ele>547.4</ele>
        <time>2022-08-03T17:09:19.000Z</time>
      </trkpt>
      <trkpt lat="42.92084" lon="1.79545">
        <ele>547.5</ele>
        <time>2022-08-03T17:09:21.000Z</time>
      </trkpt>
      <trkpt lat="42.9208" lon="1.7955">
        <ele>547.6</ele>
        <time>2022-08-03T17:09:22.000Z</time>
      </trkpt>
      <trkpt lat="42.92078" lon="1.79556">
        <ele>547.6</ele>
        <time>2022-08-03T17:09:23.000Z</time>
      </trkpt>
      <trkpt lat="42.92076" lon="1.79563">
        <ele>547.7</ele>
        <time>2022-08-03T17:09:24.000Z</time>
      </trkpt>
      <trkpt lat="42.92074" lon="1.7957">
        <ele>547.7</ele>
        <time>2022-08-03T17:09:25.000Z</time>
      </trkpt>
      <trkpt lat="42.92072" lon="1.79577">
        <ele>547.8</ele>
        <time>2022-08-03T17:09:26.000Z</time>
      </trkpt>
      <trkpt lat="42.9207" lon="1.79584">
        <ele>547.8</ele>
        <time>2022-08-03T17:09:27.000Z</time>
      </trkpt>
      <trkpt lat="42.92069" lon="1.7959">
        <ele>547.9</ele>
        <time>2022-08-03T17:09:28.000Z</time>
      </trkpt>
      <trkpt lat="42.92067" lon="1.79596">
        <ele>548</ele>
        <time>2022-08-03T17:09:29.000Z</time>
      </trkpt>
      <trkpt lat="42.92065" lon="1.79608">
        <ele>548.1</ele>
        <time>2022-08-03T17:09:31.000Z</time>
      </trkpt>
      <trkpt lat="42.92062" lon="1.79619">
        <ele>548.2</ele>
        <time>2022-08-03T17:09:33.000Z</time>
      </trkpt>
      <trkpt lat="42.9206" lon="1.79629">
        <ele>548.3</ele>
        <time>2022-08-03T17:09:35.000Z</time>
      </trkpt>
      <trkpt lat="42.92058" lon="1.79637">
        <ele>548.4</ele>
        <time>2022-08-03T17:09:37.000Z</time>
      </trkpt>
      <trkpt lat="42.92057" lon="1.79649">
        <ele>548.5</ele>
        <time>2022-08-03T17:09:39.000Z</time>
      </trkpt>
      <trkpt lat="42.92056" lon="1.79656">
        <ele>548.5</ele>
        <time>2022-08-03T17:09:40.000Z</time>
      </trkpt>
      <trkpt lat="42.92053" lon="1.79663">
        <ele>548.6</ele>
        <time>2022-08-03T17:09:41.000Z</time>
      </trkpt>
      <trkpt lat="42.92049" lon="1.79668">
        <ele>548.6</ele>
        <time>2022-08-03T17:09:42.000Z</time>
      </trkpt>
      <trkpt lat="42.92045" lon="1.79671">
        <ele>548.7</ele>
        <time>2022-08-03T17:09:43.000Z</time>
      </trkpt>
      <trkpt lat="42.9204" lon="1.79679">
        <ele>548.7</ele>
        <time>2022-08-03T17:09:45.000Z</time>
      </trkpt>
      <trkpt lat="42.9204" lon="1.7969">
        <ele>548.8</ele>
        <time>2022-08-03T17:09:47.000Z</time>
      </trkpt>
      <trkpt lat="42.92041" lon="1.79699">
        <ele>548.8</ele>
        <time>2022-08-03T17:09:49.000Z</time>
      </trkpt>
      <trkpt lat="42.9204" lon="1.79708">
        <ele>548.8</ele>
        <time>2022-08-03T17:09:51.000Z</time>
      </trkpt>
      <trkpt lat="42.9204" lon="1.79715">
        <ele>548.9</ele>
        <time>2022-08-03T17:09:53.000Z</time>
      </trkpt>
      <trkpt lat="42.9204" lon="1.79722">
        <ele>548.9</ele>
        <time>2022-08-03T17:09:55.000Z</time>
      </trkpt>
      <trkpt lat="42.92039" lon="1.79728">
        <ele>548.9</ele>
        <time>2022-08-03T17:09:57.000Z</time>
      </trkpt>
      <trkpt lat="42.92038" lon="1.79736">
        <ele>549</ele>
        <time>2022-08-03T17:09:59.000Z</time>
      </trkpt>
      <trkpt lat="42.92035" lon="1.79743">
        <ele>549</ele>
        <time>2022-08-03T17:10:01.000Z</time>
      </trkpt>
      <trkpt lat="42.92033" lon="1.7975">
        <ele>549</ele>
        <time>2022-08-03T17:10:03.000Z</time>
      </trkpt>
      <trkpt lat="42.92029" lon="1.79755">
        <ele>549</ele>
        <time>2022-08-03T17:10:05.000Z</time>
      </trkpt>
      <trkpt lat="42.92026" lon="1.79762">
        <ele>549</ele>
        <time>2022-08-03T17:10:07.000Z</time>
      </trkpt>
      <trkpt lat="42.92023" lon="1.79768">
        <ele>549</ele>
        <time>2022-08-03T17:10:09.000Z</time>
      </trkpt>
      <trkpt lat="42.9202" lon="1.79774">
        <ele>549.1</ele>
        <time>2022-08-03T17:10:11.000Z</time>
      </trkpt>
      <trkpt lat="42.92017" lon="1.7978">
        <ele>549.1</ele>
        <time>2022-08-03T17:10:13.000Z</time>
      </trkpt>
      <trkpt lat="42.92015" lon="1.79786">
        <ele>549.1</ele>
        <time>2022-08-03T17:10:15.000Z</time>
      </trkpt>
      <trkpt lat="42.92012" lon="1.79791">
        <ele>549.2</ele>
        <time>2022-08-03T17:10:17.000Z</time>
      </trkpt>
      <trkpt lat="42.92009" lon="1.79796">
        <ele>549.2</ele>
        <time>2022-08-03T17:10:19.000Z</time>
      </trkpt>
      <trkpt lat="42.92007" lon="1.79802">
        <ele>549.2</ele>
        <time>2022-08-03T17:10:20.000Z</time>
      </trkpt>
      <trkpt lat="42.92004" lon="1.79807">
        <ele>549.3</ele>
        <time>2022-08-03T17:10:21.000Z</time>
      </trkpt>
      <trkpt lat="42.92" lon="1.79812">
        <ele>549.4</ele>
        <time>2022-08-03T17:10:23.000Z</time>
      </trkpt>
      <trkpt lat="42.91997" lon="1.79821">
        <ele>549.5</ele>
        <time>2022-08-03T17:10:25.000Z</time>
      </trkpt>
      <trkpt lat="42.91995" lon="1.7983">
        <ele>549.6</ele>
        <time>2022-08-03T17:10:27.000Z</time>
      </trkpt>
      <trkpt lat="42.91994" lon="1.79838">
        <ele>549.7</ele>
        <time>2022-08-03T17:10:29.000Z</time>
      </trkpt>
      <trkpt lat="42.91994" lon="1.79844">
        <ele>549.7</ele>
        <time>2022-08-03T17:10:31.000Z</time>
      </trkpt>
      <trkpt lat="42.91995" lon="1.79851">
        <ele>549.9</ele>
        <time>2022-08-03T17:10:34.000Z</time>
      </trkpt>
      <trkpt lat="42.91995" lon="1.7986">
        <ele>550.1</ele>
        <time>2022-08-03T17:10:37.000Z</time>
      </trkpt>
      <trkpt lat="42.91995" lon="1.79869">
        <ele>550.3</ele>
        <time>2022-08-03T17:10:40.000Z</time>
      </trkpt>
      <trkpt lat="42.91993" lon="1.79876">
        <ele>550.4</ele>
        <time>2022-08-03T17:10:42.000Z</time>
      </trkpt>
      <trkpt lat="42.91991" lon="1.79884">
        <ele>550.6</ele>
        <time>2022-08-03T17:10:44.000Z</time>
      </trkpt>
      <trkpt lat="42.91988" lon="1.79891">
        <ele>550.7</ele>
        <time>2022-08-03T17:10:46.000Z</time>
      </trkpt>
      <trkpt lat="42.91986" lon="1.799">
        <ele>550.8</ele>
        <time>2022-08-03T17:10:48.000Z</time>
      </trkpt>
      <trkpt lat="42.91984" lon="1.7991">
        <ele>550.9</ele>
        <time>2022-08-03T17:10:50.000Z</time>
      </trkpt>
      <trkpt lat="42.9198" lon="1.79918">
        <ele>551</ele>
        <time>2022-08-03T17:10:52.000Z</time>
      </trkpt>
      <trkpt lat="42.91975" lon="1.79926">
        <ele>551.1</ele>
        <time>2022-08-03T17:10:54.000Z</time>
      </trkpt>
      <trkpt lat="42.9197" lon="1.79935">
        <ele>551.1</ele>
        <time>2022-08-03T17:10:56.000Z</time>
      </trkpt>
      <trkpt lat="42.91964" lon="1.79942">
        <ele>551.1</ele>
        <time>2022-08-03T17:10:58.000Z</time>
      </trkpt>
      <trkpt lat="42.91961" lon="1.79948">
        <ele>551.1</ele>
        <time>2022-08-03T17:10:59.000Z</time>
      </trkpt>
      <trkpt lat="42.91959" lon="1.79954">
        <ele>551.1</ele>
        <time>2022-08-03T17:11:00.000Z</time>
      </trkpt>
      <trkpt lat="42.91957" lon="1.79966">
        <ele>551.1</ele>
        <time>2022-08-03T17:11:02.000Z</time>
      </trkpt>
      <trkpt lat="42.91956" lon="1.79973">
        <ele>551.1</ele>
        <time>2022-08-03T17:11:03.000Z</time>
      </trkpt>
      <trkpt lat="42.91954" lon="1.79984">
        <ele>551.2</ele>
        <time>2022-08-03T17:11:05.000Z</time>
      </trkpt>
      <trkpt lat="42.9195" lon="1.7999">
        <ele>551.2</ele>
        <time>2022-08-03T17:11:07.000Z</time>
      </trkpt>
      <trkpt lat="42.91945" lon="1.79997">
        <ele>551.3</ele>
        <time>2022-08-03T17:11:09.000Z</time>
      </trkpt>
      <trkpt lat="42.91942" lon="1.80003">
        <ele>551.3</ele>
        <time>2022-08-03T17:11:11.000Z</time>
      </trkpt>
      <trkpt lat="42.91941" lon="1.80009">
        <ele>551.3</ele>
        <time>2022-08-03T17:11:13.000Z</time>
      </trkpt>
      <trkpt lat="42.91941" lon="1.8002">
        <ele>551.2</ele>
        <time>2022-08-03T17:11:16.000Z</time>
      </trkpt>
      <trkpt lat="42.91942" lon="1.80029">
        <ele>551.1</ele>
        <time>2022-08-03T17:11:18.000Z</time>
      </trkpt>
      <trkpt lat="42.91943" lon="1.80036">
        <ele>551.1</ele>
        <time>2022-08-03T17:11:21.000Z</time>
      </trkpt>
      <trkpt lat="42.91943" lon="1.80045">
        <ele>551.1</ele>
        <time>2022-08-03T17:11:23.000Z</time>
      </trkpt>
      <trkpt lat="42.91941" lon="1.80053">
        <ele>551.1</ele>
        <time>2022-08-03T17:11:25.000Z</time>
      </trkpt>
      <trkpt lat="42.9194" lon="1.80062">
        <ele>551.1</ele>
        <time>2022-08-03T17:11:27.000Z</time>
      </trkpt>
      <trkpt lat="42.91938" lon="1.8007">
        <ele>551.1</ele>
        <time>2022-08-03T17:11:29.000Z</time>
      </trkpt>
      <trkpt lat="42.91936" lon="1.80077">
        <ele>551.1</ele>
        <time>2022-08-03T17:11:31.000Z</time>
      </trkpt>
      <trkpt lat="42.91936" lon="1.80086">
        <ele>551.1</ele>
        <time>2022-08-03T17:11:33.000Z</time>
      </trkpt>
      <trkpt lat="42.91933" lon="1.80094">
        <ele>551.1</ele>
        <time>2022-08-03T17:11:36.000Z</time>
      </trkpt>
      <trkpt lat="42.91929" lon="1.801">
        <ele>551.1</ele>
        <time>2022-08-03T17:11:39.000Z</time>
      </trkpt>
      <trkpt lat="42.91926" lon="1.80107">
        <ele>551.1</ele>
        <time>2022-08-03T17:11:41.000Z</time>
      </trkpt>
      <trkpt lat="42.91925" lon="1.80115">
        <ele>551.1</ele>
        <time>2022-08-03T17:11:43.000Z</time>
      </trkpt>
      <trkpt lat="42.91923" lon="1.80121">
        <ele>551.1</ele>
        <time>2022-08-03T17:11:45.000Z</time>
      </trkpt>
      <trkpt lat="42.91921" lon="1.80127">
        <ele>551.2</ele>
        <time>2022-08-03T17:11:47.000Z</time>
      </trkpt>
      <trkpt lat="42.91919" lon="1.80136">
        <ele>551.2</ele>
        <time>2022-08-03T17:11:49.000Z</time>
      </trkpt>
      <trkpt lat="42.91917" lon="1.80145">
        <ele>551.3</ele>
        <time>2022-08-03T17:11:51.000Z</time>
      </trkpt>
      <trkpt lat="42.91916" lon="1.8016">
        <ele>551.3</ele>
        <time>2022-08-03T17:11:53.000Z</time>
      </trkpt>
      <trkpt lat="42.91917" lon="1.80168">
        <ele>551.4</ele>
        <time>2022-08-03T17:11:54.000Z</time>
      </trkpt>
      <trkpt lat="42.91917" lon="1.8018">
        <ele>551.5</ele>
        <time>2022-08-03T17:11:56.000Z</time>
      </trkpt>
      <trkpt lat="42.91917" lon="1.80186">
        <ele>551.6</ele>
        <time>2022-08-03T17:11:58.000Z</time>
      </trkpt>
      <trkpt lat="42.91915" lon="1.80194">
        <ele>551.7</ele>
        <time>2022-08-03T17:12:01.000Z</time>
      </trkpt>
      <trkpt lat="42.91917" lon="1.80201">
        <ele>551.8</ele>
        <time>2022-08-03T17:12:03.000Z</time>
      </trkpt>
      <trkpt lat="42.91918" lon="1.8021">
        <ele>552</ele>
        <time>2022-08-03T17:12:06.000Z</time>
      </trkpt>
      <trkpt lat="42.91917" lon="1.80218">
        <ele>552.3</ele>
        <time>2022-08-03T17:12:09.000Z</time>
      </trkpt>
      <trkpt lat="42.91915" lon="1.80224">
        <ele>552.5</ele>
        <time>2022-08-03T17:12:12.000Z</time>
      </trkpt>
      <trkpt lat="42.91913" lon="1.80231">
        <ele>552.8</ele>
        <time>2022-08-03T17:12:15.000Z</time>
      </trkpt>
      <trkpt lat="42.9191" lon="1.80239">
        <ele>553</ele>
        <time>2022-08-03T17:12:18.000Z</time>
      </trkpt>
      <trkpt lat="42.91908" lon="1.80247">
        <ele>553.3</ele>
        <time>2022-08-03T17:12:20.000Z</time>
      </trkpt>
      <trkpt lat="42.91906" lon="1.80253">
        <ele>553.4</ele>
        <time>2022-08-03T17:12:22.000Z</time>
      </trkpt>
      <trkpt lat="42.91905" lon="1.80267">
        <ele>553.6</ele>
        <time>2022-08-03T17:12:24.000Z</time>
      </trkpt>
      <trkpt lat="42.91902" lon="1.80276">
        <ele>553.7</ele>
        <time>2022-08-03T17:12:26.000Z</time>
      </trkpt>
      <trkpt lat="42.919" lon="1.80282">
        <ele>553.8</ele>
        <time>2022-08-03T17:12:28.000Z</time>
      </trkpt>
      <trkpt lat="42.91896" lon="1.80287">
        <ele>554</ele>
        <time>2022-08-03T17:12:30.000Z</time>
      </trkpt>
      <trkpt lat="42.91895" lon="1.80293">
        <ele>554</ele>
        <time>2022-08-03T17:12:32.000Z</time>
      </trkpt>
      <trkpt lat="42.91893" lon="1.803">
        <ele>554.1</ele>
        <time>2022-08-03T17:12:34.000Z</time>
      </trkpt>
      <trkpt lat="42.91892" lon="1.80307">
        <ele>554.2</ele>
        <time>2022-08-03T17:12:36.000Z</time>
      </trkpt>
      <trkpt lat="42.91892" lon="1.80316">
        <ele>554.3</ele>
        <time>2022-08-03T17:12:39.000Z</time>
      </trkpt>
      <trkpt lat="42.91892" lon="1.80325">
        <ele>554.3</ele>
        <time>2022-08-03T17:12:41.000Z</time>
      </trkpt>
      <trkpt lat="42.91892" lon="1.80335">
        <ele>554.4</ele>
        <time>2022-08-03T17:12:43.000Z</time>
      </trkpt>
      <trkpt lat="42.9189" lon="1.80342">
        <ele>554.4</ele>
        <time>2022-08-03T17:12:45.000Z</time>
      </trkpt>
      <trkpt lat="42.91889" lon="1.8035">
        <ele>554.5</ele>
        <time>2022-08-03T17:12:47.000Z</time>
      </trkpt>
      <trkpt lat="42.91888" lon="1.80358">
        <ele>554.5</ele>
        <time>2022-08-03T17:12:49.000Z</time>
      </trkpt>
      <trkpt lat="42.91887" lon="1.80365">
        <ele>554.6</ele>
        <time>2022-08-03T17:12:52.000Z</time>
      </trkpt>
      <trkpt lat="42.91887" lon="1.80376">
        <ele>554.6</ele>
        <time>2022-08-03T17:12:55.000Z</time>
      </trkpt>
      <trkpt lat="42.91885" lon="1.80384">
        <ele>554.6</ele>
        <time>2022-08-03T17:12:57.000Z</time>
      </trkpt>
      <trkpt lat="42.91885" lon="1.80393">
        <ele>554.7</ele>
        <time>2022-08-03T17:12:59.000Z</time>
      </trkpt>
      <trkpt lat="42.91883" lon="1.80403">
        <ele>554.8</ele>
        <time>2022-08-03T17:13:01.000Z</time>
      </trkpt>
      <trkpt lat="42.9188" lon="1.80414">
        <ele>554.8</ele>
        <time>2022-08-03T17:13:03.000Z</time>
      </trkpt>
      <trkpt lat="42.91877" lon="1.80421">
        <ele>554.8</ele>
        <time>2022-08-03T17:13:05.000Z</time>
      </trkpt>
      <trkpt lat="42.91876" lon="1.80429">
        <ele>554.9</ele>
        <time>2022-08-03T17:13:07.000Z</time>
      </trkpt>
      <trkpt lat="42.91875" lon="1.80439">
        <ele>554.9</ele>
        <time>2022-08-03T17:13:09.000Z</time>
      </trkpt>
      <trkpt lat="42.91876" lon="1.80447">
        <ele>554.9</ele>
        <time>2022-08-03T17:13:11.000Z</time>
      </trkpt>
      <trkpt lat="42.91877" lon="1.80455">
        <ele>555</ele>
        <time>2022-08-03T17:13:13.000Z</time>
      </trkpt>
      <trkpt lat="42.91878" lon="1.80461">
        <ele>555</ele>
        <time>2022-08-03T17:13:14.000Z</time>
      </trkpt>
      <trkpt lat="42.91877" lon="1.8047">
        <ele>555</ele>
        <time>2022-08-03T17:13:15.000Z</time>
      </trkpt>
      <trkpt lat="42.91876" lon="1.80477">
        <ele>555</ele>
        <time>2022-08-03T17:13:16.000Z</time>
      </trkpt>
      <trkpt lat="42.91875" lon="1.80486">
        <ele>555</ele>
        <time>2022-08-03T17:13:18.000Z</time>
      </trkpt>
      <trkpt lat="42.91875" lon="1.80495">
        <ele>555</ele>
        <time>2022-08-03T17:13:20.000Z</time>
      </trkpt>
      <trkpt lat="42.91875" lon="1.80503">
        <ele>555.1</ele>
        <time>2022-08-03T17:13:22.000Z</time>
      </trkpt>
      <trkpt lat="42.91876" lon="1.80512">
        <ele>555.1</ele>
        <time>2022-08-03T17:13:25.000Z</time>
      </trkpt>
      <trkpt lat="42.91877" lon="1.80521">
        <ele>555.1</ele>
        <time>2022-08-03T17:13:26.000Z</time>
      </trkpt>
      <trkpt lat="42.91878" lon="1.8053">
        <ele>555.1</ele>
        <time>2022-08-03T17:13:28.000Z</time>
      </trkpt>
      <trkpt lat="42.9188" lon="1.80537">
        <ele>555.3</ele>
        <time>2022-08-03T17:13:31.000Z</time>
      </trkpt>
      <trkpt lat="42.91881" lon="1.80545">
        <ele>555.4</ele>
        <time>2022-08-03T17:13:34.000Z</time>
      </trkpt>
      <trkpt lat="42.91883" lon="1.80553">
        <ele>555.6</ele>
        <time>2022-08-03T17:13:37.000Z</time>
      </trkpt>
      <trkpt lat="42.91884" lon="1.80559">
        <ele>555.7</ele>
        <time>2022-08-03T17:13:39.000Z</time>
      </trkpt>
      <trkpt lat="42.91883" lon="1.80567">
        <ele>555.9</ele>
        <time>2022-08-03T17:13:42.000Z</time>
      </trkpt>
      <trkpt lat="42.91884" lon="1.80575">
        <ele>556</ele>
        <time>2022-08-03T17:13:44.000Z</time>
      </trkpt>
      <trkpt lat="42.91883" lon="1.80584">
        <ele>556.1</ele>
        <time>2022-08-03T17:13:47.000Z</time>
      </trkpt>
      <trkpt lat="42.91883" lon="1.80591">
        <ele>556.2</ele>
        <time>2022-08-03T17:13:49.000Z</time>
      </trkpt>
      <trkpt lat="42.91882" lon="1.80598">
        <ele>556.3</ele>
        <time>2022-08-03T17:13:51.000Z</time>
      </trkpt>
      <trkpt lat="42.91881" lon="1.80609">
        <ele>556.4</ele>
        <time>2022-08-03T17:13:54.000Z</time>
      </trkpt>
      <trkpt lat="42.9188" lon="1.80618">
        <ele>556.4</ele>
        <time>2022-08-03T17:13:56.000Z</time>
      </trkpt>
      <trkpt lat="42.91881" lon="1.80626">
        <ele>556.4</ele>
        <time>2022-08-03T17:13:57.000Z</time>
      </trkpt>
      <trkpt lat="42.9188" lon="1.80635">
        <ele>556.4</ele>
        <time>2022-08-03T17:13:58.000Z</time>
      </trkpt>
      <trkpt lat="42.91877" lon="1.80645">
        <ele>556.5</ele>
        <time>2022-08-03T17:14:00.000Z</time>
      </trkpt>
      <trkpt lat="42.91875" lon="1.80657">
        <ele>556.5</ele>
        <time>2022-08-03T17:14:02.000Z</time>
      </trkpt>
      <trkpt lat="42.91875" lon="1.80664">
        <ele>556.5</ele>
        <time>2022-08-03T17:14:03.000Z</time>
      </trkpt>
      <trkpt lat="42.91874" lon="1.80671">
        <ele>556.5</ele>
        <time>2022-08-03T17:14:04.000Z</time>
      </trkpt>
      <trkpt lat="42.91872" lon="1.80681">
        <ele>556.4</ele>
        <time>2022-08-03T17:14:06.000Z</time>
      </trkpt>
      <trkpt lat="42.91872" lon="1.8069">
        <ele>556.3</ele>
        <time>2022-08-03T17:14:08.000Z</time>
      </trkpt>
      <trkpt lat="42.91871" lon="1.80698">
        <ele>556.3</ele>
        <time>2022-08-03T17:14:10.000Z</time>
      </trkpt>
      <trkpt lat="42.91869" lon="1.80708">
        <ele>556.2</ele>
        <time>2022-08-03T17:14:12.000Z</time>
      </trkpt>
      <trkpt lat="42.91867" lon="1.80714">
        <ele>556.3</ele>
        <time>2022-08-03T17:14:14.000Z</time>
      </trkpt>
      <trkpt lat="42.91867" lon="1.80721">
        <ele>556.3</ele>
        <time>2022-08-03T17:14:16.000Z</time>
      </trkpt>
      <trkpt lat="42.91866" lon="1.80728">
        <ele>556.4</ele>
        <time>2022-08-03T17:14:18.000Z</time>
      </trkpt>
      <trkpt lat="42.91864" lon="1.80738">
        <ele>556.5</ele>
        <time>2022-08-03T17:14:20.000Z</time>
      </trkpt>
      <trkpt lat="42.91863" lon="1.80746">
        <ele>556.5</ele>
        <time>2022-08-03T17:14:22.000Z</time>
      </trkpt>
      <trkpt lat="42.91864" lon="1.80753">
        <ele>556.6</ele>
        <time>2022-08-03T17:14:25.000Z</time>
      </trkpt>
      <trkpt lat="42.91863" lon="1.80761">
        <ele>556.7</ele>
        <time>2022-08-03T17:14:28.000Z</time>
      </trkpt>
      <trkpt lat="42.91863" lon="1.80771">
        <ele>556.7</ele>
        <time>2022-08-03T17:14:30.000Z</time>
      </trkpt>
      <trkpt lat="42.91864" lon="1.8078">
        <ele>556.8</ele>
        <time>2022-08-03T17:14:32.000Z</time>
      </trkpt>
      <trkpt lat="42.91864" lon="1.80787">
        <ele>556.8</ele>
        <time>2022-08-03T17:14:34.000Z</time>
      </trkpt>
      <trkpt lat="42.91864" lon="1.80793">
        <ele>556.9</ele>
        <time>2022-08-03T17:14:36.000Z</time>
      </trkpt>
      <trkpt lat="42.91864" lon="1.80799">
        <ele>556.9</ele>
        <time>2022-08-03T17:14:38.000Z</time>
      </trkpt>
      <trkpt lat="42.91865" lon="1.80807">
        <ele>557</ele>
        <time>2022-08-03T17:14:40.000Z</time>
      </trkpt>
      <trkpt lat="42.91865" lon="1.80813">
        <ele>557.3</ele>
        <time>2022-08-03T17:14:42.000Z</time>
      </trkpt>
      <trkpt lat="42.91866" lon="1.80822">
        <ele>557.5</ele>
        <time>2022-08-03T17:14:45.000Z</time>
      </trkpt>
      <trkpt lat="42.91866" lon="1.80828">
        <ele>557.8</ele>
        <time>2022-08-03T17:14:48.000Z</time>
      </trkpt>
      <trkpt lat="42.91866" lon="1.80835">
        <ele>558</ele>
        <time>2022-08-03T17:14:51.000Z</time>
      </trkpt>
      <trkpt lat="42.91865" lon="1.80844">
        <ele>558.1</ele>
        <time>2022-08-03T17:14:53.000Z</time>
      </trkpt>
      <trkpt lat="42.91865" lon="1.80853">
        <ele>558.4</ele>
        <time>2022-08-03T17:14:56.000Z</time>
      </trkpt>
      <trkpt lat="42.91866" lon="1.80863">
        <ele>558.6</ele>
        <time>2022-08-03T17:14:58.000Z</time>
      </trkpt>
      <trkpt lat="42.91866" lon="1.80871">
        <ele>558.8</ele>
        <time>2022-08-03T17:15:00.000Z</time>
      </trkpt>
      <trkpt lat="42.91867" lon="1.8088">
        <ele>558.9</ele>
        <time>2022-08-03T17:15:02.000Z</time>
      </trkpt>
      <trkpt lat="42.91869" lon="1.80886">
        <ele>559.1</ele>
        <time>2022-08-03T17:15:04.000Z</time>
      </trkpt>
      <trkpt lat="42.91872" lon="1.80894">
        <ele>559.3</ele>
        <time>2022-08-03T17:15:07.000Z</time>
      </trkpt>
      <trkpt lat="42.91875" lon="1.809">
        <ele>559.5</ele>
        <time>2022-08-03T17:15:10.000Z</time>
      </trkpt>
      <trkpt lat="42.91875" lon="1.80908">
        <ele>559.7</ele>
        <time>2022-08-03T17:15:13.000Z</time>
      </trkpt>
      <trkpt lat="42.91875" lon="1.80916">
        <ele>559.9</ele>
        <time>2022-08-03T17:15:16.000Z</time>
      </trkpt>
      <trkpt lat="42.91875" lon="1.80926">
        <ele>560.1</ele>
        <time>2022-08-03T17:15:19.000Z</time>
      </trkpt>
      <trkpt lat="42.91874" lon="1.80935">
        <ele>560.3</ele>
        <time>2022-08-03T17:15:22.000Z</time>
      </trkpt>
      <trkpt lat="42.91874" lon="1.80943">
        <ele>560.5</ele>
        <time>2022-08-03T17:15:25.000Z</time>
      </trkpt>
      <trkpt lat="42.91873" lon="1.80949">
        <ele>560.7</ele>
        <time>2022-08-03T17:15:28.000Z</time>
      </trkpt>
      <trkpt lat="42.91873" lon="1.80956">
        <ele>560.8</ele>
        <time>2022-08-03T17:15:30.000Z</time>
      </trkpt>
      <trkpt lat="42.91874" lon="1.80963">
        <ele>561</ele>
        <time>2022-08-03T17:15:32.000Z</time>
      </trkpt>
      <trkpt lat="42.91878" lon="1.80971">
        <ele>561.1</ele>
        <time>2022-08-03T17:15:34.000Z</time>
      </trkpt>
      <trkpt lat="42.91879" lon="1.80978">
        <ele>561.2</ele>
        <time>2022-08-03T17:15:36.000Z</time>
      </trkpt>
      <trkpt lat="42.91881" lon="1.80984">
        <ele>561.3</ele>
        <time>2022-08-03T17:15:38.000Z</time>
      </trkpt>
      <trkpt lat="42.91883" lon="1.8099">
        <ele>561.4</ele>
        <time>2022-08-03T17:15:40.000Z</time>
      </trkpt>
      <trkpt lat="42.91886" lon="1.80998">
        <ele>561.5</ele>
        <time>2022-08-03T17:15:43.000Z</time>
      </trkpt>
      <trkpt lat="42.91888" lon="1.81004">
        <ele>561.8</ele>
        <time>2022-08-03T17:15:47.000Z</time>
      </trkpt>
      <trkpt lat="42.91889" lon="1.8101">
        <ele>563.8</ele>
        <time>2022-08-03T17:16:12.000Z</time>
      </trkpt>
      <trkpt lat="42.91892" lon="1.81018">
        <ele>565.1</ele>
        <time>2022-08-03T17:16:28.000Z</time>
      </trkpt>
      <trkpt lat="42.91894" lon="1.81025">
        <ele>565.3</ele>
        <time>2022-08-03T17:16:30.000Z</time>
      </trkpt>
      <trkpt lat="42.91895" lon="1.81032">
        <ele>565.5</ele>
        <time>2022-08-03T17:16:32.000Z</time>
      </trkpt>
      <trkpt lat="42.91898" lon="1.81038">
        <ele>565.6</ele>
        <time>2022-08-03T17:16:34.000Z</time>
      </trkpt>
      <trkpt lat="42.91901" lon="1.81042">
        <ele>565.8</ele>
        <time>2022-08-03T17:16:36.000Z</time>
      </trkpt>
      <trkpt lat="42.91904" lon="1.81051">
        <ele>566</ele>
        <time>2022-08-03T17:16:39.000Z</time>
      </trkpt>
      <trkpt lat="42.91908" lon="1.81058">
        <ele>566.2</ele>
        <time>2022-08-03T17:16:42.000Z</time>
      </trkpt>
      <trkpt lat="42.91912" lon="1.81065">
        <ele>566.5</ele>
        <time>2022-08-03T17:16:45.000Z</time>
      </trkpt>
      <trkpt lat="42.91915" lon="1.81071">
        <ele>566.6</ele>
        <time>2022-08-03T17:16:47.000Z</time>
      </trkpt>
      <trkpt lat="42.91918" lon="1.81078">
        <ele>566.8</ele>
        <time>2022-08-03T17:16:50.000Z</time>
      </trkpt>
      <trkpt lat="42.9192" lon="1.81084">
        <ele>566.9</ele>
        <time>2022-08-03T17:16:53.000Z</time>
      </trkpt>
      <trkpt lat="42.91921" lon="1.81091">
        <ele>567</ele>
        <time>2022-08-03T17:16:55.000Z</time>
      </trkpt>
      <trkpt lat="42.91922" lon="1.81099">
        <ele>567.1</ele>
        <time>2022-08-03T17:16:57.000Z</time>
      </trkpt>
      <trkpt lat="42.91924" lon="1.81109">
        <ele>567.2</ele>
        <time>2022-08-03T17:16:59.000Z</time>
      </trkpt>
      <trkpt lat="42.91927" lon="1.81125">
        <ele>567.4</ele>
        <time>2022-08-03T17:17:02.000Z</time>
      </trkpt>
      <trkpt lat="42.91927" lon="1.81132">
        <ele>567.4</ele>
        <time>2022-08-03T17:17:03.000Z</time>
      </trkpt>
      <trkpt lat="42.91927" lon="1.8114">
        <ele>567.4</ele>
        <time>2022-08-03T17:17:05.000Z</time>
      </trkpt>
      <trkpt lat="42.91925" lon="1.81147">
        <ele>567.4</ele>
        <time>2022-08-03T17:17:06.000Z</time>
      </trkpt>
      <trkpt lat="42.91922" lon="1.81153">
        <ele>567.3</ele>
        <time>2022-08-03T17:17:07.000Z</time>
      </trkpt>
      <trkpt lat="42.91918" lon="1.8116">
        <ele>567.3</ele>
        <time>2022-08-03T17:17:08.000Z</time>
      </trkpt>
      <trkpt lat="42.91913" lon="1.8117">
        <ele>567.1</ele>
        <time>2022-08-03T17:17:10.000Z</time>
      </trkpt>
      <trkpt lat="42.91911" lon="1.81175">
        <ele>567</ele>
        <time>2022-08-03T17:17:11.000Z</time>
      </trkpt>
      <trkpt lat="42.91908" lon="1.81181">
        <ele>567</ele>
        <time>2022-08-03T17:17:12.000Z</time>
      </trkpt>
      <trkpt lat="42.91906" lon="1.81187">
        <ele>566.9</ele>
        <time>2022-08-03T17:17:13.000Z</time>
      </trkpt>
      <trkpt lat="42.91903" lon="1.81199">
        <ele>566.7</ele>
        <time>2022-08-03T17:17:15.000Z</time>
      </trkpt>
      <trkpt lat="42.91902" lon="1.81206">
        <ele>566.6</ele>
        <time>2022-08-03T17:17:16.000Z</time>
      </trkpt>
      <trkpt lat="42.91898" lon="1.81218">
        <ele>566.4</ele>
        <time>2022-08-03T17:17:18.000Z</time>
      </trkpt>
      <trkpt lat="42.91896" lon="1.81225">
        <ele>566.3</ele>
        <time>2022-08-03T17:17:19.000Z</time>
      </trkpt>
      <trkpt lat="42.91894" lon="1.8123">
        <ele>566.2</ele>
        <time>2022-08-03T17:17:20.000Z</time>
      </trkpt>
      <trkpt lat="42.91892" lon="1.81237">
        <ele>566</ele>
        <time>2022-08-03T17:17:21.000Z</time>
      </trkpt>
      <trkpt lat="42.9189" lon="1.81248">
        <ele>565.7</ele>
        <time>2022-08-03T17:17:23.000Z</time>
      </trkpt>
      <trkpt lat="42.91887" lon="1.81259">
        <ele>565.5</ele>
        <time>2022-08-03T17:17:25.000Z</time>
      </trkpt>
      <trkpt lat="42.91884" lon="1.81269">
        <ele>565.3</ele>
        <time>2022-08-03T17:17:27.000Z</time>
      </trkpt>
      <trkpt lat="42.91877" lon="1.81276">
        <ele>565.1</ele>
        <time>2022-08-03T17:17:29.000Z</time>
      </trkpt>
      <trkpt lat="42.91873" lon="1.81281">
        <ele>565</ele>
        <time>2022-08-03T17:17:30.000Z</time>
      </trkpt>
      <trkpt lat="42.91865" lon="1.81284">
        <ele>564.8</ele>
        <time>2022-08-03T17:17:32.000Z</time>
      </trkpt>
      <trkpt lat="42.91858" lon="1.81289">
        <ele>564.7</ele>
        <time>2022-08-03T17:17:34.000Z</time>
      </trkpt>
      <trkpt lat="42.91852" lon="1.81295">
        <ele>564.4</ele>
        <time>2022-08-03T17:17:37.000Z</time>
      </trkpt>
      <trkpt lat="42.91849" lon="1.81303">
        <ele>562.8</ele>
        <time>2022-08-03T17:19:02.000Z</time>
      </trkpt>
      <trkpt lat="42.91849" lon="1.81312">
        <ele>562.8</ele>
        <time>2022-08-03T17:19:05.000Z</time>
      </trkpt>
      <trkpt lat="42.91849" lon="1.81319">
        <ele>562.8</ele>
        <time>2022-08-03T17:19:07.000Z</time>
      </trkpt>
      <trkpt lat="42.91849" lon="1.81328">
        <ele>562.8</ele>
        <time>2022-08-03T17:19:09.000Z</time>
      </trkpt>
      <trkpt lat="42.91849" lon="1.81336">
        <ele>562.8</ele>
        <time>2022-08-03T17:19:11.000Z</time>
      </trkpt>
      <trkpt lat="42.91848" lon="1.81343">
        <ele>562.8</ele>
        <time>2022-08-03T17:19:13.000Z</time>
      </trkpt>
      <trkpt lat="42.91848" lon="1.81352">
        <ele>562.8</ele>
        <time>2022-08-03T17:19:15.000Z</time>
      </trkpt>
      <trkpt lat="42.91846" lon="1.81361">
        <ele>562.8</ele>
        <time>2022-08-03T17:19:17.000Z</time>
      </trkpt>
      <trkpt lat="42.91845" lon="1.81368">
        <ele>562.8</ele>
        <time>2022-08-03T17:19:19.000Z</time>
      </trkpt>
      <trkpt lat="42.91844" lon="1.81376">
        <ele>562.9</ele>
        <time>2022-08-03T17:19:20.000Z</time>
      </trkpt>
      <trkpt lat="42.91845" lon="1.81385">
        <ele>562.9</ele>
        <time>2022-08-03T17:19:23.000Z</time>
      </trkpt>
      <trkpt lat="42.91845" lon="1.81391">
        <ele>562.9</ele>
        <time>2022-08-03T17:19:25.000Z</time>
      </trkpt>
      <trkpt lat="42.91844" lon="1.81398">
        <ele>563</ele>
        <time>2022-08-03T17:19:26.000Z</time>
      </trkpt>
      <trkpt lat="42.91844" lon="1.81405">
        <ele>563.1</ele>
        <time>2022-08-03T17:19:28.000Z</time>
      </trkpt>
      <trkpt lat="42.91843" lon="1.81413">
        <ele>563.2</ele>
        <time>2022-08-03T17:19:30.000Z</time>
      </trkpt>
      <trkpt lat="42.91843" lon="1.81422">
        <ele>563.3</ele>
        <time>2022-08-03T17:19:32.000Z</time>
      </trkpt>
      <trkpt lat="42.91843" lon="1.81429">
        <ele>563.4</ele>
        <time>2022-08-03T17:19:34.000Z</time>
      </trkpt>
      <trkpt lat="42.91843" lon="1.81435">
        <ele>563.5</ele>
        <time>2022-08-03T17:19:36.000Z</time>
      </trkpt>
      <trkpt lat="42.91842" lon="1.81443">
        <ele>563.6</ele>
        <time>2022-08-03T17:19:38.000Z</time>
      </trkpt>
      <trkpt lat="42.91842" lon="1.81449">
        <ele>563.6</ele>
        <time>2022-08-03T17:19:40.000Z</time>
      </trkpt>
      <trkpt lat="42.91842" lon="1.81458">
        <ele>563.7</ele>
        <time>2022-08-03T17:19:43.000Z</time>
      </trkpt>
      <trkpt lat="42.91842" lon="1.81464">
        <ele>563.7</ele>
        <time>2022-08-03T17:19:45.000Z</time>
      </trkpt>
      <trkpt lat="42.9184" lon="1.81476">
        <ele>563.8</ele>
        <time>2022-08-03T17:19:47.000Z</time>
      </trkpt>
      <trkpt lat="42.9184" lon="1.81484">
        <ele>563.9</ele>
        <time>2022-08-03T17:19:49.000Z</time>
      </trkpt>
      <trkpt lat="42.9184" lon="1.81493">
        <ele>563.9</ele>
        <time>2022-08-03T17:19:51.000Z</time>
      </trkpt>
      <trkpt lat="42.91842" lon="1.81499">
        <ele>564</ele>
        <time>2022-08-03T17:19:53.000Z</time>
      </trkpt>
      <trkpt lat="42.91842" lon="1.81506">
        <ele>564.2</ele>
        <time>2022-08-03T17:19:56.000Z</time>
      </trkpt>
      <trkpt lat="42.9184" lon="1.81534">
        <ele>565</ele>
        <time>2022-08-03T17:20:32.000Z</time>
      </trkpt>
      <trkpt lat="42.9184" lon="1.81549">
        <ele>565.3</ele>
        <time>2022-08-03T17:20:37.000Z</time>
      </trkpt>
      <trkpt lat="42.91842" lon="1.81556">
        <ele>565.3</ele>
        <time>2022-08-03T17:20:39.000Z</time>
      </trkpt>
      <trkpt lat="42.91844" lon="1.81563">
        <ele>565.4</ele>
        <time>2022-08-03T17:20:41.000Z</time>
      </trkpt>
      <trkpt lat="42.91845" lon="1.81572">
        <ele>565.5</ele>
        <time>2022-08-03T17:20:44.000Z</time>
      </trkpt>
      <trkpt lat="42.91846" lon="1.81578">
        <ele>565.5</ele>
        <time>2022-08-03T17:20:46.000Z</time>
      </trkpt>
      <trkpt lat="42.91846" lon="1.81586">
        <ele>565.7</ele>
        <time>2022-08-03T17:20:49.000Z</time>
      </trkpt>
      <trkpt lat="42.91848" lon="1.81593">
        <ele>565.8</ele>
        <time>2022-08-03T17:20:51.000Z</time>
      </trkpt>
      <trkpt lat="42.9185" lon="1.816">
        <ele>565.9</ele>
        <time>2022-08-03T17:20:53.000Z</time>
      </trkpt>
      <trkpt lat="42.91851" lon="1.81608">
        <ele>566</ele>
        <time>2022-08-03T17:20:55.000Z</time>
      </trkpt>
      <trkpt lat="42.91852" lon="1.81617">
        <ele>566.1</ele>
        <time>2022-08-03T17:20:57.000Z</time>
      </trkpt>
      <trkpt lat="42.91852" lon="1.81625">
        <ele>566.3</ele>
        <time>2022-08-03T17:20:59.000Z</time>
      </trkpt>
      <trkpt lat="42.91854" lon="1.81633">
        <ele>566.5</ele>
        <time>2022-08-03T17:21:01.000Z</time>
      </trkpt>
      <trkpt lat="42.91856" lon="1.81639">
        <ele>566.7</ele>
        <time>2022-08-03T17:21:03.000Z</time>
      </trkpt>
      <trkpt lat="42.91858" lon="1.81649">
        <ele>567</ele>
        <time>2022-08-03T17:21:06.000Z</time>
      </trkpt>
      <trkpt lat="42.9186" lon="1.81657">
        <ele>567.5</ele>
        <time>2022-08-03T17:21:10.000Z</time>
      </trkpt>
      <trkpt lat="42.91864" lon="1.81663">
        <ele>568</ele>
        <time>2022-08-03T17:21:14.000Z</time>
      </trkpt>
      <trkpt lat="42.91865" lon="1.8167">
        <ele>568.5</ele>
        <time>2022-08-03T17:21:18.000Z</time>
      </trkpt>
      <trkpt lat="42.91866" lon="1.81677">
        <ele>568.9</ele>
        <time>2022-08-03T17:21:22.000Z</time>
      </trkpt>
      <trkpt lat="42.91865" lon="1.81684">
        <ele>570.1</ele>
        <time>2022-08-03T17:21:30.000Z</time>
      </trkpt>
      <trkpt lat="42.91864" lon="1.8169">
        <ele>571.1</ele>
        <time>2022-08-03T17:21:37.000Z</time>
      </trkpt>
      <trkpt lat="42.91863" lon="1.81697">
        <ele>572</ele>
        <time>2022-08-03T17:21:43.000Z</time>
      </trkpt>
      <trkpt lat="42.91861" lon="1.81704">
        <ele>572.6</ele>
        <time>2022-08-03T17:21:48.000Z</time>
      </trkpt>
      <trkpt lat="42.91862" lon="1.8171">
        <ele>573.1</ele>
        <time>2022-08-03T17:21:52.000Z</time>
      </trkpt>
      <trkpt lat="42.9186" lon="1.81716">
        <ele>573.6</ele>
        <time>2022-08-03T17:21:58.000Z</time>
      </trkpt>
      <trkpt lat="42.91861" lon="1.81723">
        <ele>574.1</ele>
        <time>2022-08-03T17:22:06.000Z</time>
      </trkpt>
      <trkpt lat="42.91861" lon="1.8173">
        <ele>574.4</ele>
        <time>2022-08-03T17:22:09.000Z</time>
      </trkpt>
      <trkpt lat="42.91861" lon="1.81736">
        <ele>574.6</ele>
        <time>2022-08-03T17:22:12.000Z</time>
      </trkpt>
      <trkpt lat="42.91861" lon="1.81744">
        <ele>574.7</ele>
        <time>2022-08-03T17:22:15.000Z</time>
      </trkpt>
      <trkpt lat="42.91863" lon="1.81752">
        <ele>574.8</ele>
        <time>2022-08-03T17:22:18.000Z</time>
      </trkpt>
      <trkpt lat="42.91865" lon="1.8176">
        <ele>575</ele>
        <time>2022-08-03T17:22:21.000Z</time>
      </trkpt>
      <trkpt lat="42.91865" lon="1.81769">
        <ele>575.1</ele>
        <time>2022-08-03T17:22:24.000Z</time>
      </trkpt>
      <trkpt lat="42.91861" lon="1.81774">
        <ele>575.3</ele>
        <time>2022-08-03T17:22:27.000Z</time>
      </trkpt>
      <trkpt lat="42.91858" lon="1.8178">
        <ele>575.4</ele>
        <time>2022-08-03T17:22:30.000Z</time>
      </trkpt>
      <trkpt lat="42.91854" lon="1.81786">
        <ele>575.5</ele>
        <time>2022-08-03T17:22:33.000Z</time>
      </trkpt>
      <trkpt lat="42.91851" lon="1.81791">
        <ele>574.7</ele>
        <time>2022-08-03T17:23:09.000Z</time>
      </trkpt>
      <trkpt lat="42.9185" lon="1.81798">
        <ele>574.7</ele>
        <time>2022-08-03T17:23:11.000Z</time>
      </trkpt>
      <trkpt lat="42.91849" lon="1.81805">
        <ele>574.7</ele>
        <time>2022-08-03T17:23:13.000Z</time>
      </trkpt>
      <trkpt lat="42.91849" lon="1.81814">
        <ele>574.7</ele>
        <time>2022-08-03T17:23:16.000Z</time>
      </trkpt>
      <trkpt lat="42.9185" lon="1.81821">
        <ele>574.8</ele>
        <time>2022-08-03T17:23:18.000Z</time>
      </trkpt>
      <trkpt lat="42.91852" lon="1.81828">
        <ele>574.8</ele>
        <time>2022-08-03T17:23:20.000Z</time>
      </trkpt>
      <trkpt lat="42.91852" lon="1.81835">
        <ele>574.9</ele>
        <time>2022-08-03T17:23:22.000Z</time>
      </trkpt>
      <trkpt lat="42.91853" lon="1.81841">
        <ele>574.9</ele>
        <time>2022-08-03T17:23:24.000Z</time>
      </trkpt>
      <trkpt lat="42.91853" lon="1.8185">
        <ele>575</ele>
        <time>2022-08-03T17:23:27.000Z</time>
      </trkpt>
      <trkpt lat="42.91854" lon="1.81858">
        <ele>575.1</ele>
        <time>2022-08-03T17:23:30.000Z</time>
      </trkpt>
      <trkpt lat="42.91854" lon="1.81867">
        <ele>575.2</ele>
        <time>2022-08-03T17:23:33.000Z</time>
      </trkpt>
      <trkpt lat="42.91855" lon="1.81876">
        <ele>575.4</ele>
        <time>2022-08-03T17:23:36.000Z</time>
      </trkpt>
      <trkpt lat="42.91857" lon="1.81883">
        <ele>575.6</ele>
        <time>2022-08-03T17:23:38.000Z</time>
      </trkpt>
      <trkpt lat="42.91859" lon="1.8189">
        <ele>575.7</ele>
        <time>2022-08-03T17:23:40.000Z</time>
      </trkpt>
      <trkpt lat="42.91859" lon="1.81897">
        <ele>575.9</ele>
        <time>2022-08-03T17:23:42.000Z</time>
      </trkpt>
      <trkpt lat="42.91861" lon="1.81903">
        <ele>576.1</ele>
        <time>2022-08-03T17:23:44.000Z</time>
      </trkpt>
      <trkpt lat="42.91863" lon="1.81911">
        <ele>576.3</ele>
        <time>2022-08-03T17:23:47.000Z</time>
      </trkpt>
      <trkpt lat="42.91865" lon="1.81918">
        <ele>576.6</ele>
        <time>2022-08-03T17:23:49.000Z</time>
      </trkpt>
      <trkpt lat="42.91867" lon="1.81925">
        <ele>576.8</ele>
        <time>2022-08-03T17:23:51.000Z</time>
      </trkpt>
      <trkpt lat="42.91871" lon="1.81932">
        <ele>577.2</ele>
        <time>2022-08-03T17:23:54.000Z</time>
      </trkpt>
      <trkpt lat="42.91875" lon="1.81938">
        <ele>577.5</ele>
        <time>2022-08-03T17:23:57.000Z</time>
      </trkpt>
      <trkpt lat="42.91877" lon="1.81944">
        <ele>577.8</ele>
        <time>2022-08-03T17:24:00.000Z</time>
      </trkpt>
      <trkpt lat="42.9188" lon="1.81952">
        <ele>578</ele>
        <time>2022-08-03T17:24:03.000Z</time>
      </trkpt>
      <trkpt lat="42.91882" lon="1.81959">
        <ele>578.1</ele>
        <time>2022-08-03T17:24:05.000Z</time>
      </trkpt>
      <trkpt lat="42.91884" lon="1.81965">
        <ele>578.3</ele>
        <time>2022-08-03T17:24:07.000Z</time>
      </trkpt>
      <trkpt lat="42.91885" lon="1.81972">
        <ele>578.4</ele>
        <time>2022-08-03T17:24:09.000Z</time>
      </trkpt>
      <trkpt lat="42.91887" lon="1.8198">
        <ele>578.6</ele>
        <time>2022-08-03T17:24:11.000Z</time>
      </trkpt>
      <trkpt lat="42.91888" lon="1.81987">
        <ele>578.7</ele>
        <time>2022-08-03T17:24:13.000Z</time>
      </trkpt>
      <trkpt lat="42.91889" lon="1.81994">
        <ele>578.8</ele>
        <time>2022-08-03T17:24:15.000Z</time>
      </trkpt>
      <trkpt lat="42.91891" lon="1.82001">
        <ele>579</ele>
        <time>2022-08-03T17:24:17.000Z</time>
      </trkpt>
      <trkpt lat="42.91891" lon="1.82007">
        <ele>579.1</ele>
        <time>2022-08-03T17:24:19.000Z</time>
      </trkpt>
      <trkpt lat="42.91889" lon="1.82013">
        <ele>579.2</ele>
        <time>2022-08-03T17:24:21.000Z</time>
      </trkpt>
      <trkpt lat="42.91888" lon="1.8202">
        <ele>579.4</ele>
        <time>2022-08-03T17:24:23.000Z</time>
      </trkpt>
      <trkpt lat="42.9189" lon="1.82028">
        <ele>579.6</ele>
        <time>2022-08-03T17:24:26.000Z</time>
      </trkpt>
      <trkpt lat="42.91892" lon="1.82034">
        <ele>579.8</ele>
        <time>2022-08-03T17:24:28.000Z</time>
      </trkpt>
      <trkpt lat="42.91894" lon="1.82042">
        <ele>580</ele>
        <time>2022-08-03T17:24:31.000Z</time>
      </trkpt>
      <trkpt lat="42.91896" lon="1.8205">
        <ele>580.2</ele>
        <time>2022-08-03T17:24:34.000Z</time>
      </trkpt>
      <trkpt lat="42.91898" lon="1.82057">
        <ele>580.5</ele>
        <time>2022-08-03T17:24:37.000Z</time>
      </trkpt>
      <trkpt lat="42.919" lon="1.82063">
        <ele>580.7</ele>
        <time>2022-08-03T17:24:39.000Z</time>
      </trkpt>
      <trkpt lat="42.91903" lon="1.82071">
        <ele>580.9</ele>
        <time>2022-08-03T17:24:42.000Z</time>
      </trkpt>
      <trkpt lat="42.91905" lon="1.82079">
        <ele>581.1</ele>
        <time>2022-08-03T17:24:44.000Z</time>
      </trkpt>
      <trkpt lat="42.91908" lon="1.82085">
        <ele>581.2</ele>
        <time>2022-08-03T17:24:46.000Z</time>
      </trkpt>
      <trkpt lat="42.9191" lon="1.82091">
        <ele>581.4</ele>
        <time>2022-08-03T17:24:48.000Z</time>
      </trkpt>
      <trkpt lat="42.91911" lon="1.82097">
        <ele>581.5</ele>
        <time>2022-08-03T17:24:50.000Z</time>
      </trkpt>
      <trkpt lat="42.91913" lon="1.82106">
        <ele>581.7</ele>
        <time>2022-08-03T17:24:53.000Z</time>
      </trkpt>
      <trkpt lat="42.91915" lon="1.82113">
        <ele>581.9</ele>
        <time>2022-08-03T17:24:56.000Z</time>
      </trkpt>
      <trkpt lat="42.91916" lon="1.82122">
        <ele>582.1</ele>
        <time>2022-08-03T17:24:59.000Z</time>
      </trkpt>
      <trkpt lat="42.91918" lon="1.82129">
        <ele>582.2</ele>
        <time>2022-08-03T17:25:02.000Z</time>
      </trkpt>
      <trkpt lat="42.9192" lon="1.82136">
        <ele>582.5</ele>
        <time>2022-08-03T17:25:05.000Z</time>
      </trkpt>
      <trkpt lat="42.91924" lon="1.82142">
        <ele>582.7</ele>
        <time>2022-08-03T17:25:08.000Z</time>
      </trkpt>
      <trkpt lat="42.91928" lon="1.82149">
        <ele>582.9</ele>
        <time>2022-08-03T17:25:11.000Z</time>
      </trkpt>
      <trkpt lat="42.91931" lon="1.82157">
        <ele>583.2</ele>
        <time>2022-08-03T17:25:14.000Z</time>
      </trkpt>
      <trkpt lat="42.91933" lon="1.82164">
        <ele>583.4</ele>
        <time>2022-08-03T17:25:16.000Z</time>
      </trkpt>
      <trkpt lat="42.91936" lon="1.82174">
        <ele>583.5</ele>
        <time>2022-08-03T17:25:18.000Z</time>
      </trkpt>
      <trkpt lat="42.91937" lon="1.8218">
        <ele>583.5</ele>
        <time>2022-08-03T17:25:19.000Z</time>
      </trkpt>
      <trkpt lat="42.91939" lon="1.82186">
        <ele>583.6</ele>
        <time>2022-08-03T17:25:20.000Z</time>
      </trkpt>
      <trkpt lat="42.91943" lon="1.82197">
        <ele>583.6</ele>
        <time>2022-08-03T17:25:22.000Z</time>
      </trkpt>
      <trkpt lat="42.91945" lon="1.82203">
        <ele>583.6</ele>
        <time>2022-08-03T17:25:23.000Z</time>
      </trkpt>
      <trkpt lat="42.91948" lon="1.82209">
        <ele>583.6</ele>
        <time>2022-08-03T17:25:24.000Z</time>
      </trkpt>
      <trkpt lat="42.91948" lon="1.82216">
        <ele>583.6</ele>
        <time>2022-08-03T17:25:25.000Z</time>
      </trkpt>
      <trkpt lat="42.91947" lon="1.82225">
        <ele>583.6</ele>
        <time>2022-08-03T17:25:27.000Z</time>
      </trkpt>
      <trkpt lat="42.91942" lon="1.82236">
        <ele>583.6</ele>
        <time>2022-08-03T17:25:29.000Z</time>
      </trkpt>
      <trkpt lat="42.91939" lon="1.82243">
        <ele>583.6</ele>
        <time>2022-08-03T17:25:31.000Z</time>
      </trkpt>
      <trkpt lat="42.91937" lon="1.82252">
        <ele>583.5</ele>
        <time>2022-08-03T17:25:34.000Z</time>
      </trkpt>
      <trkpt lat="42.91935" lon="1.8226">
        <ele>583.4</ele>
        <time>2022-08-03T17:25:36.000Z</time>
      </trkpt>
      <trkpt lat="42.91933" lon="1.82267">
        <ele>583.3</ele>
        <time>2022-08-03T17:25:38.000Z</time>
      </trkpt>
      <trkpt lat="42.91933" lon="1.82277">
        <ele>583.2</ele>
        <time>2022-08-03T17:25:40.000Z</time>
      </trkpt>
      <trkpt lat="42.91933" lon="1.82289">
        <ele>583</ele>
        <time>2022-08-03T17:25:42.000Z</time>
      </trkpt>
      <trkpt lat="42.91934" lon="1.82302">
        <ele>582.9</ele>
        <time>2022-08-03T17:25:44.000Z</time>
      </trkpt>
      <trkpt lat="42.91934" lon="1.82309">
        <ele>582.8</ele>
        <time>2022-08-03T17:25:45.000Z</time>
      </trkpt>
      <trkpt lat="42.91935" lon="1.82315">
        <ele>582.8</ele>
        <time>2022-08-03T17:25:46.000Z</time>
      </trkpt>
      <trkpt lat="42.91935" lon="1.82323">
        <ele>582.7</ele>
        <time>2022-08-03T17:25:47.000Z</time>
      </trkpt>
      <trkpt lat="42.91935" lon="1.82333">
        <ele>582.6</ele>
        <time>2022-08-03T17:25:49.000Z</time>
      </trkpt>
      <trkpt lat="42.91936" lon="1.82343">
        <ele>582.4</ele>
        <time>2022-08-03T17:25:51.000Z</time>
      </trkpt>
      <trkpt lat="42.91936" lon="1.82355">
        <ele>582.2</ele>
        <time>2022-08-03T17:25:53.000Z</time>
      </trkpt>
      <trkpt lat="42.91935" lon="1.82362">
        <ele>582.1</ele>
        <time>2022-08-03T17:25:54.000Z</time>
      </trkpt>
      <trkpt lat="42.91935" lon="1.82368">
        <ele>582</ele>
        <time>2022-08-03T17:25:55.000Z</time>
      </trkpt>
      <trkpt lat="42.91933" lon="1.82377">
        <ele>581.8</ele>
        <time>2022-08-03T17:25:56.000Z</time>
      </trkpt>
      <trkpt lat="42.91934" lon="1.82385">
        <ele>581.6</ele>
        <time>2022-08-03T17:25:57.000Z</time>
      </trkpt>
      <trkpt lat="42.91934" lon="1.82393">
        <ele>581.5</ele>
        <time>2022-08-03T17:25:58.000Z</time>
      </trkpt>
      <trkpt lat="42.91935" lon="1.82402">
        <ele>581.3</ele>
        <time>2022-08-03T17:25:59.000Z</time>
      </trkpt>
      <trkpt lat="42.91937" lon="1.82411">
        <ele>581</ele>
        <time>2022-08-03T17:26:00.000Z</time>
      </trkpt>
      <trkpt lat="42.91939" lon="1.8242">
        <ele>580.8</ele>
        <time>2022-08-03T17:26:01.000Z</time>
      </trkpt>
      <trkpt lat="42.9194" lon="1.82431">
        <ele>580.5</ele>
        <time>2022-08-03T17:26:02.000Z</time>
      </trkpt>
      <trkpt lat="42.91942" lon="1.82441">
        <ele>580.3</ele>
        <time>2022-08-03T17:26:03.000Z</time>
      </trkpt>
      <trkpt lat="42.91944" lon="1.8245">
        <ele>580.1</ele>
        <time>2022-08-03T17:26:04.000Z</time>
      </trkpt>
      <trkpt lat="42.91945" lon="1.8246">
        <ele>579.9</ele>
        <time>2022-08-03T17:26:05.000Z</time>
      </trkpt>
      <trkpt lat="42.91945" lon="1.82469">
        <ele>579.7</ele>
        <time>2022-08-03T17:26:06.000Z</time>
      </trkpt>
      <trkpt lat="42.91944" lon="1.82477">
        <ele>579.5</ele>
        <time>2022-08-03T17:26:07.000Z</time>
      </trkpt>
      <trkpt lat="42.91944" lon="1.82485">
        <ele>579.3</ele>
        <time>2022-08-03T17:26:08.000Z</time>
      </trkpt>
      <trkpt lat="42.91945" lon="1.82493">
        <ele>579</ele>
        <time>2022-08-03T17:26:09.000Z</time>
      </trkpt>
      <trkpt lat="42.91945" lon="1.82501">
        <ele>578.8</ele>
        <time>2022-08-03T17:26:10.000Z</time>
      </trkpt>
      <trkpt lat="42.91946" lon="1.82509">
        <ele>578.5</ele>
        <time>2022-08-03T17:26:11.000Z</time>
      </trkpt>
      <trkpt lat="42.91947" lon="1.82517">
        <ele>578.2</ele>
        <time>2022-08-03T17:26:12.000Z</time>
      </trkpt>
      <trkpt lat="42.91948" lon="1.82525">
        <ele>577.9</ele>
        <time>2022-08-03T17:26:13.000Z</time>
      </trkpt>
      <trkpt lat="42.91948" lon="1.82532">
        <ele>577.5</ele>
        <time>2022-08-03T17:26:14.000Z</time>
      </trkpt>
      <trkpt lat="42.91949" lon="1.82538">
        <ele>577.2</ele>
        <time>2022-08-03T17:26:15.000Z</time>
      </trkpt>
      <trkpt lat="42.91952" lon="1.82544">
        <ele>576.9</ele>
        <time>2022-08-03T17:26:16.000Z</time>
      </trkpt>
      <trkpt lat="42.91955" lon="1.8255">
        <ele>576.6</ele>
        <time>2022-08-03T17:26:17.000Z</time>
      </trkpt>
      <trkpt lat="42.91958" lon="1.82557">
        <ele>576.2</ele>
        <time>2022-08-03T17:26:18.000Z</time>
      </trkpt>
      <trkpt lat="42.91961" lon="1.82566">
        <ele>575.9</ele>
        <time>2022-08-03T17:26:19.000Z</time>
      </trkpt>
      <trkpt lat="42.91961" lon="1.82584">
        <ele>575.6</ele>
        <time>2022-08-03T17:26:20.000Z</time>
      </trkpt>
      <trkpt lat="42.91959" lon="1.82603">
        <ele>575.3</ele>
        <time>2022-08-03T17:26:21.000Z</time>
      </trkpt>
      <trkpt lat="42.91958" lon="1.8262">
        <ele>574.9</ele>
        <time>2022-08-03T17:26:22.000Z</time>
      </trkpt>
      <trkpt lat="42.91956" lon="1.82639">
        <ele>574.6</ele>
        <time>2022-08-03T17:26:23.000Z</time>
      </trkpt>
      <trkpt lat="42.91955" lon="1.82654">
        <ele>574.2</ele>
        <time>2022-08-03T17:26:24.000Z</time>
      </trkpt>
      <trkpt lat="42.91957" lon="1.82667">
        <ele>573.9</ele>
        <time>2022-08-03T17:26:25.000Z</time>
      </trkpt>
      <trkpt lat="42.9196" lon="1.82677">
        <ele>573.6</ele>
        <time>2022-08-03T17:26:26.000Z</time>
      </trkpt>
      <trkpt lat="42.91963" lon="1.82686">
        <ele>573.3</ele>
        <time>2022-08-03T17:26:27.000Z</time>
      </trkpt>
      <trkpt lat="42.91966" lon="1.82696">
        <ele>572.9</ele>
        <time>2022-08-03T17:26:28.000Z</time>
      </trkpt>
      <trkpt lat="42.91968" lon="1.82704">
        <ele>572.6</ele>
        <time>2022-08-03T17:26:29.000Z</time>
      </trkpt>
      <trkpt lat="42.91971" lon="1.82711">
        <ele>572.3</ele>
        <time>2022-08-03T17:26:30.000Z</time>
      </trkpt>
      <trkpt lat="42.91973" lon="1.82718">
        <ele>572</ele>
        <time>2022-08-03T17:26:31.000Z</time>
      </trkpt>
      <trkpt lat="42.91976" lon="1.82724">
        <ele>571.7</ele>
        <time>2022-08-03T17:26:32.000Z</time>
      </trkpt>
      <trkpt lat="42.91978" lon="1.82729">
        <ele>571.4</ele>
        <time>2022-08-03T17:26:33.000Z</time>
      </trkpt>
      <trkpt lat="42.91981" lon="1.82735">
        <ele>571.1</ele>
        <time>2022-08-03T17:26:34.000Z</time>
      </trkpt>
      <trkpt lat="42.91985" lon="1.82741">
        <ele>570.8</ele>
        <time>2022-08-03T17:26:35.000Z</time>
      </trkpt>
      <trkpt lat="42.91988" lon="1.82746">
        <ele>570.4</ele>
        <time>2022-08-03T17:26:36.000Z</time>
      </trkpt>
      <trkpt lat="42.91992" lon="1.82751">
        <ele>570.1</ele>
        <time>2022-08-03T17:26:37.000Z</time>
      </trkpt>
      <trkpt lat="42.91996" lon="1.82754">
        <ele>569.7</ele>
        <time>2022-08-03T17:26:38.000Z</time>
      </trkpt>
      <trkpt lat="42.92001" lon="1.82757">
        <ele>569.4</ele>
        <time>2022-08-03T17:26:39.000Z</time>
      </trkpt>
      <trkpt lat="42.92005" lon="1.82761">
        <ele>569.1</ele>
        <time>2022-08-03T17:26:40.000Z</time>
      </trkpt>
      <trkpt lat="42.92009" lon="1.82765">
        <ele>568.8</ele>
        <time>2022-08-03T17:26:41.000Z</time>
      </trkpt>
      <trkpt lat="42.92013" lon="1.8277">
        <ele>568.5</ele>
        <time>2022-08-03T17:26:42.000Z</time>
      </trkpt>
      <trkpt lat="42.92018" lon="1.82774">
        <ele>568.2</ele>
        <time>2022-08-03T17:26:43.000Z</time>
      </trkpt>
      <trkpt lat="42.92021" lon="1.82778">
        <ele>567.9</ele>
        <time>2022-08-03T17:26:44.000Z</time>
      </trkpt>
      <trkpt lat="42.92029" lon="1.82778">
        <ele>567.5</ele>
        <time>2022-08-03T17:26:46.000Z</time>
      </trkpt>
      <trkpt lat="42.92033" lon="1.82774">
        <ele>567.2</ele>
        <time>2022-08-03T17:26:47.000Z</time>
      </trkpt>
      <trkpt lat="42.92037" lon="1.82769">
        <ele>567</ele>
        <time>2022-08-03T17:26:48.000Z</time>
      </trkpt>
      <trkpt lat="42.9204" lon="1.82764">
        <ele>566.8</ele>
        <time>2022-08-03T17:26:49.000Z</time>
      </trkpt>
      <trkpt lat="42.92045" lon="1.82757">
        <ele>566.5</ele>
        <time>2022-08-03T17:26:51.000Z</time>
      </trkpt>
      <trkpt lat="42.9205" lon="1.8275">
        <ele>566.2</ele>
        <time>2022-08-03T17:26:53.000Z</time>
      </trkpt>
      <trkpt lat="42.92054" lon="1.82744">
        <ele>565.9</ele>
        <time>2022-08-03T17:26:55.000Z</time>
      </trkpt>
      <trkpt lat="42.9206" lon="1.82738">
        <ele>565.6</ele>
        <time>2022-08-03T17:26:57.000Z</time>
      </trkpt>
      <trkpt lat="42.92066" lon="1.8273">
        <ele>565.4</ele>
        <time>2022-08-03T17:26:59.000Z</time>
      </trkpt>
      <trkpt lat="42.92069" lon="1.82726">
        <ele>565.3</ele>
        <time>2022-08-03T17:27:00.000Z</time>
      </trkpt>
      <trkpt lat="42.92073" lon="1.82716">
        <ele>565.2</ele>
        <time>2022-08-03T17:27:02.000Z</time>
      </trkpt>
      <trkpt lat="42.92076" lon="1.82711">
        <ele>565.1</ele>
        <time>2022-08-03T17:27:03.000Z</time>
      </trkpt>
      <trkpt lat="42.92079" lon="1.82706">
        <ele>565.1</ele>
        <time>2022-08-03T17:27:04.000Z</time>
      </trkpt>
      <trkpt lat="42.92086" lon="1.82699">
        <ele>564.9</ele>
        <time>2022-08-03T17:27:06.000Z</time>
      </trkpt>
      <trkpt lat="42.9209" lon="1.82696">
        <ele>564.9</ele>
        <time>2022-08-03T17:27:07.000Z</time>
      </trkpt>
      <trkpt lat="42.92095" lon="1.82694">
        <ele>564.8</ele>
        <time>2022-08-03T17:27:08.000Z</time>
      </trkpt>
      <trkpt lat="42.92103" lon="1.82692">
        <ele>564.8</ele>
        <time>2022-08-03T17:27:10.000Z</time>
      </trkpt>
      <trkpt lat="42.92111" lon="1.82691">
        <ele>564.7</ele>
        <time>2022-08-03T17:27:12.000Z</time>
      </trkpt>
      <trkpt lat="42.92119" lon="1.82691">
        <ele>564.6</ele>
        <time>2022-08-03T17:27:14.000Z</time>
      </trkpt>
      <trkpt lat="42.92128" lon="1.82691">
        <ele>564.5</ele>
        <time>2022-08-03T17:27:16.000Z</time>
      </trkpt>
      <trkpt lat="42.92133" lon="1.8269">
        <ele>564.5</ele>
        <time>2022-08-03T17:27:17.000Z</time>
      </trkpt>
      <trkpt lat="42.92141" lon="1.82688">
        <ele>564.5</ele>
        <time>2022-08-03T17:27:19.000Z</time>
      </trkpt>
      <trkpt lat="42.92148" lon="1.82688">
        <ele>564.4</ele>
        <time>2022-08-03T17:27:21.000Z</time>
      </trkpt>
      <trkpt lat="42.92154" lon="1.82693">
        <ele>564.4</ele>
        <time>2022-08-03T17:27:23.000Z</time>
      </trkpt>
      <trkpt lat="42.92159" lon="1.827">
        <ele>564.4</ele>
        <time>2022-08-03T17:27:25.000Z</time>
      </trkpt>
      <trkpt lat="42.92166" lon="1.82707">
        <ele>564.4</ele>
        <time>2022-08-03T17:27:27.000Z</time>
      </trkpt>
      <trkpt lat="42.92168" lon="1.82714">
        <ele>564.5</ele>
        <time>2022-08-03T17:27:29.000Z</time>
      </trkpt>
      <trkpt lat="42.9217" lon="1.82721">
        <ele>564.5</ele>
        <time>2022-08-03T17:27:31.000Z</time>
      </trkpt>
      <trkpt lat="42.9217" lon="1.82728">
        <ele>564.5</ele>
        <time>2022-08-03T17:27:33.000Z</time>
      </trkpt>
      <trkpt lat="42.92171" lon="1.82721">
        <ele>564.6</ele>
        <time>2022-08-03T17:27:39.000Z</time>
      </trkpt>
      <trkpt lat="42.92169" lon="1.82715">
        <ele>564.6</ele>
        <time>2022-08-03T17:27:41.000Z</time>
      </trkpt>
      <trkpt lat="42.92168" lon="1.82709">
        <ele>564.6</ele>
        <time>2022-08-03T17:27:43.000Z</time>
      </trkpt>
      <trkpt lat="42.92166" lon="1.82701">
        <ele>564.6</ele>
        <time>2022-08-03T17:27:46.000Z</time>
      </trkpt>
      <trkpt lat="42.92163" lon="1.82696">
        <ele>564.7</ele>
        <time>2022-08-03T17:27:49.000Z</time>
      </trkpt>
      <trkpt lat="42.92161" lon="1.82689">
        <ele>564.7</ele>
        <time>2022-08-03T17:27:51.000Z</time>
      </trkpt>
      <trkpt lat="42.92161" lon="1.82681">
        <ele>564.7</ele>
        <time>2022-08-03T17:27:53.000Z</time>
      </trkpt>
      <trkpt lat="42.92165" lon="1.82674">
        <ele>564.7</ele>
        <time>2022-08-03T17:27:56.000Z</time>
      </trkpt>
      <trkpt lat="42.92169" lon="1.8267">
        <ele>564.7</ele>
        <time>2022-08-03T17:27:59.000Z</time>
      </trkpt>
      <trkpt lat="42.92174" lon="1.82667">
        <ele>564.8</ele>
        <time>2022-08-03T17:28:02.000Z</time>
      </trkpt>
      <trkpt lat="42.92178" lon="1.82662">
        <ele>565</ele>
        <time>2022-08-03T17:28:05.000Z</time>
      </trkpt>
      <trkpt lat="42.92179" lon="1.82656">
        <ele>565.1</ele>
        <time>2022-08-03T17:28:07.000Z</time>
      </trkpt>
      <trkpt lat="42.92181" lon="1.82649">
        <ele>565.3</ele>
        <time>2022-08-03T17:28:10.000Z</time>
      </trkpt>
      <trkpt lat="42.92182" lon="1.8264">
        <ele>565.5</ele>
        <time>2022-08-03T17:28:13.000Z</time>
      </trkpt>
      <trkpt lat="42.92179" lon="1.82635">
        <ele>565.8</ele>
        <time>2022-08-03T17:28:16.000Z</time>
      </trkpt>
      <trkpt lat="42.92177" lon="1.82628">
        <ele>566.2</ele>
        <time>2022-08-03T17:28:20.000Z</time>
      </trkpt>
      <trkpt lat="42.92175" lon="1.82624">
        <ele>566.4</ele>
        <time>2022-08-03T17:28:23.000Z</time>
      </trkpt>
      <trkpt lat="42.92174" lon="1.82617">
        <ele>566.8</ele>
        <time>2022-08-03T17:28:27.000Z</time>
      </trkpt>
      <trkpt lat="42.92175" lon="1.82611">
        <ele>567.5</ele>
        <time>2022-08-03T17:28:33.000Z</time>
      </trkpt>
      <trkpt lat="42.92179" lon="1.82608">
        <ele>568.1</ele>
        <time>2022-08-03T17:28:38.000Z</time>
      </trkpt>
      <trkpt lat="42.92183" lon="1.82605">
        <ele>568.6</ele>
        <time>2022-08-03T17:28:42.000Z</time>
      </trkpt>
      <trkpt lat="42.92188" lon="1.82601">
        <ele>569.3</ele>
        <time>2022-08-03T17:28:47.000Z</time>
      </trkpt>
      <trkpt lat="42.92192" lon="1.82598">
        <ele>570</ele>
        <time>2022-08-03T17:28:52.000Z</time>
      </trkpt>
      <trkpt lat="42.92196" lon="1.82595">
        <ele>570.6</ele>
        <time>2022-08-03T17:28:57.000Z</time>
      </trkpt>
      <trkpt lat="42.92201" lon="1.82592">
        <ele>571.3</ele>
        <time>2022-08-03T17:29:02.000Z</time>
      </trkpt>
      <trkpt lat="42.92206" lon="1.8259">
        <ele>572.1</ele>
        <time>2022-08-03T17:29:08.000Z</time>
      </trkpt>
      <trkpt lat="42.92211" lon="1.82589">
        <ele>572.9</ele>
        <time>2022-08-03T17:29:14.000Z</time>
      </trkpt>
      <trkpt lat="42.92216" lon="1.82589">
        <ele>573.5</ele>
        <time>2022-08-03T17:29:19.000Z</time>
      </trkpt>
      <trkpt lat="42.92221" lon="1.82591">
        <ele>574.3</ele>
        <time>2022-08-03T17:29:25.000Z</time>
      </trkpt>
      <trkpt lat="42.92225" lon="1.82594">
        <ele>575</ele>
        <time>2022-08-03T17:29:30.000Z</time>
      </trkpt>
      <trkpt lat="42.9223" lon="1.82598">
        <ele>575.7</ele>
        <time>2022-08-03T17:29:35.000Z</time>
      </trkpt>
      <trkpt lat="42.92234" lon="1.82603">
        <ele>576.4</ele>
        <time>2022-08-03T17:29:40.000Z</time>
      </trkpt>
      <trkpt lat="42.92237" lon="1.82607">
        <ele>577</ele>
        <time>2022-08-03T17:29:44.000Z</time>
      </trkpt>
      <trkpt lat="42.92241" lon="1.82612">
        <ele>577.7</ele>
        <time>2022-08-03T17:29:49.000Z</time>
      </trkpt>
      <trkpt lat="42.92246" lon="1.82615">
        <ele>578.4</ele>
        <time>2022-08-03T17:29:54.000Z</time>
      </trkpt>
      <trkpt lat="42.92249" lon="1.8262">
        <ele>579</ele>
        <time>2022-08-03T17:29:59.000Z</time>
      </trkpt>
      <trkpt lat="42.92253" lon="1.82624">
        <ele>579.8</ele>
        <time>2022-08-03T17:30:05.000Z</time>
      </trkpt>
      <trkpt lat="42.92256" lon="1.82629">
        <ele>580.3</ele>
        <time>2022-08-03T17:30:09.000Z</time>
      </trkpt>
      <trkpt lat="42.92259" lon="1.82633">
        <ele>580.7</ele>
        <time>2022-08-03T17:30:12.000Z</time>
      </trkpt>
      <trkpt lat="42.92262" lon="1.82638">
        <ele>581.4</ele>
        <time>2022-08-03T17:30:16.000Z</time>
      </trkpt>
      <trkpt lat="42.92265" lon="1.82643">
        <ele>582.2</ele>
        <time>2022-08-03T17:30:22.000Z</time>
      </trkpt>
      <trkpt lat="42.9227" lon="1.82647">
        <ele>582.8</ele>
        <time>2022-08-03T17:30:27.000Z</time>
      </trkpt>
      <trkpt lat="42.92275" lon="1.82652">
        <ele>583.4</ele>
        <time>2022-08-03T17:30:32.000Z</time>
      </trkpt>
      <trkpt lat="42.92278" lon="1.82656">
        <ele>583.8</ele>
        <time>2022-08-03T17:30:36.000Z</time>
      </trkpt>
      <trkpt lat="42.92281" lon="1.82661">
        <ele>584.4</ele>
        <time>2022-08-03T17:30:40.000Z</time>
      </trkpt>
      <trkpt lat="42.92284" lon="1.82667">
        <ele>584.9</ele>
        <time>2022-08-03T17:30:44.000Z</time>
      </trkpt>
      <trkpt lat="42.92288" lon="1.82672">
        <ele>585.5</ele>
        <time>2022-08-03T17:30:49.000Z</time>
      </trkpt>
      <trkpt lat="42.9229" lon="1.82678">
        <ele>585.9</ele>
        <time>2022-08-03T17:30:53.000Z</time>
      </trkpt>
      <trkpt lat="42.92292" lon="1.82685">
        <ele>586.4</ele>
        <time>2022-08-03T17:30:58.000Z</time>
      </trkpt>
      <trkpt lat="42.92295" lon="1.8269">
        <ele>588.3</ele>
        <time>2022-08-03T17:31:50.000Z</time>
      </trkpt>
      <trkpt lat="42.92294" lon="1.82696">
        <ele>588.3</ele>
        <time>2022-08-03T17:31:53.000Z</time>
      </trkpt>
      <trkpt lat="42.92296" lon="1.82705">
        <ele>588.3</ele>
        <time>2022-08-03T17:31:55.000Z</time>
      </trkpt>
      <trkpt lat="42.92298" lon="1.82714">
        <ele>588.3</ele>
        <time>2022-08-03T17:31:57.000Z</time>
      </trkpt>
      <trkpt lat="42.92299" lon="1.82726">
        <ele>588.2</ele>
        <time>2022-08-03T17:31:59.000Z</time>
      </trkpt>
      <trkpt lat="42.92301" lon="1.82734">
        <ele>588.1</ele>
        <time>2022-08-03T17:32:00.000Z</time>
      </trkpt>
      <trkpt lat="42.92303" lon="1.82743">
        <ele>587.9</ele>
        <time>2022-08-03T17:32:01.000Z</time>
      </trkpt>
      <trkpt lat="42.92305" lon="1.82753">
        <ele>587.7</ele>
        <time>2022-08-03T17:32:02.000Z</time>
      </trkpt>
      <trkpt lat="42.92305" lon="1.82768">
        <ele>587.5</ele>
        <time>2022-08-03T17:32:03.000Z</time>
      </trkpt>
      <trkpt lat="42.92308" lon="1.8278">
        <ele>587.2</ele>
        <time>2022-08-03T17:32:04.000Z</time>
      </trkpt>
      <trkpt lat="42.92311" lon="1.82794">
        <ele>586.9</ele>
        <time>2022-08-03T17:32:05.000Z</time>
      </trkpt>
      <trkpt lat="42.92313" lon="1.82809">
        <ele>586.6</ele>
        <time>2022-08-03T17:32:06.000Z</time>
      </trkpt>
      <trkpt lat="42.92314" lon="1.82825">
        <ele>586.2</ele>
        <time>2022-08-03T17:32:07.000Z</time>
      </trkpt>
      <trkpt lat="42.92315" lon="1.82842">
        <ele>585.7</ele>
        <time>2022-08-03T17:32:08.000Z</time>
      </trkpt>
      <trkpt lat="42.92314" lon="1.82859">
        <ele>585.2</ele>
        <time>2022-08-03T17:32:09.000Z</time>
      </trkpt>
      <trkpt lat="42.92311" lon="1.82876">
        <ele>584.7</ele>
        <time>2022-08-03T17:32:10.000Z</time>
      </trkpt>
      <trkpt lat="42.92306" lon="1.8289">
        <ele>584.1</ele>
        <time>2022-08-03T17:32:11.000Z</time>
      </trkpt>
      <trkpt lat="42.92298" lon="1.82906">
        <ele>583.6</ele>
        <time>2022-08-03T17:32:12.000Z</time>
      </trkpt>
      <trkpt lat="42.92292" lon="1.82919">
        <ele>583.1</ele>
        <time>2022-08-03T17:32:13.000Z</time>
      </trkpt>
      <trkpt lat="42.92288" lon="1.82932">
        <ele>582.4</ele>
        <time>2022-08-03T17:32:14.000Z</time>
      </trkpt>
      <trkpt lat="42.92286" lon="1.82946">
        <ele>581.8</ele>
        <time>2022-08-03T17:32:15.000Z</time>
      </trkpt>
      <trkpt lat="42.92286" lon="1.82962">
        <ele>581</ele>
        <time>2022-08-03T17:32:16.000Z</time>
      </trkpt>
      <trkpt lat="42.92288" lon="1.82979">
        <ele>580.3</ele>
        <time>2022-08-03T17:32:17.000Z</time>
      </trkpt>
      <trkpt lat="42.9229" lon="1.82999">
        <ele>579.5</ele>
        <time>2022-08-03T17:32:18.000Z</time>
      </trkpt>
      <trkpt lat="42.92294" lon="1.83017">
        <ele>578.8</ele>
        <time>2022-08-03T17:32:19.000Z</time>
      </trkpt>
      <trkpt lat="42.92298" lon="1.83036">
        <ele>578</ele>
        <time>2022-08-03T17:32:20.000Z</time>
      </trkpt>
      <trkpt lat="42.92302" lon="1.83055">
        <ele>577.2</ele>
        <time>2022-08-03T17:32:21.000Z</time>
      </trkpt>
      <trkpt lat="42.92307" lon="1.83074">
        <ele>576.2</ele>
        <time>2022-08-03T17:32:22.000Z</time>
      </trkpt>
      <trkpt lat="42.92311" lon="1.83092">
        <ele>575.4</ele>
        <time>2022-08-03T17:32:23.000Z</time>
      </trkpt>
      <trkpt lat="42.92315" lon="1.83112">
        <ele>574.4</ele>
        <time>2022-08-03T17:32:24.000Z</time>
      </trkpt>
      <trkpt lat="42.92317" lon="1.83131">
        <ele>573.5</ele>
        <time>2022-08-03T17:32:25.000Z</time>
      </trkpt>
      <trkpt lat="42.92318" lon="1.8315">
        <ele>572.6</ele>
        <time>2022-08-03T17:32:26.000Z</time>
      </trkpt>
      <trkpt lat="42.92319" lon="1.83168">
        <ele>571.7</ele>
        <time>2022-08-03T17:32:27.000Z</time>
      </trkpt>
      <trkpt lat="42.9232" lon="1.83185">
        <ele>570.8</ele>
        <time>2022-08-03T17:32:28.000Z</time>
      </trkpt>
      <trkpt lat="42.9232" lon="1.83204">
        <ele>570</ele>
        <time>2022-08-03T17:32:29.000Z</time>
      </trkpt>
      <trkpt lat="42.92321" lon="1.83221">
        <ele>569.1</ele>
        <time>2022-08-03T17:32:30.000Z</time>
      </trkpt>
      <trkpt lat="42.92321" lon="1.83238">
        <ele>568.3</ele>
        <time>2022-08-03T17:32:31.000Z</time>
      </trkpt>
      <trkpt lat="42.92322" lon="1.83255">
        <ele>567.5</ele>
        <time>2022-08-03T17:32:32.000Z</time>
      </trkpt>
      <trkpt lat="42.92322" lon="1.83272">
        <ele>566.8</ele>
        <time>2022-08-03T17:32:33.000Z</time>
      </trkpt>
      <trkpt lat="42.92322" lon="1.8329">
        <ele>566</ele>
        <time>2022-08-03T17:32:34.000Z</time>
      </trkpt>
      <trkpt lat="42.92322" lon="1.83307">
        <ele>565.3</ele>
        <time>2022-08-03T17:32:35.000Z</time>
      </trkpt>
      <trkpt lat="42.92322" lon="1.83325">
        <ele>564.6</ele>
        <time>2022-08-03T17:32:36.000Z</time>
      </trkpt>
      <trkpt lat="42.92323" lon="1.83343">
        <ele>563.9</ele>
        <time>2022-08-03T17:32:37.000Z</time>
      </trkpt>
      <trkpt lat="42.92324" lon="1.8336">
        <ele>563.3</ele>
        <time>2022-08-03T17:32:38.000Z</time>
      </trkpt>
      <trkpt lat="42.92326" lon="1.83377">
        <ele>562.6</ele>
        <time>2022-08-03T17:32:39.000Z</time>
      </trkpt>
      <trkpt lat="42.92328" lon="1.83393">
        <ele>562</ele>
        <time>2022-08-03T17:32:40.000Z</time>
      </trkpt>
      <trkpt lat="42.92331" lon="1.83409">
        <ele>561.4</ele>
        <time>2022-08-03T17:32:41.000Z</time>
      </trkpt>
      <trkpt lat="42.92336" lon="1.83425">
        <ele>560.9</ele>
        <time>2022-08-03T17:32:42.000Z</time>
      </trkpt>
      <trkpt lat="42.92342" lon="1.83439">
        <ele>560.3</ele>
        <time>2022-08-03T17:32:43.000Z</time>
      </trkpt>
      <trkpt lat="42.9235" lon="1.83449">
        <ele>559.7</ele>
        <time>2022-08-03T17:32:44.000Z</time>
      </trkpt>
      <trkpt lat="42.92359" lon="1.83458">
        <ele>559.1</ele>
        <time>2022-08-03T17:32:45.000Z</time>
      </trkpt>
      <trkpt lat="42.92368" lon="1.83467">
        <ele>558.5</ele>
        <time>2022-08-03T17:32:46.000Z</time>
      </trkpt>
      <trkpt lat="42.92376" lon="1.83475">
        <ele>558</ele>
        <time>2022-08-03T17:32:47.000Z</time>
      </trkpt>
      <trkpt lat="42.92383" lon="1.83483">
        <ele>557.6</ele>
        <time>2022-08-03T17:32:48.000Z</time>
      </trkpt>
      <trkpt lat="42.92391" lon="1.83491">
        <ele>557.1</ele>
        <time>2022-08-03T17:32:49.000Z</time>
      </trkpt>
      <trkpt lat="42.92398" lon="1.835">
        <ele>556.7</ele>
        <time>2022-08-03T17:32:50.000Z</time>
      </trkpt>
      <trkpt lat="42.92405" lon="1.83509">
        <ele>556.3</ele>
        <time>2022-08-03T17:32:51.000Z</time>
      </trkpt>
      <trkpt lat="42.92411" lon="1.83518">
        <ele>556</ele>
        <time>2022-08-03T17:32:52.000Z</time>
      </trkpt>
      <trkpt lat="42.92417" lon="1.83527">
        <ele>555.6</ele>
        <time>2022-08-03T17:32:53.000Z</time>
      </trkpt>
      <trkpt lat="42.92422" lon="1.83537">
        <ele>555.3</ele>
        <time>2022-08-03T17:32:54.000Z</time>
      </trkpt>
      <trkpt lat="42.92427" lon="1.83546">
        <ele>555</ele>
        <time>2022-08-03T17:32:55.000Z</time>
      </trkpt>
      <trkpt lat="42.92433" lon="1.83556">
        <ele>554.7</ele>
        <time>2022-08-03T17:32:56.000Z</time>
      </trkpt>
      <trkpt lat="42.92437" lon="1.83566">
        <ele>554.5</ele>
        <time>2022-08-03T17:32:57.000Z</time>
      </trkpt>
      <trkpt lat="42.92442" lon="1.83574">
        <ele>554.2</ele>
        <time>2022-08-03T17:32:58.000Z</time>
      </trkpt>
      <trkpt lat="42.92446" lon="1.83582">
        <ele>554.1</ele>
        <time>2022-08-03T17:32:59.000Z</time>
      </trkpt>
      <trkpt lat="42.92451" lon="1.8359">
        <ele>554</ele>
        <time>2022-08-03T17:33:00.000Z</time>
      </trkpt>
      <trkpt lat="42.92454" lon="1.83598">
        <ele>553.8</ele>
        <time>2022-08-03T17:33:01.000Z</time>
      </trkpt>
      <trkpt lat="42.92457" lon="1.83605">
        <ele>553.7</ele>
        <time>2022-08-03T17:33:02.000Z</time>
      </trkpt>
      <trkpt lat="42.92459" lon="1.83612">
        <ele>553.7</ele>
        <time>2022-08-03T17:33:03.000Z</time>
      </trkpt>
      <trkpt lat="42.92459" lon="1.83618">
        <ele>553.6</ele>
        <time>2022-08-03T17:33:04.000Z</time>
      </trkpt>
      <trkpt lat="42.92459" lon="1.83625">
        <ele>553.6</ele>
        <time>2022-08-03T17:33:05.000Z</time>
      </trkpt>
      <trkpt lat="42.9246" lon="1.83632">
        <ele>553.6</ele>
        <time>2022-08-03T17:33:06.000Z</time>
      </trkpt>
      <trkpt lat="42.92461" lon="1.8364">
        <ele>553.5</ele>
        <time>2022-08-03T17:33:07.000Z</time>
      </trkpt>
      <trkpt lat="42.92461" lon="1.83647">
        <ele>553.5</ele>
        <time>2022-08-03T17:33:08.000Z</time>
      </trkpt>
      <trkpt lat="42.92458" lon="1.83658">
        <ele>553.5</ele>
        <time>2022-08-03T17:33:10.000Z</time>
      </trkpt>
      <trkpt lat="42.92455" lon="1.83663">
        <ele>553.5</ele>
        <time>2022-08-03T17:33:11.000Z</time>
      </trkpt>
      <trkpt lat="42.92452" lon="1.83668">
        <ele>553.5</ele>
        <time>2022-08-03T17:33:12.000Z</time>
      </trkpt>
      <trkpt lat="42.92449" lon="1.83673">
        <ele>553.5</ele>
        <time>2022-08-03T17:33:13.000Z</time>
      </trkpt>
      <trkpt lat="42.92446" lon="1.83678">
        <ele>553.6</ele>
        <time>2022-08-03T17:33:14.000Z</time>
      </trkpt>
      <trkpt lat="42.92441" lon="1.83682">
        <ele>553.6</ele>
        <time>2022-08-03T17:33:15.000Z</time>
      </trkpt>
      <trkpt lat="42.92436" lon="1.83685">
        <ele>553.6</ele>
        <time>2022-08-03T17:33:16.000Z</time>
      </trkpt>
      <trkpt lat="42.92431" lon="1.83687">
        <ele>553.6</ele>
        <time>2022-08-03T17:33:17.000Z</time>
      </trkpt>
      <trkpt lat="42.92425" lon="1.83694">
        <ele>553.7</ele>
        <time>2022-08-03T17:33:19.000Z</time>
      </trkpt>
      <trkpt lat="42.92424" lon="1.83706">
        <ele>553.7</ele>
        <time>2022-08-03T17:33:21.000Z</time>
      </trkpt>
      <trkpt lat="42.92425" lon="1.83713">
        <ele>553.8</ele>
        <time>2022-08-03T17:33:22.000Z</time>
      </trkpt>
      <trkpt lat="42.92426" lon="1.83719">
        <ele>553.8</ele>
        <time>2022-08-03T17:33:23.000Z</time>
      </trkpt>
      <trkpt lat="42.92427" lon="1.83726">
        <ele>553.8</ele>
        <time>2022-08-03T17:33:24.000Z</time>
      </trkpt>
      <trkpt lat="42.92427" lon="1.83733">
        <ele>553.8</ele>
        <time>2022-08-03T17:33:25.000Z</time>
      </trkpt>
      <trkpt lat="42.92427" lon="1.83741">
        <ele>553.8</ele>
        <time>2022-08-03T17:33:26.000Z</time>
      </trkpt>
      <trkpt lat="42.92428" lon="1.83749">
        <ele>553.9</ele>
        <time>2022-08-03T17:33:27.000Z</time>
      </trkpt>
      <trkpt lat="42.92429" lon="1.83756">
        <ele>553.9</ele>
        <time>2022-08-03T17:33:28.000Z</time>
      </trkpt>
      <trkpt lat="42.92432" lon="1.83763">
        <ele>553.9</ele>
        <time>2022-08-03T17:33:29.000Z</time>
      </trkpt>
      <trkpt lat="42.92434" lon="1.8377">
        <ele>553.9</ele>
        <time>2022-08-03T17:33:30.000Z</time>
      </trkpt>
      <trkpt lat="42.92436" lon="1.83776">
        <ele>553.9</ele>
        <time>2022-08-03T17:33:31.000Z</time>
      </trkpt>
      <trkpt lat="42.92436" lon="1.83783">
        <ele>553.9</ele>
        <time>2022-08-03T17:33:32.000Z</time>
      </trkpt>
      <trkpt lat="42.92436" lon="1.8379">
        <ele>553.9</ele>
        <time>2022-08-03T17:33:33.000Z</time>
      </trkpt>
      <trkpt lat="42.92435" lon="1.83796">
        <ele>553.9</ele>
        <time>2022-08-03T17:33:34.000Z</time>
      </trkpt>
      <trkpt lat="42.92434" lon="1.83803">
        <ele>554</ele>
        <time>2022-08-03T17:33:35.000Z</time>
      </trkpt>
      <trkpt lat="42.92433" lon="1.8381">
        <ele>554</ele>
        <time>2022-08-03T17:33:36.000Z</time>
      </trkpt>
      <trkpt lat="42.92432" lon="1.83816">
        <ele>554</ele>
        <time>2022-08-03T17:33:37.000Z</time>
      </trkpt>
      <trkpt lat="42.92431" lon="1.83823">
        <ele>554</ele>
        <time>2022-08-03T17:33:38.000Z</time>
      </trkpt>
      <trkpt lat="42.9243" lon="1.83829">
        <ele>554</ele>
        <time>2022-08-03T17:33:39.000Z</time>
      </trkpt>
      <trkpt lat="42.92429" lon="1.83836">
        <ele>554</ele>
        <time>2022-08-03T17:33:40.000Z</time>
      </trkpt>
      <trkpt lat="42.92428" lon="1.83843">
        <ele>554</ele>
        <time>2022-08-03T17:33:41.000Z</time>
      </trkpt>
      <trkpt lat="42.92427" lon="1.83849">
        <ele>554</ele>
        <time>2022-08-03T17:33:42.000Z</time>
      </trkpt>
      <trkpt lat="42.92425" lon="1.83855">
        <ele>554</ele>
        <time>2022-08-03T17:33:43.000Z</time>
      </trkpt>
      <trkpt lat="42.92424" lon="1.83861">
        <ele>554</ele>
        <time>2022-08-03T17:33:44.000Z</time>
      </trkpt>
      <trkpt lat="42.92423" lon="1.83868">
        <ele>554</ele>
        <time>2022-08-03T17:33:45.000Z</time>
      </trkpt>
      <trkpt lat="42.92421" lon="1.83874">
        <ele>554</ele>
        <time>2022-08-03T17:33:46.000Z</time>
      </trkpt>
      <trkpt lat="42.9242" lon="1.8388">
        <ele>554</ele>
        <time>2022-08-03T17:33:47.000Z</time>
      </trkpt>
      <trkpt lat="42.92419" lon="1.83886">
        <ele>554</ele>
        <time>2022-08-03T17:33:48.000Z</time>
      </trkpt>
      <trkpt lat="42.92415" lon="1.83897">
        <ele>554.1</ele>
        <time>2022-08-03T17:33:50.000Z</time>
      </trkpt>
      <trkpt lat="42.92413" lon="1.83903">
        <ele>554.1</ele>
        <time>2022-08-03T17:33:51.000Z</time>
      </trkpt>
      <trkpt lat="42.9241" lon="1.83908">
        <ele>554.1</ele>
        <time>2022-08-03T17:33:52.000Z</time>
      </trkpt>
      <trkpt lat="42.92406" lon="1.83917">
        <ele>554.1</ele>
        <time>2022-08-03T17:33:54.000Z</time>
      </trkpt>
      <trkpt lat="42.92403" lon="1.83927">
        <ele>554.1</ele>
        <time>2022-08-03T17:33:56.000Z</time>
      </trkpt>
      <trkpt lat="42.924" lon="1.83936">
        <ele>554.1</ele>
        <time>2022-08-03T17:33:58.000Z</time>
      </trkpt>
      <trkpt lat="42.92397" lon="1.83948">
        <ele>554.1</ele>
        <time>2022-08-03T17:34:00.000Z</time>
      </trkpt>
      <trkpt lat="42.92395" lon="1.83955">
        <ele>554.1</ele>
        <time>2022-08-03T17:34:01.000Z</time>
      </trkpt>
      <trkpt lat="42.92393" lon="1.83962">
        <ele>554.1</ele>
        <time>2022-08-03T17:34:02.000Z</time>
      </trkpt>
      <trkpt lat="42.92391" lon="1.83969">
        <ele>554</ele>
        <time>2022-08-03T17:34:03.000Z</time>
      </trkpt>
      <trkpt lat="42.92388" lon="1.83979">
        <ele>553.9</ele>
        <time>2022-08-03T17:34:04.000Z</time>
      </trkpt>
      <trkpt lat="42.92385" lon="1.8399">
        <ele>553.7</ele>
        <time>2022-08-03T17:34:05.000Z</time>
      </trkpt>
      <trkpt lat="42.92381" lon="1.84003">
        <ele>553.5</ele>
        <time>2022-08-03T17:34:06.000Z</time>
      </trkpt>
      <trkpt lat="42.92376" lon="1.84017">
        <ele>553.3</ele>
        <time>2022-08-03T17:34:07.000Z</time>
      </trkpt>
      <trkpt lat="42.92371" lon="1.84032">
        <ele>553.1</ele>
        <time>2022-08-03T17:34:08.000Z</time>
      </trkpt>
      <trkpt lat="42.92367" lon="1.84044">
        <ele>552.8</ele>
        <time>2022-08-03T17:34:09.000Z</time>
      </trkpt>
      <trkpt lat="42.92363" lon="1.84057">
        <ele>552.5</ele>
        <time>2022-08-03T17:34:10.000Z</time>
      </trkpt>
      <trkpt lat="42.92359" lon="1.84069">
        <ele>552.2</ele>
        <time>2022-08-03T17:34:11.000Z</time>
      </trkpt>
      <trkpt lat="42.92355" lon="1.8408">
        <ele>552</ele>
        <time>2022-08-03T17:34:12.000Z</time>
      </trkpt>
      <trkpt lat="42.92351" lon="1.84089">
        <ele>551.7</ele>
        <time>2022-08-03T17:34:13.000Z</time>
      </trkpt>
      <trkpt lat="42.92346" lon="1.84096">
        <ele>551.4</ele>
        <time>2022-08-03T17:34:14.000Z</time>
      </trkpt>
      <trkpt lat="42.9234" lon="1.841">
        <ele>551.1</ele>
        <time>2022-08-03T17:34:15.000Z</time>
      </trkpt>
      <trkpt lat="42.92334" lon="1.84103">
        <ele>550.9</ele>
        <time>2022-08-03T17:34:16.000Z</time>
      </trkpt>
      <trkpt lat="42.92329" lon="1.84101">
        <ele>550.6</ele>
        <time>2022-08-03T17:34:17.000Z</time>
      </trkpt>
      <trkpt lat="42.92324" lon="1.84097">
        <ele>550.4</ele>
        <time>2022-08-03T17:34:18.000Z</time>
      </trkpt>
      <trkpt lat="42.9232" lon="1.84093">
        <ele>550.2</ele>
        <time>2022-08-03T17:34:19.000Z</time>
      </trkpt>
      <trkpt lat="42.92316" lon="1.8409">
        <ele>550</ele>
        <time>2022-08-03T17:34:20.000Z</time>
      </trkpt>
      <trkpt lat="42.92309" lon="1.84083">
        <ele>549.6</ele>
        <time>2022-08-03T17:34:22.000Z</time>
      </trkpt>
      <trkpt lat="42.92302" lon="1.84076">
        <ele>549.3</ele>
        <time>2022-08-03T17:34:24.000Z</time>
      </trkpt>
      <trkpt lat="42.92296" lon="1.84069">
        <ele>549</ele>
        <time>2022-08-03T17:34:26.000Z</time>
      </trkpt>
      <trkpt lat="42.9229" lon="1.84061">
        <ele>548.7</ele>
        <time>2022-08-03T17:34:28.000Z</time>
      </trkpt>
      <trkpt lat="42.92284" lon="1.84055">
        <ele>548.5</ele>
        <time>2022-08-03T17:34:30.000Z</time>
      </trkpt>
      <trkpt lat="42.92278" lon="1.8405">
        <ele>548.3</ele>
        <time>2022-08-03T17:34:32.000Z</time>
      </trkpt>
      <trkpt lat="42.92273" lon="1.84045">
        <ele>548.2</ele>
        <time>2022-08-03T17:34:34.000Z</time>
      </trkpt>
      <trkpt lat="42.92266" lon="1.84038">
        <ele>548</ele>
        <time>2022-08-03T17:34:36.000Z</time>
      </trkpt>
      <trkpt lat="42.9226" lon="1.84033">
        <ele>547.9</ele>
        <time>2022-08-03T17:34:38.000Z</time>
      </trkpt>
      <trkpt lat="42.92255" lon="1.84027">
        <ele>547.8</ele>
        <time>2022-08-03T17:34:40.000Z</time>
      </trkpt>
      <trkpt lat="42.92249" lon="1.84022">
        <ele>547.8</ele>
        <time>2022-08-03T17:34:42.000Z</time>
      </trkpt>
      <trkpt lat="42.92244" lon="1.84016">
        <ele>547.7</ele>
        <time>2022-08-03T17:34:44.000Z</time>
      </trkpt>
      <trkpt lat="42.9224" lon="1.84009">
        <ele>547.7</ele>
        <time>2022-08-03T17:34:46.000Z</time>
      </trkpt>
      <trkpt lat="42.92235" lon="1.84003">
        <ele>547.8</ele>
        <time>2022-08-03T17:34:48.000Z</time>
      </trkpt>
      <trkpt lat="42.92231" lon="1.83994">
        <ele>547.8</ele>
        <time>2022-08-03T17:34:50.000Z</time>
      </trkpt>
      <trkpt lat="42.92226" lon="1.83987">
        <ele>547.9</ele>
        <time>2022-08-03T17:34:52.000Z</time>
      </trkpt>
      <trkpt lat="42.9222" lon="1.83982">
        <ele>547.9</ele>
        <time>2022-08-03T17:34:54.000Z</time>
      </trkpt>
      <trkpt lat="42.92215" lon="1.83977">
        <ele>548.1</ele>
        <time>2022-08-03T17:34:56.000Z</time>
      </trkpt>
      <trkpt lat="42.92209" lon="1.83971">
        <ele>548.2</ele>
        <time>2022-08-03T17:34:58.000Z</time>
      </trkpt>
      <trkpt lat="42.92203" lon="1.83965">
        <ele>548.4</ele>
        <time>2022-08-03T17:35:00.000Z</time>
      </trkpt>
      <trkpt lat="42.92197" lon="1.8396">
        <ele>548.6</ele>
        <time>2022-08-03T17:35:02.000Z</time>
      </trkpt>
      <trkpt lat="42.92192" lon="1.83954">
        <ele>548.8</ele>
        <time>2022-08-03T17:35:04.000Z</time>
      </trkpt>
      <trkpt lat="42.92186" lon="1.8395">
        <ele>549</ele>
        <time>2022-08-03T17:35:06.000Z</time>
      </trkpt>
      <trkpt lat="42.9218" lon="1.83948">
        <ele>549.3</ele>
        <time>2022-08-03T17:35:08.000Z</time>
      </trkpt>
      <trkpt lat="42.92174" lon="1.83945">
        <ele>549.5</ele>
        <time>2022-08-03T17:35:10.000Z</time>
      </trkpt>
      <trkpt lat="42.92167" lon="1.83944">
        <ele>549.7</ele>
        <time>2022-08-03T17:35:12.000Z</time>
      </trkpt>
      <trkpt lat="42.92161" lon="1.83942">
        <ele>549.9</ele>
        <time>2022-08-03T17:35:14.000Z</time>
      </trkpt>
      <trkpt lat="42.92154" lon="1.8394">
        <ele>550</ele>
        <time>2022-08-03T17:35:16.000Z</time>
      </trkpt>
      <trkpt lat="42.92147" lon="1.83939">
        <ele>550.2</ele>
        <time>2022-08-03T17:35:18.000Z</time>
      </trkpt>
      <trkpt lat="42.9214" lon="1.83939">
        <ele>550.5</ele>
        <time>2022-08-03T17:35:20.000Z</time>
      </trkpt>
      <trkpt lat="42.92133" lon="1.83938">
        <ele>550.7</ele>
        <time>2022-08-03T17:35:22.000Z</time>
      </trkpt>
      <trkpt lat="42.92126" lon="1.83936">
        <ele>550.9</ele>
        <time>2022-08-03T17:35:24.000Z</time>
      </trkpt>
      <trkpt lat="42.92119" lon="1.83933">
        <ele>551</ele>
        <time>2022-08-03T17:35:26.000Z</time>
      </trkpt>
      <trkpt lat="42.92112" lon="1.83928">
        <ele>551.2</ele>
        <time>2022-08-03T17:35:28.000Z</time>
      </trkpt>
      <trkpt lat="42.92106" lon="1.83922">
        <ele>551.3</ele>
        <time>2022-08-03T17:35:30.000Z</time>
      </trkpt>
      <trkpt lat="42.921" lon="1.83916">
        <ele>551.4</ele>
        <time>2022-08-03T17:35:32.000Z</time>
      </trkpt>
      <trkpt lat="42.92094" lon="1.83911">
        <ele>551.5</ele>
        <time>2022-08-03T17:35:34.000Z</time>
      </trkpt>
      <trkpt lat="42.92088" lon="1.83905">
        <ele>551.6</ele>
        <time>2022-08-03T17:35:36.000Z</time>
      </trkpt>
      <trkpt lat="42.92081" lon="1.839">
        <ele>551.7</ele>
        <time>2022-08-03T17:35:38.000Z</time>
      </trkpt>
      <trkpt lat="42.92074" lon="1.83895">
        <ele>551.8</ele>
        <time>2022-08-03T17:35:40.000Z</time>
      </trkpt>
      <trkpt lat="42.92067" lon="1.8389">
        <ele>551.9</ele>
        <time>2022-08-03T17:35:42.000Z</time>
      </trkpt>
      <trkpt lat="42.9206" lon="1.83885">
        <ele>552</ele>
        <time>2022-08-03T17:35:44.000Z</time>
      </trkpt>
      <trkpt lat="42.92053" lon="1.83881">
        <ele>552.1</ele>
        <time>2022-08-03T17:35:46.000Z</time>
      </trkpt>
      <trkpt lat="42.92046" lon="1.83877">
        <ele>552.2</ele>
        <time>2022-08-03T17:35:48.000Z</time>
      </trkpt>
      <trkpt lat="42.92039" lon="1.83873">
        <ele>552.2</ele>
        <time>2022-08-03T17:35:50.000Z</time>
      </trkpt>
      <trkpt lat="42.92031" lon="1.83869">
        <ele>552.3</ele>
        <time>2022-08-03T17:35:52.000Z</time>
      </trkpt>
      <trkpt lat="42.92024" lon="1.83866">
        <ele>552.5</ele>
        <time>2022-08-03T17:35:54.000Z</time>
      </trkpt>
      <trkpt lat="42.92017" lon="1.83862">
        <ele>552.6</ele>
        <time>2022-08-03T17:35:56.000Z</time>
      </trkpt>
      <trkpt lat="42.9201" lon="1.83857">
        <ele>552.7</ele>
        <time>2022-08-03T17:35:58.000Z</time>
      </trkpt>
      <trkpt lat="42.92002" lon="1.83853">
        <ele>552.9</ele>
        <time>2022-08-03T17:36:00.000Z</time>
      </trkpt>
      <trkpt lat="42.91994" lon="1.83849">
        <ele>553</ele>
        <time>2022-08-03T17:36:02.000Z</time>
      </trkpt>
      <trkpt lat="42.91987" lon="1.83845">
        <ele>553.2</ele>
        <time>2022-08-03T17:36:04.000Z</time>
      </trkpt>
      <trkpt lat="42.91979" lon="1.83841">
        <ele>553.3</ele>
        <time>2022-08-03T17:36:06.000Z</time>
      </trkpt>
      <trkpt lat="42.91972" lon="1.83836">
        <ele>553.4</ele>
        <time>2022-08-03T17:36:08.000Z</time>
      </trkpt>
      <trkpt lat="42.91965" lon="1.83829">
        <ele>553.6</ele>
        <time>2022-08-03T17:36:10.000Z</time>
      </trkpt>
      <trkpt lat="42.91958" lon="1.83824">
        <ele>553.8</ele>
        <time>2022-08-03T17:36:12.000Z</time>
      </trkpt>
      <trkpt lat="42.91951" lon="1.83819">
        <ele>554</ele>
        <time>2022-08-03T17:36:14.000Z</time>
      </trkpt>
      <trkpt lat="42.91943" lon="1.83814">
        <ele>554.1</ele>
        <time>2022-08-03T17:36:16.000Z</time>
      </trkpt>
      <trkpt lat="42.91936" lon="1.83809">
        <ele>554.3</ele>
        <time>2022-08-03T17:36:18.000Z</time>
      </trkpt>
      <trkpt lat="42.91929" lon="1.83804">
        <ele>554.4</ele>
        <time>2022-08-03T17:36:20.000Z</time>
      </trkpt>
      <trkpt lat="42.91922" lon="1.83798">
        <ele>554.6</ele>
        <time>2022-08-03T17:36:22.000Z</time>
      </trkpt>
      <trkpt lat="42.91914" lon="1.83793">
        <ele>554.8</ele>
        <time>2022-08-03T17:36:24.000Z</time>
      </trkpt>
      <trkpt lat="42.91907" lon="1.83788">
        <ele>554.9</ele>
        <time>2022-08-03T17:36:26.000Z</time>
      </trkpt>
      <trkpt lat="42.91899" lon="1.83784">
        <ele>555</ele>
        <time>2022-08-03T17:36:28.000Z</time>
      </trkpt>
      <trkpt lat="42.91892" lon="1.83778">
        <ele>555.2</ele>
        <time>2022-08-03T17:36:30.000Z</time>
      </trkpt>
      <trkpt lat="42.91885" lon="1.83773">
        <ele>555.3</ele>
        <time>2022-08-03T17:36:32.000Z</time>
      </trkpt>
      <trkpt lat="42.91878" lon="1.83768">
        <ele>555.4</ele>
        <time>2022-08-03T17:36:34.000Z</time>
      </trkpt>
      <trkpt lat="42.91871" lon="1.83764">
        <ele>555.5</ele>
        <time>2022-08-03T17:36:36.000Z</time>
      </trkpt>
      <trkpt lat="42.91864" lon="1.8376">
        <ele>555.7</ele>
        <time>2022-08-03T17:36:38.000Z</time>
      </trkpt>
      <trkpt lat="42.91857" lon="1.83756">
        <ele>555.8</ele>
        <time>2022-08-03T17:36:40.000Z</time>
      </trkpt>
      <trkpt lat="42.91851" lon="1.83753">
        <ele>556</ele>
        <time>2022-08-03T17:36:42.000Z</time>
      </trkpt>
      <trkpt lat="42.91846" lon="1.83749">
        <ele>556.2</ele>
        <time>2022-08-03T17:36:44.000Z</time>
      </trkpt>
      <trkpt lat="42.9184" lon="1.83746">
        <ele>556.4</ele>
        <time>2022-08-03T17:36:46.000Z</time>
      </trkpt>
      <trkpt lat="42.91833" lon="1.83741">
        <ele>556.6</ele>
        <time>2022-08-03T17:36:48.000Z</time>
      </trkpt>
      <trkpt lat="42.91827" lon="1.83737">
        <ele>556.8</ele>
        <time>2022-08-03T17:36:50.000Z</time>
      </trkpt>
      <trkpt lat="42.91821" lon="1.83734">
        <ele>557</ele>
        <time>2022-08-03T17:36:52.000Z</time>
      </trkpt>
      <trkpt lat="42.91815" lon="1.8373">
        <ele>557.1</ele>
        <time>2022-08-03T17:36:54.000Z</time>
      </trkpt>
      <trkpt lat="42.9181" lon="1.83726">
        <ele>557.3</ele>
        <time>2022-08-03T17:36:56.000Z</time>
      </trkpt>
      <trkpt lat="42.91805" lon="1.83721">
        <ele>557.5</ele>
        <time>2022-08-03T17:36:58.000Z</time>
      </trkpt>
      <trkpt lat="42.91802" lon="1.83714">
        <ele>557.8</ele>
        <time>2022-08-03T17:37:00.000Z</time>
      </trkpt>
      <trkpt lat="42.91802" lon="1.83706">
        <ele>558</ele>
        <time>2022-08-03T17:37:02.000Z</time>
      </trkpt>
      <trkpt lat="42.91804" lon="1.83698">
        <ele>558.3</ele>
        <time>2022-08-03T17:37:04.000Z</time>
      </trkpt>
      <trkpt lat="42.91806" lon="1.83691">
        <ele>558.5</ele>
        <time>2022-08-03T17:37:06.000Z</time>
      </trkpt>
      <trkpt lat="42.91807" lon="1.83683">
        <ele>558.7</ele>
        <time>2022-08-03T17:37:08.000Z</time>
      </trkpt>
      <trkpt lat="42.91807" lon="1.83677">
        <ele>558.9</ele>
        <time>2022-08-03T17:37:10.000Z</time>
      </trkpt>
      <trkpt lat="42.91806" lon="1.83669">
        <ele>559.3</ele>
        <time>2022-08-03T17:37:13.000Z</time>
      </trkpt>
      <trkpt lat="42.91801" lon="1.83664">
        <ele>559.7</ele>
        <time>2022-08-03T17:37:16.000Z</time>
      </trkpt>
      <trkpt lat="42.91796" lon="1.83662">
        <ele>560</ele>
        <time>2022-08-03T17:37:18.000Z</time>
      </trkpt>
      <trkpt lat="42.91792" lon="1.83659">
        <ele>560.3</ele>
        <time>2022-08-03T17:37:20.000Z</time>
      </trkpt>
      <trkpt lat="42.91786" lon="1.83655">
        <ele>560.7</ele>
        <time>2022-08-03T17:37:23.000Z</time>
      </trkpt>
      <trkpt lat="42.91783" lon="1.83651">
        <ele>561</ele>
        <time>2022-08-03T17:37:25.000Z</time>
      </trkpt>
      <trkpt lat="42.91779" lon="1.83648">
        <ele>561.3</ele>
        <time>2022-08-03T17:37:27.000Z</time>
      </trkpt>
      <trkpt lat="42.91774" lon="1.83642">
        <ele>561.7</ele>
        <time>2022-08-03T17:37:30.000Z</time>
      </trkpt>
      <trkpt lat="42.91769" lon="1.83636">
        <ele>562.1</ele>
        <time>2022-08-03T17:37:33.000Z</time>
      </trkpt>
      <trkpt lat="42.91766" lon="1.83627">
        <ele>562.6</ele>
        <time>2022-08-03T17:37:36.000Z</time>
      </trkpt>
      <trkpt lat="42.91764" lon="1.83619">
        <ele>563.1</ele>
        <time>2022-08-03T17:37:39.000Z</time>
      </trkpt>
      <trkpt lat="42.91763" lon="1.83613">
        <ele>563.4</ele>
        <time>2022-08-03T17:37:41.000Z</time>
      </trkpt>
      <trkpt lat="42.9176" lon="1.83605">
        <ele>563.9</ele>
        <time>2022-08-03T17:37:44.000Z</time>
      </trkpt>
      <trkpt lat="42.91757" lon="1.83598">
        <ele>564.4</ele>
        <time>2022-08-03T17:37:47.000Z</time>
      </trkpt>
      <trkpt lat="42.91757" lon="1.8359">
        <ele>564.8</ele>
        <time>2022-08-03T17:37:50.000Z</time>
      </trkpt>
      <trkpt lat="42.91754" lon="1.83585">
        <ele>565.1</ele>
        <time>2022-08-03T17:37:52.000Z</time>
      </trkpt>
      <trkpt lat="42.91751" lon="1.8358">
        <ele>565.5</ele>
        <time>2022-08-03T17:37:54.000Z</time>
      </trkpt>
      <trkpt lat="42.91747" lon="1.83574">
        <ele>565.9</ele>
        <time>2022-08-03T17:37:57.000Z</time>
      </trkpt>
      <trkpt lat="42.91745" lon="1.83567">
        <ele>566.4</ele>
        <time>2022-08-03T17:38:00.000Z</time>
      </trkpt>
      <trkpt lat="42.91746" lon="1.83561">
        <ele>566.8</ele>
        <time>2022-08-03T17:38:03.000Z</time>
      </trkpt>
      <trkpt lat="42.91748" lon="1.83555">
        <ele>567.2</ele>
        <time>2022-08-03T17:38:06.000Z</time>
      </trkpt>
      <trkpt lat="42.91749" lon="1.83546">
        <ele>567.6</ele>
        <time>2022-08-03T17:38:09.000Z</time>
      </trkpt>
      <trkpt lat="42.91751" lon="1.83538">
        <ele>568</ele>
        <time>2022-08-03T17:38:12.000Z</time>
      </trkpt>
      <trkpt lat="42.91753" lon="1.83531">
        <ele>568.4</ele>
        <time>2022-08-03T17:38:15.000Z</time>
      </trkpt>
      <trkpt lat="42.91755" lon="1.83524">
        <ele>568.9</ele>
        <time>2022-08-03T17:38:18.000Z</time>
      </trkpt>
      <trkpt lat="42.91757" lon="1.83515">
        <ele>569.3</ele>
        <time>2022-08-03T17:38:21.000Z</time>
      </trkpt>
      <trkpt lat="42.9176" lon="1.83507">
        <ele>569.6</ele>
        <time>2022-08-03T17:38:24.000Z</time>
      </trkpt>
      <trkpt lat="42.91762" lon="1.83501">
        <ele>569.8</ele>
        <time>2022-08-03T17:38:26.000Z</time>
      </trkpt>
      <trkpt lat="42.91766" lon="1.83494">
        <ele>570.1</ele>
        <time>2022-08-03T17:38:29.000Z</time>
      </trkpt>
      <trkpt lat="42.91768" lon="1.83487">
        <ele>570.3</ele>
        <time>2022-08-03T17:38:31.000Z</time>
      </trkpt>
      <trkpt lat="42.9177" lon="1.8348">
        <ele>570.5</ele>
        <time>2022-08-03T17:38:33.000Z</time>
      </trkpt>
      <trkpt lat="42.91774" lon="1.83473">
        <ele>570.7</ele>
        <time>2022-08-03T17:38:35.000Z</time>
      </trkpt>
      <trkpt lat="42.91776" lon="1.83466">
        <ele>570.8</ele>
        <time>2022-08-03T17:38:37.000Z</time>
      </trkpt>
      <trkpt lat="42.91778" lon="1.83461">
        <ele>571</ele>
        <time>2022-08-03T17:38:39.000Z</time>
      </trkpt>
      <trkpt lat="42.9178" lon="1.83452">
        <ele>571.2</ele>
        <time>2022-08-03T17:38:42.000Z</time>
      </trkpt>
      <trkpt lat="42.91778" lon="1.83445">
        <ele>571.4</ele>
        <time>2022-08-03T17:38:44.000Z</time>
      </trkpt>
      <trkpt lat="42.91776" lon="1.8344">
        <ele>571.5</ele>
        <time>2022-08-03T17:38:46.000Z</time>
      </trkpt>
      <trkpt lat="42.91771" lon="1.83433">
        <ele>571.6</ele>
        <time>2022-08-03T17:38:49.000Z</time>
      </trkpt>
      <trkpt lat="42.91767" lon="1.83429">
        <ele>571.7</ele>
        <time>2022-08-03T17:38:51.000Z</time>
      </trkpt>
      <trkpt lat="42.91762" lon="1.83424">
        <ele>571.8</ele>
        <time>2022-08-03T17:38:53.000Z</time>
      </trkpt>
      <trkpt lat="42.91757" lon="1.83421">
        <ele>571.9</ele>
        <time>2022-08-03T17:38:55.000Z</time>
      </trkpt>
      <trkpt lat="42.91751" lon="1.83419">
        <ele>572</ele>
        <time>2022-08-03T17:38:57.000Z</time>
      </trkpt>
      <trkpt lat="42.91746" lon="1.83416">
        <ele>572.1</ele>
        <time>2022-08-03T17:38:59.000Z</time>
      </trkpt>
      <trkpt lat="42.91741" lon="1.83413">
        <ele>572.2</ele>
        <time>2022-08-03T17:39:01.000Z</time>
      </trkpt>
      <trkpt lat="42.91736" lon="1.8341">
        <ele>572.3</ele>
        <time>2022-08-03T17:39:03.000Z</time>
      </trkpt>
      <trkpt lat="42.9173" lon="1.83408">
        <ele>572.4</ele>
        <time>2022-08-03T17:39:05.000Z</time>
      </trkpt>
      <trkpt lat="42.91724" lon="1.83405">
        <ele>572.6</ele>
        <time>2022-08-03T17:39:07.000Z</time>
      </trkpt>
      <trkpt lat="42.91719" lon="1.83403">
        <ele>572.7</ele>
        <time>2022-08-03T17:39:09.000Z</time>
      </trkpt>
      <trkpt lat="42.91713" lon="1.834">
        <ele>572.9</ele>
        <time>2022-08-03T17:39:11.000Z</time>
      </trkpt>
      <trkpt lat="42.91708" lon="1.83398">
        <ele>573.1</ele>
        <time>2022-08-03T17:39:13.000Z</time>
      </trkpt>
      <trkpt lat="42.91703" lon="1.83394">
        <ele>573.2</ele>
        <time>2022-08-03T17:39:15.000Z</time>
      </trkpt>
      <trkpt lat="42.91697" lon="1.83389">
        <ele>573.4</ele>
        <time>2022-08-03T17:39:17.000Z</time>
      </trkpt>
      <trkpt lat="42.91691" lon="1.83384">
        <ele>573.5</ele>
        <time>2022-08-03T17:39:19.000Z</time>
      </trkpt>
      <trkpt lat="42.91686" lon="1.83378">
        <ele>573.6</ele>
        <time>2022-08-03T17:39:21.000Z</time>
      </trkpt>
      <trkpt lat="42.9168" lon="1.83372">
        <ele>573.8</ele>
        <time>2022-08-03T17:39:23.000Z</time>
      </trkpt>
      <trkpt lat="42.91675" lon="1.83366">
        <ele>573.9</ele>
        <time>2022-08-03T17:39:25.000Z</time>
      </trkpt>
      <trkpt lat="42.9167" lon="1.8336">
        <ele>574.1</ele>
        <time>2022-08-03T17:39:27.000Z</time>
      </trkpt>
      <trkpt lat="42.91665" lon="1.83354">
        <ele>574.2</ele>
        <time>2022-08-03T17:39:29.000Z</time>
      </trkpt>
      <trkpt lat="42.9166" lon="1.83348">
        <ele>574.4</ele>
        <time>2022-08-03T17:39:31.000Z</time>
      </trkpt>
      <trkpt lat="42.91655" lon="1.83342">
        <ele>574.5</ele>
        <time>2022-08-03T17:39:33.000Z</time>
      </trkpt>
      <trkpt lat="42.91649" lon="1.83337">
        <ele>574.7</ele>
        <time>2022-08-03T17:39:35.000Z</time>
      </trkpt>
      <trkpt lat="42.91643" lon="1.83331">
        <ele>574.9</ele>
        <time>2022-08-03T17:39:37.000Z</time>
      </trkpt>
      <trkpt lat="42.91638" lon="1.83326">
        <ele>575.1</ele>
        <time>2022-08-03T17:39:39.000Z</time>
      </trkpt>
      <trkpt lat="42.91632" lon="1.83321">
        <ele>575.2</ele>
        <time>2022-08-03T17:39:41.000Z</time>
      </trkpt>
      <trkpt lat="42.91626" lon="1.83316">
        <ele>575.4</ele>
        <time>2022-08-03T17:39:43.000Z</time>
      </trkpt>
      <trkpt lat="42.91621" lon="1.83312">
        <ele>575.6</ele>
        <time>2022-08-03T17:39:45.000Z</time>
      </trkpt>
      <trkpt lat="42.91616" lon="1.83306">
        <ele>575.8</ele>
        <time>2022-08-03T17:39:47.000Z</time>
      </trkpt>
      <trkpt lat="42.9161" lon="1.833">
        <ele>576</ele>
        <time>2022-08-03T17:39:49.000Z</time>
      </trkpt>
      <trkpt lat="42.91603" lon="1.83295">
        <ele>576.2</ele>
        <time>2022-08-03T17:39:51.000Z</time>
      </trkpt>
      <trkpt lat="42.91597" lon="1.8329">
        <ele>576.4</ele>
        <time>2022-08-03T17:39:53.000Z</time>
      </trkpt>
      <trkpt lat="42.91591" lon="1.83284">
        <ele>576.5</ele>
        <time>2022-08-03T17:39:55.000Z</time>
      </trkpt>
      <trkpt lat="42.91585" lon="1.83279">
        <ele>576.7</ele>
        <time>2022-08-03T17:39:57.000Z</time>
      </trkpt>
      <trkpt lat="42.91579" lon="1.83273">
        <ele>577</ele>
        <time>2022-08-03T17:39:59.000Z</time>
      </trkpt>
      <trkpt lat="42.91574" lon="1.83266">
        <ele>577.2</ele>
        <time>2022-08-03T17:40:01.000Z</time>
      </trkpt>
      <trkpt lat="42.91569" lon="1.8326">
        <ele>577.4</ele>
        <time>2022-08-03T17:40:03.000Z</time>
      </trkpt>
      <trkpt lat="42.91563" lon="1.83253">
        <ele>577.5</ele>
        <time>2022-08-03T17:40:05.000Z</time>
      </trkpt>
      <trkpt lat="42.91559" lon="1.83245">
        <ele>577.7</ele>
        <time>2022-08-03T17:40:07.000Z</time>
      </trkpt>
      <trkpt lat="42.91554" lon="1.83238">
        <ele>577.9</ele>
        <time>2022-08-03T17:40:09.000Z</time>
      </trkpt>
      <trkpt lat="42.91549" lon="1.8323">
        <ele>578.1</ele>
        <time>2022-08-03T17:40:11.000Z</time>
      </trkpt>
      <trkpt lat="42.91544" lon="1.83221">
        <ele>578.3</ele>
        <time>2022-08-03T17:40:13.000Z</time>
      </trkpt>
      <trkpt lat="42.91541" lon="1.83216">
        <ele>578.4</ele>
        <time>2022-08-03T17:40:14.000Z</time>
      </trkpt>
      <trkpt lat="42.91535" lon="1.83208">
        <ele>578.6</ele>
        <time>2022-08-03T17:40:16.000Z</time>
      </trkpt>
      <trkpt lat="42.9153" lon="1.832">
        <ele>578.7</ele>
        <time>2022-08-03T17:40:18.000Z</time>
      </trkpt>
      <trkpt lat="42.91525" lon="1.83192">
        <ele>578.9</ele>
        <time>2022-08-03T17:40:20.000Z</time>
      </trkpt>
      <trkpt lat="42.9152" lon="1.83184">
        <ele>579.1</ele>
        <time>2022-08-03T17:40:22.000Z</time>
      </trkpt>
      <trkpt lat="42.91515" lon="1.83177">
        <ele>579.3</ele>
        <time>2022-08-03T17:40:24.000Z</time>
      </trkpt>
      <trkpt lat="42.9151" lon="1.83169">
        <ele>579.4</ele>
        <time>2022-08-03T17:40:26.000Z</time>
      </trkpt>
      <trkpt lat="42.91506" lon="1.83161">
        <ele>579.6</ele>
        <time>2022-08-03T17:40:28.000Z</time>
      </trkpt>
      <trkpt lat="42.91501" lon="1.83154">
        <ele>579.7</ele>
        <time>2022-08-03T17:40:30.000Z</time>
      </trkpt>
      <trkpt lat="42.91498" lon="1.83147">
        <ele>579.9</ele>
        <time>2022-08-03T17:40:32.000Z</time>
      </trkpt>
      <trkpt lat="42.91495" lon="1.8314">
        <ele>580</ele>
        <time>2022-08-03T17:40:34.000Z</time>
      </trkpt>
      <trkpt lat="42.91494" lon="1.83132">
        <ele>580.2</ele>
        <time>2022-08-03T17:40:36.000Z</time>
      </trkpt>
      <trkpt lat="42.91495" lon="1.83125">
        <ele>580.4</ele>
        <time>2022-08-03T17:40:38.000Z</time>
      </trkpt>
      <trkpt lat="42.91499" lon="1.83119">
        <ele>580.5</ele>
        <time>2022-08-03T17:40:40.000Z</time>
      </trkpt>
      <trkpt lat="42.91505" lon="1.83118">
        <ele>580.7</ele>
        <time>2022-08-03T17:40:42.000Z</time>
      </trkpt>
      <trkpt lat="42.91511" lon="1.83119">
        <ele>580.8</ele>
        <time>2022-08-03T17:40:44.000Z</time>
      </trkpt>
      <trkpt lat="42.91518" lon="1.83122">
        <ele>581</ele>
        <time>2022-08-03T17:40:46.000Z</time>
      </trkpt>
      <trkpt lat="42.91525" lon="1.83125">
        <ele>581.2</ele>
        <time>2022-08-03T17:40:48.000Z</time>
      </trkpt>
      <trkpt lat="42.91533" lon="1.83127">
        <ele>581.3</ele>
        <time>2022-08-03T17:40:50.000Z</time>
      </trkpt>
      <trkpt lat="42.91539" lon="1.83129">
        <ele>581.4</ele>
        <time>2022-08-03T17:40:52.000Z</time>
      </trkpt>
      <trkpt lat="42.91547" lon="1.83131">
        <ele>581.6</ele>
        <time>2022-08-03T17:40:54.000Z</time>
      </trkpt>
      <trkpt lat="42.91554" lon="1.83133">
        <ele>581.7</ele>
        <time>2022-08-03T17:40:56.000Z</time>
      </trkpt>
      <trkpt lat="42.91562" lon="1.83135">
        <ele>581.8</ele>
        <time>2022-08-03T17:40:58.000Z</time>
      </trkpt>
      <trkpt lat="42.9157" lon="1.83135">
        <ele>581.8</ele>
        <time>2022-08-03T17:41:00.000Z</time>
      </trkpt>
      <trkpt lat="42.91578" lon="1.83136">
        <ele>582</ele>
        <time>2022-08-03T17:41:02.000Z</time>
      </trkpt>
      <trkpt lat="42.91585" lon="1.83137">
        <ele>582.1</ele>
        <time>2022-08-03T17:41:04.000Z</time>
      </trkpt>
      <trkpt lat="42.91592" lon="1.83136">
        <ele>582.2</ele>
        <time>2022-08-03T17:41:06.000Z</time>
      </trkpt>
      <trkpt lat="42.91599" lon="1.83136">
        <ele>582.3</ele>
        <time>2022-08-03T17:41:08.000Z</time>
      </trkpt>
      <trkpt lat="42.91606" lon="1.83135">
        <ele>582.5</ele>
        <time>2022-08-03T17:41:10.000Z</time>
      </trkpt>
      <trkpt lat="42.91613" lon="1.83134">
        <ele>582.7</ele>
        <time>2022-08-03T17:41:12.000Z</time>
      </trkpt>
      <trkpt lat="42.91621" lon="1.83133">
        <ele>582.9</ele>
        <time>2022-08-03T17:41:14.000Z</time>
      </trkpt>
      <trkpt lat="42.91629" lon="1.83131">
        <ele>583.1</ele>
        <time>2022-08-03T17:41:16.000Z</time>
      </trkpt>
      <trkpt lat="42.91636" lon="1.83129">
        <ele>583.3</ele>
        <time>2022-08-03T17:41:18.000Z</time>
      </trkpt>
      <trkpt lat="42.91643" lon="1.83128">
        <ele>583.6</ele>
        <time>2022-08-03T17:41:20.000Z</time>
      </trkpt>
      <trkpt lat="42.91651" lon="1.83127">
        <ele>583.9</ele>
        <time>2022-08-03T17:41:22.000Z</time>
      </trkpt>
      <trkpt lat="42.91658" lon="1.83124">
        <ele>584.1</ele>
        <time>2022-08-03T17:41:24.000Z</time>
      </trkpt>
      <trkpt lat="42.91665" lon="1.83123">
        <ele>584.4</ele>
        <time>2022-08-03T17:41:26.000Z</time>
      </trkpt>
      <trkpt lat="42.91672" lon="1.83121">
        <ele>584.7</ele>
        <time>2022-08-03T17:41:28.000Z</time>
      </trkpt>
      <trkpt lat="42.91681" lon="1.83119">
        <ele>584.9</ele>
        <time>2022-08-03T17:41:30.000Z</time>
      </trkpt>
      <trkpt lat="42.91686" lon="1.83118">
        <ele>585</ele>
        <time>2022-08-03T17:41:31.000Z</time>
      </trkpt>
      <trkpt lat="42.91691" lon="1.83117">
        <ele>585.1</ele>
        <time>2022-08-03T17:41:32.000Z</time>
      </trkpt>
      <trkpt lat="42.91696" lon="1.83116">
        <ele>585.2</ele>
        <time>2022-08-03T17:41:33.000Z</time>
      </trkpt>
      <trkpt lat="42.91701" lon="1.83115">
        <ele>585.3</ele>
        <time>2022-08-03T17:41:34.000Z</time>
      </trkpt>
      <trkpt lat="42.91707" lon="1.83114">
        <ele>585.4</ele>
        <time>2022-08-03T17:41:35.000Z</time>
      </trkpt>
      <trkpt lat="42.91713" lon="1.83113">
        <ele>585.5</ele>
        <time>2022-08-03T17:41:36.000Z</time>
      </trkpt>
      <trkpt lat="42.91719" lon="1.83111">
        <ele>585.6</ele>
        <time>2022-08-03T17:41:37.000Z</time>
      </trkpt>
      <trkpt lat="42.91725" lon="1.8311">
        <ele>585.6</ele>
        <time>2022-08-03T17:41:38.000Z</time>
      </trkpt>
      <trkpt lat="42.91731" lon="1.83109">
        <ele>585.7</ele>
        <time>2022-08-03T17:41:39.000Z</time>
      </trkpt>
      <trkpt lat="42.91738" lon="1.83108">
        <ele>585.8</ele>
        <time>2022-08-03T17:41:40.000Z</time>
      </trkpt>
      <trkpt lat="42.91744" lon="1.83106">
        <ele>585.8</ele>
        <time>2022-08-03T17:41:41.000Z</time>
      </trkpt>
      <trkpt lat="42.91751" lon="1.83105">
        <ele>585.9</ele>
        <time>2022-08-03T17:41:42.000Z</time>
      </trkpt>
      <trkpt lat="42.91757" lon="1.83104">
        <ele>586</ele>
        <time>2022-08-03T17:41:43.000Z</time>
      </trkpt>
      <trkpt lat="42.91764" lon="1.83103">
        <ele>585.9</ele>
        <time>2022-08-03T17:41:44.000Z</time>
      </trkpt>
      <trkpt lat="42.91771" lon="1.83101">
        <ele>585.9</ele>
        <time>2022-08-03T17:41:45.000Z</time>
      </trkpt>
      <trkpt lat="42.91778" lon="1.831">
        <ele>585.9</ele>
        <time>2022-08-03T17:41:46.000Z</time>
      </trkpt>
      <trkpt lat="42.91786" lon="1.83098">
        <ele>585.9</ele>
        <time>2022-08-03T17:41:47.000Z</time>
      </trkpt>
      <trkpt lat="42.91793" lon="1.83097">
        <ele>585.8</ele>
        <time>2022-08-03T17:41:48.000Z</time>
      </trkpt>
      <trkpt lat="42.91801" lon="1.83096">
        <ele>585.8</ele>
        <time>2022-08-03T17:41:49.000Z</time>
      </trkpt>
      <trkpt lat="42.91808" lon="1.83094">
        <ele>585.7</ele>
        <time>2022-08-03T17:41:50.000Z</time>
      </trkpt>
      <trkpt lat="42.91816" lon="1.83093">
        <ele>585.7</ele>
        <time>2022-08-03T17:41:51.000Z</time>
      </trkpt>
      <trkpt lat="42.91824" lon="1.83091">
        <ele>585.6</ele>
        <time>2022-08-03T17:41:52.000Z</time>
      </trkpt>
      <trkpt lat="42.91831" lon="1.8309">
        <ele>585.5</ele>
        <time>2022-08-03T17:41:53.000Z</time>
      </trkpt>
      <trkpt lat="42.91839" lon="1.83088">
        <ele>585.4</ele>
        <time>2022-08-03T17:41:54.000Z</time>
      </trkpt>
      <trkpt lat="42.91848" lon="1.83086">
        <ele>585.3</ele>
        <time>2022-08-03T17:41:55.000Z</time>
      </trkpt>
      <trkpt lat="42.91856" lon="1.83084">
        <ele>585.2</ele>
        <time>2022-08-03T17:41:56.000Z</time>
      </trkpt>
      <trkpt lat="42.91864" lon="1.83081">
        <ele>585.1</ele>
        <time>2022-08-03T17:41:57.000Z</time>
      </trkpt>
      <trkpt lat="42.91872" lon="1.83076">
        <ele>585</ele>
        <time>2022-08-03T17:41:58.000Z</time>
      </trkpt>
      <trkpt lat="42.9188" lon="1.83068">
        <ele>584.8</ele>
        <time>2022-08-03T17:41:59.000Z</time>
      </trkpt>
      <trkpt lat="42.91887" lon="1.83059">
        <ele>584.7</ele>
        <time>2022-08-03T17:42:00.000Z</time>
      </trkpt>
      <trkpt lat="42.91893" lon="1.83049">
        <ele>584.5</ele>
        <time>2022-08-03T17:42:01.000Z</time>
      </trkpt>
      <trkpt lat="42.91898" lon="1.8304">
        <ele>584.3</ele>
        <time>2022-08-03T17:42:02.000Z</time>
      </trkpt>
      <trkpt lat="42.91904" lon="1.83033">
        <ele>584.1</ele>
        <time>2022-08-03T17:42:03.000Z</time>
      </trkpt>
      <trkpt lat="42.9191" lon="1.83028">
        <ele>583.9</ele>
        <time>2022-08-03T17:42:04.000Z</time>
      </trkpt>
      <trkpt lat="42.91915" lon="1.83025">
        <ele>583.7</ele>
        <time>2022-08-03T17:42:05.000Z</time>
      </trkpt>
      <trkpt lat="42.9192" lon="1.83026">
        <ele>583.5</ele>
        <time>2022-08-03T17:42:06.000Z</time>
      </trkpt>
      <trkpt lat="42.91925" lon="1.83028">
        <ele>583.3</ele>
        <time>2022-08-03T17:42:07.000Z</time>
      </trkpt>
      <trkpt lat="42.9193" lon="1.83033">
        <ele>583.1</ele>
        <time>2022-08-03T17:42:08.000Z</time>
      </trkpt>
      <trkpt lat="42.91935" lon="1.83039">
        <ele>582.9</ele>
        <time>2022-08-03T17:42:09.000Z</time>
      </trkpt>
      <trkpt lat="42.91941" lon="1.83047">
        <ele>582.6</ele>
        <time>2022-08-03T17:42:10.000Z</time>
      </trkpt>
      <trkpt lat="42.91946" lon="1.83055">
        <ele>582.4</ele>
        <time>2022-08-03T17:42:11.000Z</time>
      </trkpt>
      <trkpt lat="42.91952" lon="1.83064">
        <ele>582.2</ele>
        <time>2022-08-03T17:42:12.000Z</time>
      </trkpt>
      <trkpt lat="42.91957" lon="1.83073">
        <ele>582</ele>
        <time>2022-08-03T17:42:13.000Z</time>
      </trkpt>
      <trkpt lat="42.91963" lon="1.83082">
        <ele>581.8</ele>
        <time>2022-08-03T17:42:14.000Z</time>
      </trkpt>
      <trkpt lat="42.91968" lon="1.83091">
        <ele>581.6</ele>
        <time>2022-08-03T17:42:15.000Z</time>
      </trkpt>
      <trkpt lat="42.91974" lon="1.831">
        <ele>581.4</ele>
        <time>2022-08-03T17:42:16.000Z</time>
      </trkpt>
      <trkpt lat="42.9198" lon="1.8311">
        <ele>581.3</ele>
        <time>2022-08-03T17:42:17.000Z</time>
      </trkpt>
      <trkpt lat="42.91986" lon="1.8312">
        <ele>581.1</ele>
        <time>2022-08-03T17:42:18.000Z</time>
      </trkpt>
      <trkpt lat="42.91993" lon="1.8313">
        <ele>580.9</ele>
        <time>2022-08-03T17:42:19.000Z</time>
      </trkpt>
      <trkpt lat="42.91999" lon="1.8314">
        <ele>580.8</ele>
        <time>2022-08-03T17:42:20.000Z</time>
      </trkpt>
      <trkpt lat="42.92006" lon="1.83149">
        <ele>580.6</ele>
        <time>2022-08-03T17:42:21.000Z</time>
      </trkpt>
      <trkpt lat="42.92013" lon="1.83158">
        <ele>580.5</ele>
        <time>2022-08-03T17:42:22.000Z</time>
      </trkpt>
      <trkpt lat="42.92019" lon="1.83167">
        <ele>580.3</ele>
        <time>2022-08-03T17:42:23.000Z</time>
      </trkpt>
      <trkpt lat="42.92026" lon="1.83177">
        <ele>580.1</ele>
        <time>2022-08-03T17:42:24.000Z</time>
      </trkpt>
      <trkpt lat="42.92033" lon="1.83186">
        <ele>580</ele>
        <time>2022-08-03T17:42:25.000Z</time>
      </trkpt>
      <trkpt lat="42.9204" lon="1.83195">
        <ele>579.8</ele>
        <time>2022-08-03T17:42:26.000Z</time>
      </trkpt>
      <trkpt lat="42.92047" lon="1.83205">
        <ele>579.7</ele>
        <time>2022-08-03T17:42:27.000Z</time>
      </trkpt>
      <trkpt lat="42.92055" lon="1.83214">
        <ele>579.6</ele>
        <time>2022-08-03T17:42:28.000Z</time>
      </trkpt>
      <trkpt lat="42.92062" lon="1.83223">
        <ele>579.4</ele>
        <time>2022-08-03T17:42:29.000Z</time>
      </trkpt>
      <trkpt lat="42.92069" lon="1.83233">
        <ele>579.3</ele>
        <time>2022-08-03T17:42:30.000Z</time>
      </trkpt>
      <trkpt lat="42.92076" lon="1.83242">
        <ele>579.2</ele>
        <time>2022-08-03T17:42:31.000Z</time>
      </trkpt>
      <trkpt lat="42.92083" lon="1.83251">
        <ele>579</ele>
        <time>2022-08-03T17:42:32.000Z</time>
      </trkpt>
      <trkpt lat="42.9209" lon="1.83261">
        <ele>578.9</ele>
        <time>2022-08-03T17:42:33.000Z</time>
      </trkpt>
      <trkpt lat="42.92098" lon="1.8327">
        <ele>578.8</ele>
        <time>2022-08-03T17:42:34.000Z</time>
      </trkpt>
      <trkpt lat="42.92105" lon="1.83279">
        <ele>578.7</ele>
        <time>2022-08-03T17:42:35.000Z</time>
      </trkpt>
      <trkpt lat="42.92112" lon="1.83288">
        <ele>578.5</ele>
        <time>2022-08-03T17:42:36.000Z</time>
      </trkpt>
      <trkpt lat="42.92119" lon="1.83297">
        <ele>578.4</ele>
        <time>2022-08-03T17:42:37.000Z</time>
      </trkpt>
      <trkpt lat="42.92126" lon="1.83305">
        <ele>578.3</ele>
        <time>2022-08-03T17:42:38.000Z</time>
      </trkpt>
      <trkpt lat="42.92133" lon="1.83314">
        <ele>578.2</ele>
        <time>2022-08-03T17:42:39.000Z</time>
      </trkpt>
      <trkpt lat="42.9214" lon="1.83323">
        <ele>578</ele>
        <time>2022-08-03T17:42:40.000Z</time>
      </trkpt>
      <trkpt lat="42.92146" lon="1.83331">
        <ele>577.9</ele>
        <time>2022-08-03T17:42:41.000Z</time>
      </trkpt>
      <trkpt lat="42.92153" lon="1.83339">
        <ele>577.7</ele>
        <time>2022-08-03T17:42:42.000Z</time>
      </trkpt>
      <trkpt lat="42.9216" lon="1.83348">
        <ele>577.5</ele>
        <time>2022-08-03T17:42:43.000Z</time>
      </trkpt>
      <trkpt lat="42.92167" lon="1.83356">
        <ele>577.4</ele>
        <time>2022-08-03T17:42:44.000Z</time>
      </trkpt>
      <trkpt lat="42.92173" lon="1.83364">
        <ele>577.2</ele>
        <time>2022-08-03T17:42:45.000Z</time>
      </trkpt>
      <trkpt lat="42.9218" lon="1.83373">
        <ele>577.1</ele>
        <time>2022-08-03T17:42:46.000Z</time>
      </trkpt>
      <trkpt lat="42.92187" lon="1.83381">
        <ele>576.9</ele>
        <time>2022-08-03T17:42:47.000Z</time>
      </trkpt>
      <trkpt lat="42.92193" lon="1.8339">
        <ele>576.8</ele>
        <time>2022-08-03T17:42:48.000Z</time>
      </trkpt>
      <trkpt lat="42.922" lon="1.834">
        <ele>576.6</ele>
        <time>2022-08-03T17:42:49.000Z</time>
      </trkpt>
      <trkpt lat="42.92207" lon="1.83409">
        <ele>576.4</ele>
        <time>2022-08-03T17:42:50.000Z</time>
      </trkpt>
      <trkpt lat="42.92214" lon="1.83418">
        <ele>576.2</ele>
        <time>2022-08-03T17:42:51.000Z</time>
      </trkpt>
      <trkpt lat="42.92221" lon="1.83427">
        <ele>576.1</ele>
        <time>2022-08-03T17:42:52.000Z</time>
      </trkpt>
      <trkpt lat="42.92228" lon="1.83436">
        <ele>575.9</ele>
        <time>2022-08-03T17:42:53.000Z</time>
      </trkpt>
      <trkpt lat="42.92235" lon="1.83445">
        <ele>575.7</ele>
        <time>2022-08-03T17:42:54.000Z</time>
      </trkpt>
      <trkpt lat="42.92242" lon="1.83454">
        <ele>575.5</ele>
        <time>2022-08-03T17:42:55.000Z</time>
      </trkpt>
      <trkpt lat="42.9225" lon="1.83464">
        <ele>575.3</ele>
        <time>2022-08-03T17:42:56.000Z</time>
      </trkpt>
      <trkpt lat="42.92257" lon="1.83473">
        <ele>575.1</ele>
        <time>2022-08-03T17:42:57.000Z</time>
      </trkpt>
      <trkpt lat="42.92264" lon="1.83483">
        <ele>574.9</ele>
        <time>2022-08-03T17:42:58.000Z</time>
      </trkpt>
      <trkpt lat="42.92272" lon="1.83492">
        <ele>574.7</ele>
        <time>2022-08-03T17:42:59.000Z</time>
      </trkpt>
      <trkpt lat="42.92279" lon="1.83502">
        <ele>574.5</ele>
        <time>2022-08-03T17:43:00.000Z</time>
      </trkpt>
      <trkpt lat="42.92286" lon="1.83511">
        <ele>574.3</ele>
        <time>2022-08-03T17:43:01.000Z</time>
      </trkpt>
      <trkpt lat="42.92293" lon="1.83521">
        <ele>574.1</ele>
        <time>2022-08-03T17:43:02.000Z</time>
      </trkpt>
      <trkpt lat="42.92301" lon="1.8353">
        <ele>573.8</ele>
        <time>2022-08-03T17:43:03.000Z</time>
      </trkpt>
      <trkpt lat="42.92309" lon="1.8354">
        <ele>573.6</ele>
        <time>2022-08-03T17:43:04.000Z</time>
      </trkpt>
      <trkpt lat="42.92316" lon="1.8355">
        <ele>573.3</ele>
        <time>2022-08-03T17:43:05.000Z</time>
      </trkpt>
      <trkpt lat="42.92324" lon="1.8356">
        <ele>573</ele>
        <time>2022-08-03T17:43:06.000Z</time>
      </trkpt>
      <trkpt lat="42.92331" lon="1.83571">
        <ele>572.8</ele>
        <time>2022-08-03T17:43:07.000Z</time>
      </trkpt>
      <trkpt lat="42.92339" lon="1.83581">
        <ele>572.5</ele>
        <time>2022-08-03T17:43:08.000Z</time>
      </trkpt>
      <trkpt lat="42.92347" lon="1.83591">
        <ele>572.2</ele>
        <time>2022-08-03T17:43:09.000Z</time>
      </trkpt>
      <trkpt lat="42.92355" lon="1.83602">
        <ele>571.9</ele>
        <time>2022-08-03T17:43:10.000Z</time>
      </trkpt>
      <trkpt lat="42.92364" lon="1.83612">
        <ele>571.5</ele>
        <time>2022-08-03T17:43:11.000Z</time>
      </trkpt>
      <trkpt lat="42.92372" lon="1.83623">
        <ele>571.1</ele>
        <time>2022-08-03T17:43:12.000Z</time>
      </trkpt>
      <trkpt lat="42.9238" lon="1.83634">
        <ele>570.7</ele>
        <time>2022-08-03T17:43:13.000Z</time>
      </trkpt>
      <trkpt lat="42.92387" lon="1.83645">
        <ele>570.3</ele>
        <time>2022-08-03T17:43:14.000Z</time>
      </trkpt>
      <trkpt lat="42.92395" lon="1.83656">
        <ele>569.9</ele>
        <time>2022-08-03T17:43:15.000Z</time>
      </trkpt>
      <trkpt lat="42.92403" lon="1.83667">
        <ele>569.6</ele>
        <time>2022-08-03T17:43:16.000Z</time>
      </trkpt>
      <trkpt lat="42.92411" lon="1.83678">
        <ele>569.2</ele>
        <time>2022-08-03T17:43:17.000Z</time>
      </trkpt>
      <trkpt lat="42.92418" lon="1.8369">
        <ele>568.9</ele>
        <time>2022-08-03T17:43:18.000Z</time>
      </trkpt>
      <trkpt lat="42.92423" lon="1.83703">
        <ele>568.5</ele>
        <time>2022-08-03T17:43:19.000Z</time>
      </trkpt>
      <trkpt lat="42.92427" lon="1.83718">
        <ele>568.2</ele>
        <time>2022-08-03T17:43:20.000Z</time>
      </trkpt>
      <trkpt lat="42.92429" lon="1.83733">
        <ele>567.8</ele>
        <time>2022-08-03T17:43:21.000Z</time>
      </trkpt>
      <trkpt lat="42.9243" lon="1.83747">
        <ele>567.4</ele>
        <time>2022-08-03T17:43:22.000Z</time>
      </trkpt>
      <trkpt lat="42.92433" lon="1.83761">
        <ele>567.1</ele>
        <time>2022-08-03T17:43:23.000Z</time>
      </trkpt>
      <trkpt lat="42.92436" lon="1.83775">
        <ele>566.7</ele>
        <time>2022-08-03T17:43:24.000Z</time>
      </trkpt>
      <trkpt lat="42.92437" lon="1.8379">
        <ele>566.4</ele>
        <time>2022-08-03T17:43:25.000Z</time>
      </trkpt>
      <trkpt lat="42.92437" lon="1.83804">
        <ele>566</ele>
        <time>2022-08-03T17:43:26.000Z</time>
      </trkpt>
      <trkpt lat="42.92434" lon="1.83817">
        <ele>565.7</ele>
        <time>2022-08-03T17:43:27.000Z</time>
      </trkpt>
      <trkpt lat="42.92432" lon="1.83831">
        <ele>565.3</ele>
        <time>2022-08-03T17:43:28.000Z</time>
      </trkpt>
      <trkpt lat="42.9243" lon="1.83844">
        <ele>565</ele>
        <time>2022-08-03T17:43:29.000Z</time>
      </trkpt>
      <trkpt lat="42.92429" lon="1.83857">
        <ele>564.7</ele>
        <time>2022-08-03T17:43:30.000Z</time>
      </trkpt>
      <trkpt lat="42.92426" lon="1.83868">
        <ele>564.4</ele>
        <time>2022-08-03T17:43:31.000Z</time>
      </trkpt>
      <trkpt lat="42.92424" lon="1.8388">
        <ele>564.1</ele>
        <time>2022-08-03T17:43:32.000Z</time>
      </trkpt>
      <trkpt lat="42.92422" lon="1.83891">
        <ele>563.7</ele>
        <time>2022-08-03T17:43:33.000Z</time>
      </trkpt>
      <trkpt lat="42.92419" lon="1.83902">
        <ele>563.5</ele>
        <time>2022-08-03T17:43:34.000Z</time>
      </trkpt>
      <trkpt lat="42.92414" lon="1.83912">
        <ele>563.2</ele>
        <time>2022-08-03T17:43:35.000Z</time>
      </trkpt>
      <trkpt lat="42.92409" lon="1.83919">
        <ele>562.9</ele>
        <time>2022-08-03T17:43:36.000Z</time>
      </trkpt>
      <trkpt lat="42.92401" lon="1.83923">
        <ele>562.7</ele>
        <time>2022-08-03T17:43:37.000Z</time>
      </trkpt>
      <trkpt lat="42.92393" lon="1.83921">
        <ele>562.5</ele>
        <time>2022-08-03T17:43:38.000Z</time>
      </trkpt>
      <trkpt lat="42.92384" lon="1.83917">
        <ele>562.3</ele>
        <time>2022-08-03T17:43:39.000Z</time>
      </trkpt>
      <trkpt lat="42.92376" lon="1.83912">
        <ele>562.1</ele>
        <time>2022-08-03T17:43:40.000Z</time>
      </trkpt>
      <trkpt lat="42.92369" lon="1.83906">
        <ele>561.9</ele>
        <time>2022-08-03T17:43:41.000Z</time>
      </trkpt>
      <trkpt lat="42.92363" lon="1.839">
        <ele>561.7</ele>
        <time>2022-08-03T17:43:42.000Z</time>
      </trkpt>
      <trkpt lat="42.92356" lon="1.83894">
        <ele>561.6</ele>
        <time>2022-08-03T17:43:43.000Z</time>
      </trkpt>
      <trkpt lat="42.9235" lon="1.83888">
        <ele>561.4</ele>
        <time>2022-08-03T17:43:44.000Z</time>
      </trkpt>
      <trkpt lat="42.92344" lon="1.83883">
        <ele>561.3</ele>
        <time>2022-08-03T17:43:45.000Z</time>
      </trkpt>
      <trkpt lat="42.92339" lon="1.83878">
        <ele>561.2</ele>
        <time>2022-08-03T17:43:46.000Z</time>
      </trkpt>
      <trkpt lat="42.92332" lon="1.83875">
        <ele>561.1</ele>
        <time>2022-08-03T17:43:47.000Z</time>
      </trkpt>
      <trkpt lat="42.92326" lon="1.83872">
        <ele>561</ele>
        <time>2022-08-03T17:43:48.000Z</time>
      </trkpt>
      <trkpt lat="42.9232" lon="1.83869">
        <ele>560.9</ele>
        <time>2022-08-03T17:43:49.000Z</time>
      </trkpt>
      <trkpt lat="42.92314" lon="1.83866">
        <ele>560.8</ele>
        <time>2022-08-03T17:43:50.000Z</time>
      </trkpt>
      <trkpt lat="42.92307" lon="1.83863">
        <ele>560.8</ele>
        <time>2022-08-03T17:43:51.000Z</time>
      </trkpt>
      <trkpt lat="42.92301" lon="1.8386">
        <ele>560.7</ele>
        <time>2022-08-03T17:43:52.000Z</time>
      </trkpt>
      <trkpt lat="42.92295" lon="1.83857">
        <ele>560.7</ele>
        <time>2022-08-03T17:43:53.000Z</time>
      </trkpt>
      <trkpt lat="42.92289" lon="1.83854">
        <ele>560.7</ele>
        <time>2022-08-03T17:43:54.000Z</time>
      </trkpt>
      <trkpt lat="42.92283" lon="1.83851">
        <ele>560.7</ele>
        <time>2022-08-03T17:43:55.000Z</time>
      </trkpt>
      <trkpt lat="42.92277" lon="1.83848">
        <ele>560.7</ele>
        <time>2022-08-03T17:43:56.000Z</time>
      </trkpt>
      <trkpt lat="42.92272" lon="1.83845">
        <ele>560.7</ele>
        <time>2022-08-03T17:43:57.000Z</time>
      </trkpt>
      <trkpt lat="42.92266" lon="1.83842">
        <ele>560.8</ele>
        <time>2022-08-03T17:43:58.000Z</time>
      </trkpt>
      <trkpt lat="42.92262" lon="1.83839">
        <ele>560.8</ele>
        <time>2022-08-03T17:43:59.000Z</time>
      </trkpt>
      <trkpt lat="42.92257" lon="1.83837">
        <ele>560.9</ele>
        <time>2022-08-03T17:44:00.000Z</time>
      </trkpt>
      <trkpt lat="42.92252" lon="1.83835">
        <ele>560.9</ele>
        <time>2022-08-03T17:44:01.000Z</time>
      </trkpt>
      <trkpt lat="42.92248" lon="1.83832">
        <ele>561</ele>
        <time>2022-08-03T17:44:02.000Z</time>
      </trkpt>
      <trkpt lat="42.92243" lon="1.83831">
        <ele>561.1</ele>
        <time>2022-08-03T17:44:03.000Z</time>
      </trkpt>
      <trkpt lat="42.92239" lon="1.83829">
        <ele>561.1</ele>
        <time>2022-08-03T17:44:04.000Z</time>
      </trkpt>
      <trkpt lat="42.92234" lon="1.83827">
        <ele>561.2</ele>
        <time>2022-08-03T17:44:05.000Z</time>
      </trkpt>
      <trkpt lat="42.92226" lon="1.83824">
        <ele>561.3</ele>
        <time>2022-08-03T17:44:07.000Z</time>
      </trkpt>
      <trkpt lat="42.92219" lon="1.83822">
        <ele>561.5</ele>
        <time>2022-08-03T17:44:09.000Z</time>
      </trkpt>
      <trkpt lat="42.92212" lon="1.83819">
        <ele>561.7</ele>
        <time>2022-08-03T17:44:11.000Z</time>
      </trkpt>
      <trkpt lat="42.92206" lon="1.83816">
        <ele>561.9</ele>
        <time>2022-08-03T17:44:13.000Z</time>
      </trkpt>
      <trkpt lat="42.922" lon="1.83813">
        <ele>562.1</ele>
        <time>2022-08-03T17:44:15.000Z</time>
      </trkpt>
      <trkpt lat="42.92194" lon="1.8381">
        <ele>562.4</ele>
        <time>2022-08-03T17:44:17.000Z</time>
      </trkpt>
      <trkpt lat="42.92187" lon="1.83806">
        <ele>562.6</ele>
        <time>2022-08-03T17:44:19.000Z</time>
      </trkpt>
      <trkpt lat="42.9218" lon="1.83802">
        <ele>562.8</ele>
        <time>2022-08-03T17:44:21.000Z</time>
      </trkpt>
      <trkpt lat="42.92176" lon="1.83799">
        <ele>562.9</ele>
        <time>2022-08-03T17:44:22.000Z</time>
      </trkpt>
      <trkpt lat="42.92172" lon="1.83796">
        <ele>563</ele>
        <time>2022-08-03T17:44:23.000Z</time>
      </trkpt>
      <trkpt lat="42.92168" lon="1.83792">
        <ele>563.1</ele>
        <time>2022-08-03T17:44:24.000Z</time>
      </trkpt>
      <trkpt lat="42.92163" lon="1.83789">
        <ele>563.2</ele>
        <time>2022-08-03T17:44:25.000Z</time>
      </trkpt>
      <trkpt lat="42.92158" lon="1.83786">
        <ele>563.3</ele>
        <time>2022-08-03T17:44:26.000Z</time>
      </trkpt>
      <trkpt lat="42.92153" lon="1.83783">
        <ele>563.3</ele>
        <time>2022-08-03T17:44:27.000Z</time>
      </trkpt>
      <trkpt lat="42.92148" lon="1.8378">
        <ele>563.5</ele>
        <time>2022-08-03T17:44:28.000Z</time>
      </trkpt>
      <trkpt lat="42.92144" lon="1.83777">
        <ele>563.6</ele>
        <time>2022-08-03T17:44:29.000Z</time>
      </trkpt>
      <trkpt lat="42.92139" lon="1.83774">
        <ele>563.7</ele>
        <time>2022-08-03T17:44:30.000Z</time>
      </trkpt>
      <trkpt lat="42.92134" lon="1.83771">
        <ele>563.8</ele>
        <time>2022-08-03T17:44:31.000Z</time>
      </trkpt>
      <trkpt lat="42.92129" lon="1.83768">
        <ele>563.9</ele>
        <time>2022-08-03T17:44:32.000Z</time>
      </trkpt>
      <trkpt lat="42.92125" lon="1.83766">
        <ele>564.1</ele>
        <time>2022-08-03T17:44:33.000Z</time>
      </trkpt>
      <trkpt lat="42.9212" lon="1.83763">
        <ele>564.2</ele>
        <time>2022-08-03T17:44:34.000Z</time>
      </trkpt>
      <trkpt lat="42.92116" lon="1.8376">
        <ele>564.3</ele>
        <time>2022-08-03T17:44:35.000Z</time>
      </trkpt>
      <trkpt lat="42.92112" lon="1.83757">
        <ele>564.4</ele>
        <time>2022-08-03T17:44:36.000Z</time>
      </trkpt>
      <trkpt lat="42.92108" lon="1.83755">
        <ele>564.5</ele>
        <time>2022-08-03T17:44:37.000Z</time>
      </trkpt>
      <trkpt lat="42.921" lon="1.83749">
        <ele>564.7</ele>
        <time>2022-08-03T17:44:39.000Z</time>
      </trkpt>
      <trkpt lat="42.92093" lon="1.83743">
        <ele>565</ele>
        <time>2022-08-03T17:44:41.000Z</time>
      </trkpt>
      <trkpt lat="42.92086" lon="1.83738">
        <ele>565.2</ele>
        <time>2022-08-03T17:44:43.000Z</time>
      </trkpt>
      <trkpt lat="42.92079" lon="1.83732">
        <ele>565.4</ele>
        <time>2022-08-03T17:44:45.000Z</time>
      </trkpt>
      <trkpt lat="42.92073" lon="1.83726">
        <ele>565.6</ele>
        <time>2022-08-03T17:44:47.000Z</time>
      </trkpt>
      <trkpt lat="42.92067" lon="1.8372">
        <ele>565.8</ele>
        <time>2022-08-03T17:44:49.000Z</time>
      </trkpt>
      <trkpt lat="42.92061" lon="1.83714">
        <ele>566</ele>
        <time>2022-08-03T17:44:51.000Z</time>
      </trkpt>
      <trkpt lat="42.92056" lon="1.83708">
        <ele>566.2</ele>
        <time>2022-08-03T17:44:53.000Z</time>
      </trkpt>
      <trkpt lat="42.92051" lon="1.83702">
        <ele>566.5</ele>
        <time>2022-08-03T17:44:55.000Z</time>
      </trkpt>
      <trkpt lat="42.92046" lon="1.83697">
        <ele>566.7</ele>
        <time>2022-08-03T17:44:57.000Z</time>
      </trkpt>
      <trkpt lat="42.92041" lon="1.83692">
        <ele>566.9</ele>
        <time>2022-08-03T17:44:59.000Z</time>
      </trkpt>
      <trkpt lat="42.92037" lon="1.83687">
        <ele>567.2</ele>
        <time>2022-08-03T17:45:01.000Z</time>
      </trkpt>
      <trkpt lat="42.92034" lon="1.83683">
        <ele>567.4</ele>
        <time>2022-08-03T17:45:03.000Z</time>
      </trkpt>
      <trkpt lat="42.9203" lon="1.83679">
        <ele>567.6</ele>
        <time>2022-08-03T17:45:05.000Z</time>
      </trkpt>
      <trkpt lat="42.92025" lon="1.83674">
        <ele>567.9</ele>
        <time>2022-08-03T17:45:08.000Z</time>
      </trkpt>
      <trkpt lat="42.92021" lon="1.8367">
        <ele>568.2</ele>
        <time>2022-08-03T17:45:10.000Z</time>
      </trkpt>
      <trkpt lat="42.92017" lon="1.83665">
        <ele>568.4</ele>
        <time>2022-08-03T17:45:12.000Z</time>
      </trkpt>
      <trkpt lat="42.92013" lon="1.83661">
        <ele>568.5</ele>
        <time>2022-08-03T17:45:14.000Z</time>
      </trkpt>
      <trkpt lat="42.92008" lon="1.83657">
        <ele>568.7</ele>
        <time>2022-08-03T17:45:16.000Z</time>
      </trkpt>
      <trkpt lat="42.92004" lon="1.83654">
        <ele>568.8</ele>
        <time>2022-08-03T17:45:18.000Z</time>
      </trkpt>
      <trkpt lat="42.91999" lon="1.83652">
        <ele>568.9</ele>
        <time>2022-08-03T17:45:20.000Z</time>
      </trkpt>
      <trkpt lat="42.91995" lon="1.8365">
        <ele>569.1</ele>
        <time>2022-08-03T17:45:22.000Z</time>
      </trkpt>
      <trkpt lat="42.9199" lon="1.83645">
        <ele>569.2</ele>
        <time>2022-08-03T17:45:24.000Z</time>
      </trkpt>
      <trkpt lat="42.91987" lon="1.8364">
        <ele>569.3</ele>
        <time>2022-08-03T17:45:26.000Z</time>
      </trkpt>
      <trkpt lat="42.91983" lon="1.83634">
        <ele>569.4</ele>
        <time>2022-08-03T17:45:28.000Z</time>
      </trkpt>
      <trkpt lat="42.91979" lon="1.83629">
        <ele>569.5</ele>
        <time>2022-08-03T17:45:30.000Z</time>
      </trkpt>
      <trkpt lat="42.91974" lon="1.83624">
        <ele>569.6</ele>
        <time>2022-08-03T17:45:32.000Z</time>
      </trkpt>
      <trkpt lat="42.9197" lon="1.8362">
        <ele>569.8</ele>
        <time>2022-08-03T17:45:34.000Z</time>
      </trkpt>
      <trkpt lat="42.91966" lon="1.83615">
        <ele>569.9</ele>
        <time>2022-08-03T17:45:36.000Z</time>
      </trkpt>
      <trkpt lat="42.91962" lon="1.8361">
        <ele>570.1</ele>
        <time>2022-08-03T17:45:38.000Z</time>
      </trkpt>
      <trkpt lat="42.91958" lon="1.83606">
        <ele>570.3</ele>
        <time>2022-08-03T17:45:40.000Z</time>
      </trkpt>
      <trkpt lat="42.91953" lon="1.83601">
        <ele>570.5</ele>
        <time>2022-08-03T17:45:42.000Z</time>
      </trkpt>
      <trkpt lat="42.91949" lon="1.83596">
        <ele>570.7</ele>
        <time>2022-08-03T17:45:44.000Z</time>
      </trkpt>
      <trkpt lat="42.91945" lon="1.83591">
        <ele>570.8</ele>
        <time>2022-08-03T17:45:46.000Z</time>
      </trkpt>
      <trkpt lat="42.91942" lon="1.83585">
        <ele>571</ele>
        <time>2022-08-03T17:45:48.000Z</time>
      </trkpt>
      <trkpt lat="42.91937" lon="1.83583">
        <ele>571.1</ele>
        <time>2022-08-03T17:45:50.000Z</time>
      </trkpt>
      <trkpt lat="42.91931" lon="1.83582">
        <ele>571.3</ele>
        <time>2022-08-03T17:45:52.000Z</time>
      </trkpt>
      <trkpt lat="42.91927" lon="1.83585">
        <ele>571.4</ele>
        <time>2022-08-03T17:45:54.000Z</time>
      </trkpt>
      <trkpt lat="42.91922" lon="1.83591">
        <ele>571.7</ele>
        <time>2022-08-03T17:45:57.000Z</time>
      </trkpt>
      <trkpt lat="42.91919" lon="1.83598">
        <ele>571.9</ele>
        <time>2022-08-03T17:45:59.000Z</time>
      </trkpt>
      <trkpt lat="42.91916" lon="1.83604">
        <ele>572</ele>
        <time>2022-08-03T17:46:01.000Z</time>
      </trkpt>
      <trkpt lat="42.91911" lon="1.83607">
        <ele>572.1</ele>
        <time>2022-08-03T17:46:03.000Z</time>
      </trkpt>
      <trkpt lat="42.91906" lon="1.83609">
        <ele>572.3</ele>
        <time>2022-08-03T17:46:05.000Z</time>
      </trkpt>
      <trkpt lat="42.91901" lon="1.83612">
        <ele>572.4</ele>
        <time>2022-08-03T17:46:07.000Z</time>
      </trkpt>
      <trkpt lat="42.91896" lon="1.83615">
        <ele>572.5</ele>
        <time>2022-08-03T17:46:09.000Z</time>
      </trkpt>
      <trkpt lat="42.91892" lon="1.8362">
        <ele>572.6</ele>
        <time>2022-08-03T17:46:11.000Z</time>
      </trkpt>
      <trkpt lat="42.91889" lon="1.83627">
        <ele>572.6</ele>
        <time>2022-08-03T17:46:13.000Z</time>
      </trkpt>
      <trkpt lat="42.91884" lon="1.83633">
        <ele>572.7</ele>
        <time>2022-08-03T17:46:15.000Z</time>
      </trkpt>
      <trkpt lat="42.91879" lon="1.8364">
        <ele>572.8</ele>
        <time>2022-08-03T17:46:17.000Z</time>
      </trkpt>
      <trkpt lat="42.91875" lon="1.83647">
        <ele>572.8</ele>
        <time>2022-08-03T17:46:19.000Z</time>
      </trkpt>
      <trkpt lat="42.9187" lon="1.83651">
        <ele>572.9</ele>
        <time>2022-08-03T17:46:22.000Z</time>
      </trkpt>
      <trkpt lat="42.91864" lon="1.83651">
        <ele>573</ele>
        <time>2022-08-03T17:46:25.000Z</time>
      </trkpt>
      <trkpt lat="42.91859" lon="1.83649">
        <ele>573.1</ele>
        <time>2022-08-03T17:46:29.000Z</time>
      </trkpt>
      <trkpt lat="42.91858" lon="1.83649">
        <ele>574.3</ele>
        <time>2022-08-03T17:46:50.000Z</time>
      </trkpt>
    </trkseg>
  </trk>
</gpx>